<?xml version='1.0' encoding='UTF-8'?>
<gpx version="1.1" creator="https://www.komoot.de" xmlns="http://www.topografix.com/GPX/1/1" xmlns:xsi="http://www.w3.org/2001/XMLSchema-instance" xsi:schemaLocation="http://www.topografix.com/GPX/1/1 http://www.topografix.com/GPX/1/1/gpx.xsd">
  <metadata>
    <name>Toboggan suresnois ( départ mairie)  - 60km</name>
    <author>
      <link href="https://www.komoot.de">
        <text>komoot</text>
        <type>text/html</type>
      </link>
    </author>
  </metadata>
  <trk>
    <name>Toboggan suresnois ( départ mairie)  - 60km</name>
    <trkseg>
      <trkpt lat="48.884780" lon="2.269292">
        <ele>41.915783</ele>
        <time>2023-03-30T13:36:04.439Z</time>
      </trkpt>
      <trkpt lat="48.884439" lon="2.269026">
        <ele>41.915783</ele>
        <time>2023-03-30T13:36:12.325Z</time>
      </trkpt>
      <trkpt lat="48.884462" lon="2.268923">
        <ele>41.915783</ele>
        <time>2023-03-30T13:36:13.898Z</time>
      </trkpt>
      <trkpt lat="48.884560" lon="2.268487">
        <ele>41.915783</ele>
        <time>2023-03-30T13:36:19.693Z</time>
      </trkpt>
      <trkpt lat="48.884586" lon="2.268373">
        <ele>41.915783</ele>
        <time>2023-03-30T13:36:21.295Z</time>
      </trkpt>
      <trkpt lat="48.884663" lon="2.268043">
        <ele>41.920293</ele>
        <time>2023-03-30T13:36:25.356Z</time>
      </trkpt>
      <trkpt lat="48.884795" lon="2.267467">
        <ele>41.931059</ele>
        <time>2023-03-30T13:36:32.652Z</time>
      </trkpt>
      <trkpt lat="48.884866" lon="2.267418">
        <ele>41.933151</ele>
        <time>2023-03-30T13:36:34.141Z</time>
      </trkpt>
      <trkpt lat="48.885647" lon="2.264041">
        <ele>41.031432</ele>
        <time>2023-03-30T13:37:05.081Z</time>
      </trkpt>
      <trkpt lat="48.885604" lon="2.263934">
        <ele>40.967476</ele>
        <time>2023-03-30T13:37:05.974Z</time>
      </trkpt>
      <trkpt lat="48.885635" lon="2.263809">
        <ele>40.899340</ele>
        <time>2023-03-30T13:37:07.056Z</time>
      </trkpt>
      <trkpt lat="48.885665" lon="2.263684">
        <ele>40.831474</ele>
        <time>2023-03-30T13:37:08.078Z</time>
      </trkpt>
      <trkpt lat="48.885729" lon="2.263679">
        <ele>40.781768</ele>
        <time>2023-03-30T13:37:08.830Z</time>
      </trkpt>
      <trkpt lat="48.885795" lon="2.263389">
        <ele>40.625255</ele>
        <time>2023-03-30T13:37:11.162Z</time>
      </trkpt>
      <trkpt lat="48.885951" lon="2.262734">
        <ele>40.533403</ele>
        <time>2023-03-30T13:37:16.825Z</time>
      </trkpt>
      <trkpt lat="48.885924" lon="2.262633">
        <ele>40.526785</ele>
        <time>2023-03-30T13:37:17.785Z</time>
      </trkpt>
      <trkpt lat="48.886180" lon="2.262095">
        <ele>40.486474</ele>
        <time>2023-03-30T13:37:23.682Z</time>
      </trkpt>
      <trkpt lat="48.886348" lon="2.261853">
        <ele>40.465112</ele>
        <time>2023-03-30T13:37:27.608Z</time>
      </trkpt>
      <trkpt lat="48.886381" lon="2.261735">
        <ele>40.457329</ele>
        <time>2023-03-30T13:37:28.955Z</time>
      </trkpt>
      <trkpt lat="48.886281" lon="2.261709">
        <ele>40.447964</ele>
        <time>2023-03-30T13:37:30.430Z</time>
      </trkpt>
      <trkpt lat="48.886231" lon="2.261644">
        <ele>40.441891</ele>
        <time>2023-03-30T13:37:31.604Z</time>
      </trkpt>
      <trkpt lat="48.886199" lon="2.261603">
        <ele>40.438029</ele>
        <time>2023-03-30T13:37:32.303Z</time>
      </trkpt>
      <trkpt lat="48.886167" lon="2.261485">
        <ele>40.430281</ele>
        <time>2023-03-30T13:37:33.663Z</time>
      </trkpt>
      <trkpt lat="48.886167" lon="2.261414">
        <ele>40.425971</ele>
        <time>2023-03-30T13:37:34.383Z</time>
      </trkpt>
      <trkpt lat="48.886201" lon="2.261343">
        <ele>40.420639</ele>
        <time>2023-03-30T13:37:35.203Z</time>
      </trkpt>
      <trkpt lat="48.886247" lon="2.261313">
        <ele>40.416019</ele>
        <time>2023-03-30T13:37:36.031Z</time>
      </trkpt>
      <trkpt lat="48.885937" lon="2.261143">
        <ele>40.632256</ele>
        <time>2023-03-30T13:37:41.847Z</time>
      </trkpt>
      <trkpt lat="48.885580" lon="2.260958">
        <ele>41.092205</ele>
        <time>2023-03-30T13:37:49.183Z</time>
      </trkpt>
      <trkpt lat="48.885436" lon="2.260881">
        <ele>41.278355</ele>
        <time>2023-03-30T13:37:52.652Z</time>
      </trkpt>
      <trkpt lat="48.885050" lon="2.260673">
        <ele>41.777766</ele>
        <time>2023-03-30T13:38:01.852Z</time>
      </trkpt>
      <trkpt lat="48.884959" lon="2.260633">
        <ele>41.893285</ele>
        <time>2023-03-30T13:38:03.979Z</time>
      </trkpt>
      <trkpt lat="48.884944" lon="2.260441">
        <ele>42.048336</ele>
        <time>2023-03-30T13:38:06.761Z</time>
      </trkpt>
      <trkpt lat="48.884868" lon="2.260282">
        <ele>42.205968</ele>
        <time>2023-03-30T13:38:10.063Z</time>
      </trkpt>
      <trkpt lat="48.884746" lon="2.260215">
        <ele>42.364154</ele>
        <time>2023-03-30T13:38:13.396Z</time>
      </trkpt>
      <trkpt lat="48.884621" lon="2.260264">
        <ele>42.521576</ele>
        <time>2023-03-30T13:38:16.545Z</time>
      </trkpt>
      <trkpt lat="48.884539" lon="2.260417">
        <ele>42.607252</ele>
        <time>2023-03-30T13:38:19.389Z</time>
      </trkpt>
      <trkpt lat="48.884434" lon="2.260368">
        <ele>42.624626</ele>
        <time>2023-03-30T13:38:21.320Z</time>
      </trkpt>
      <trkpt lat="48.883753" lon="2.260045">
        <ele>42.737468</ele>
        <time>2023-03-30T13:38:32.142Z</time>
      </trkpt>
      <trkpt lat="48.883262" lon="2.259812">
        <ele>42.818831</ele>
        <time>2023-03-30T13:38:39.449Z</time>
      </trkpt>
      <trkpt lat="48.883001" lon="2.259688">
        <ele>42.862085</ele>
        <time>2023-03-30T13:38:43.739Z</time>
      </trkpt>
      <trkpt lat="48.882898" lon="2.259639">
        <ele>42.879157</ele>
        <time>2023-03-30T13:38:45.305Z</time>
      </trkpt>
      <trkpt lat="48.882179" lon="2.259298">
        <ele>42.365682</ele>
        <time>2023-03-30T13:38:55.682Z</time>
      </trkpt>
      <trkpt lat="48.881527" lon="2.258989">
        <ele>41.891325</ele>
        <time>2023-03-30T13:39:03.780Z</time>
      </trkpt>
      <trkpt lat="48.881478" lon="2.258965">
        <ele>41.855568</ele>
        <time>2023-03-30T13:39:04.457Z</time>
      </trkpt>
      <trkpt lat="48.881450" lon="2.258952">
        <ele>41.835233</ele>
        <time>2023-03-30T13:39:04.846Z</time>
      </trkpt>
      <trkpt lat="48.881049" lon="2.258653">
        <ele>41.513717</ele>
        <time>2023-03-30T13:39:10.563Z</time>
      </trkpt>
      <trkpt lat="48.880486" lon="2.258389">
        <ele>41.061105</ele>
        <time>2023-03-30T13:39:17.967Z</time>
      </trkpt>
      <trkpt lat="48.880417" lon="2.258356">
        <ele>41.005537</ele>
        <time>2023-03-30T13:39:18.854Z</time>
      </trkpt>
      <trkpt lat="48.880316" lon="2.258298">
        <ele>40.922597</ele>
        <time>2023-03-30T13:39:20.171Z</time>
      </trkpt>
      <trkpt lat="48.880189" lon="2.258231">
        <ele>40.819327</ele>
        <time>2023-03-30T13:39:21.784Z</time>
      </trkpt>
      <trkpt lat="48.879928" lon="2.258141">
        <ele>40.613728</ele>
        <time>2023-03-30T13:39:24.957Z</time>
      </trkpt>
      <trkpt lat="48.877318" lon="2.256790">
        <ele>39.384457</ele>
        <time>2023-03-30T13:40:02.349Z</time>
      </trkpt>
      <trkpt lat="48.876979" lon="2.256619">
        <ele>39.290138</ele>
        <time>2023-03-30T13:40:07.703Z</time>
      </trkpt>
      <trkpt lat="48.876826" lon="2.256493">
        <ele>39.244188</ele>
        <time>2023-03-30T13:40:10.076Z</time>
      </trkpt>
      <trkpt lat="48.876760" lon="2.256469">
        <ele>39.226268</ele>
        <time>2023-03-30T13:40:11.036Z</time>
      </trkpt>
      <trkpt lat="48.876038" lon="2.256146">
        <ele>39.022428</ele>
        <time>2023-03-30T13:40:21.446Z</time>
      </trkpt>
      <trkpt lat="48.875779" lon="2.256018">
        <ele>38.913776</ele>
        <time>2023-03-30T13:40:25.004Z</time>
      </trkpt>
      <trkpt lat="48.875668" lon="2.255964">
        <ele>38.867280</ele>
        <time>2023-03-30T13:40:26.539Z</time>
      </trkpt>
      <trkpt lat="48.875600" lon="2.255929">
        <ele>38.838639</ele>
        <time>2023-03-30T13:40:27.526Z</time>
      </trkpt>
      <trkpt lat="48.874449" lon="2.255328">
        <ele>38.353112</ele>
        <time>2023-03-30T13:40:44.086Z</time>
      </trkpt>
      <trkpt lat="48.874340" lon="2.255216">
        <ele>38.298435</ele>
        <time>2023-03-30T13:40:45.784Z</time>
      </trkpt>
      <trkpt lat="48.874251" lon="2.255124">
        <ele>38.250623</ele>
        <time>2023-03-30T13:40:47.273Z</time>
      </trkpt>
      <trkpt lat="48.874214" lon="2.255027">
        <ele>38.217858</ele>
        <time>2023-03-30T13:40:48.297Z</time>
      </trkpt>
      <trkpt lat="48.874093" lon="2.254966">
        <ele>38.161224</ele>
        <time>2023-03-30T13:40:49.979Z</time>
      </trkpt>
      <trkpt lat="48.874012" lon="2.255030">
        <ele>38.120669</ele>
        <time>2023-03-30T13:40:51.172Z</time>
      </trkpt>
      <trkpt lat="48.873891" lon="2.254972">
        <ele>38.064305</ele>
        <time>2023-03-30T13:40:52.891Z</time>
      </trkpt>
      <trkpt lat="48.873839" lon="2.254946">
        <ele>38.039986</ele>
        <time>2023-03-30T13:40:53.622Z</time>
      </trkpt>
      <trkpt lat="48.873746" lon="2.254901">
        <ele>37.996627</ele>
        <time>2023-03-30T13:40:54.862Z</time>
      </trkpt>
      <trkpt lat="48.873727" lon="2.254741">
        <ele>37.949119</ele>
        <time>2023-03-30T13:41:02.296Z</time>
      </trkpt>
      <trkpt lat="48.873675" lon="2.254707">
        <ele>37.923972</ele>
        <time>2023-03-30T13:41:06.201Z</time>
      </trkpt>
      <trkpt lat="48.873727" lon="2.254741">
        <ele>37.898824</ele>
        <time>2023-03-30T13:41:10.105Z</time>
      </trkpt>
      <trkpt lat="48.873746" lon="2.254901">
        <ele>37.851316</ele>
        <time>2023-03-30T13:41:17.539Z</time>
      </trkpt>
      <trkpt lat="48.873678" lon="2.254869">
        <ele>37.819692</ele>
        <time>2023-03-30T13:41:18.411Z</time>
      </trkpt>
      <trkpt lat="48.873752" lon="2.254945">
        <ele>37.780019</ele>
        <time>2023-03-30T13:41:19.585Z</time>
      </trkpt>
      <trkpt lat="48.873856" lon="2.255054">
        <ele>37.723901</ele>
        <time>2023-03-30T13:41:21.267Z</time>
      </trkpt>
      <trkpt lat="48.873973" lon="2.255204">
        <ele>37.655909</ele>
        <time>2023-03-30T13:41:23.205Z</time>
      </trkpt>
      <trkpt lat="48.873983" lon="2.255264">
        <ele>37.637823</ele>
        <time>2023-03-30T13:41:23.754Z</time>
      </trkpt>
      <trkpt lat="48.873994" lon="2.255296">
        <ele>37.627273</ele>
        <time>2023-03-30T13:41:24.070Z</time>
      </trkpt>
      <trkpt lat="48.874045" lon="2.255369">
        <ele>37.596154</ele>
        <time>2023-03-30T13:41:25.040Z</time>
      </trkpt>
      <trkpt lat="48.874114" lon="2.255396">
        <ele>37.564501</ele>
        <time>2023-03-30T13:41:26.024Z</time>
      </trkpt>
      <trkpt lat="48.874175" lon="2.255375">
        <ele>37.536715</ele>
        <time>2023-03-30T13:41:26.892Z</time>
      </trkpt>
      <trkpt lat="48.874225" lon="2.255315">
        <ele>37.526182</ele>
        <time>2023-03-30T13:41:27.731Z</time>
      </trkpt>
      <trkpt lat="48.874242" lon="2.255274">
        <ele>37.532267</ele>
        <time>2023-03-30T13:41:28.173Z</time>
      </trkpt>
      <trkpt lat="48.874251" lon="2.255124">
        <ele>37.551179</ele>
        <time>2023-03-30T13:41:29.645Z</time>
      </trkpt>
      <trkpt lat="48.874214" lon="2.255027">
        <ele>37.565257</ele>
        <time>2023-03-30T13:41:30.757Z</time>
      </trkpt>
      <trkpt lat="48.874093" lon="2.254966">
        <ele>37.589592</ele>
        <time>2023-03-30T13:41:32.696Z</time>
      </trkpt>
      <trkpt lat="48.874012" lon="2.255030">
        <ele>37.607017</ele>
        <time>2023-03-30T13:41:34.123Z</time>
      </trkpt>
      <trkpt lat="48.873891" lon="2.254972">
        <ele>37.631236</ele>
        <time>2023-03-30T13:41:36.190Z</time>
      </trkpt>
      <trkpt lat="48.873854" lon="2.254825">
        <ele>37.650998</ele>
        <time>2023-03-30T13:41:37.935Z</time>
      </trkpt>
      <trkpt lat="48.873768" lon="2.254489">
        <ele>37.696266</ele>
        <time>2023-03-30T13:41:41.840Z</time>
      </trkpt>
      <trkpt lat="48.873691" lon="2.254154">
        <ele>37.740821</ele>
        <time>2023-03-30T13:41:45.776Z</time>
      </trkpt>
      <trkpt lat="48.873627" lon="2.253797">
        <ele>37.787279</ele>
        <time>2023-03-30T13:41:49.722Z</time>
      </trkpt>
      <trkpt lat="48.873584" lon="2.253372">
        <ele>37.841268</ele>
        <time>2023-03-30T13:41:54.208Z</time>
      </trkpt>
      <trkpt lat="48.873573" lon="2.253025">
        <ele>37.828370</ele>
        <time>2023-03-30T13:41:57.690Z</time>
      </trkpt>
      <trkpt lat="48.873607" lon="2.252159">
        <ele>37.639826</ele>
        <time>2023-03-30T13:42:06.529Z</time>
      </trkpt>
      <trkpt lat="48.873709" lon="2.251578">
        <ele>37.509136</ele>
        <time>2023-03-30T13:42:12.634Z</time>
      </trkpt>
      <trkpt lat="48.873854" lon="2.251101">
        <ele>37.394933</ele>
        <time>2023-03-30T13:42:17.385Z</time>
      </trkpt>
      <trkpt lat="48.873882" lon="2.251044">
        <ele>37.379471</ele>
        <time>2023-03-30T13:42:17.955Z</time>
      </trkpt>
      <trkpt lat="48.874443" lon="2.249958">
        <ele>36.436235</ele>
        <time>2023-03-30T13:42:28.406Z</time>
      </trkpt>
      <trkpt lat="48.874506" lon="2.249577">
        <ele>36.062630</ele>
        <time>2023-03-30T13:42:31.369Z</time>
      </trkpt>
      <trkpt lat="48.874507" lon="2.249271">
        <ele>35.771622</ele>
        <time>2023-03-30T13:42:33.632Z</time>
      </trkpt>
      <trkpt lat="48.874514" lon="2.248973">
        <ele>35.488045</ele>
        <time>2023-03-30T13:42:36.799Z</time>
      </trkpt>
      <trkpt lat="48.874518" lon="2.248804">
        <ele>35.327223</ele>
        <time>2023-03-30T13:42:38.568Z</time>
      </trkpt>
      <trkpt lat="48.874392" lon="2.248684">
        <ele>35.112247</ele>
        <time>2023-03-30T13:42:40.295Z</time>
      </trkpt>
      <trkpt lat="48.874261" lon="2.248559">
        <ele>34.888619</ele>
        <time>2023-03-30T13:42:42.046Z</time>
      </trkpt>
      <trkpt lat="48.874238" lon="2.248537">
        <ele>34.849330</ele>
        <time>2023-03-30T13:42:42.348Z</time>
      </trkpt>
      <trkpt lat="48.873298" lon="2.247574">
        <ele>34.135234</ele>
        <time>2023-03-30T13:42:56.018Z</time>
      </trkpt>
      <trkpt lat="48.872487" lon="2.246832">
        <ele>33.794879</ele>
        <time>2023-03-30T13:43:11.065Z</time>
      </trkpt>
      <trkpt lat="48.871281" lon="2.245856">
        <ele>34.471319</ele>
        <time>2023-03-30T13:43:34.115Z</time>
      </trkpt>
      <trkpt lat="48.870498" lon="2.245273">
        <ele>34.854534</ele>
        <time>2023-03-30T13:43:49.491Z</time>
      </trkpt>
      <trkpt lat="48.869950" lon="2.244855">
        <ele>35.108260</ele>
        <time>2023-03-30T13:43:59.879Z</time>
      </trkpt>
      <trkpt lat="48.869051" lon="2.244123">
        <ele>35.134014</ele>
        <time>2023-03-30T13:44:15.070Z</time>
      </trkpt>
      <trkpt lat="48.868019" lon="2.243177">
        <ele>34.523360</ele>
        <time>2023-03-30T13:44:31.032Z</time>
      </trkpt>
      <trkpt lat="48.867419" lon="2.242602">
        <ele>34.024090</ele>
        <time>2023-03-30T13:44:39.371Z</time>
      </trkpt>
      <trkpt lat="48.867338" lon="2.242393">
        <ele>33.902371</ele>
        <time>2023-03-30T13:44:41.259Z</time>
      </trkpt>
      <trkpt lat="48.867179" lon="2.241672">
        <ele>33.520805</ele>
        <time>2023-03-30T13:44:47.315Z</time>
      </trkpt>
      <trkpt lat="48.867077" lon="2.241036">
        <ele>33.192329</ele>
        <time>2023-03-30T13:44:53.339Z</time>
      </trkpt>
      <trkpt lat="48.867016" lon="2.240387">
        <ele>33.192614</ele>
        <time>2023-03-30T13:44:59.600Z</time>
      </trkpt>
      <trkpt lat="48.866953" lon="2.239768">
        <ele>33.382221</ele>
        <time>2023-03-30T13:45:06.022Z</time>
      </trkpt>
      <trkpt lat="48.866889" lon="2.238885">
        <ele>33.651131</ele>
        <time>2023-03-30T13:45:16.845Z</time>
      </trkpt>
      <trkpt lat="48.866812" lon="2.238460">
        <ele>33.784574</ele>
        <time>2023-03-30T13:45:22.111Z</time>
      </trkpt>
      <trkpt lat="48.866758" lon="2.238169">
        <ele>33.876100</ele>
        <time>2023-03-30T13:45:25.407Z</time>
      </trkpt>
      <trkpt lat="48.866682" lon="2.237821">
        <ele>33.801912</ele>
        <time>2023-03-30T13:45:29.803Z</time>
      </trkpt>
      <trkpt lat="48.866441" lon="2.237024">
        <ele>33.525144</ele>
        <time>2023-03-30T13:45:39.206Z</time>
      </trkpt>
      <trkpt lat="48.866151" lon="2.236304">
        <ele>33.258765</ele>
        <time>2023-03-30T13:45:46.066Z</time>
      </trkpt>
      <trkpt lat="48.866023" lon="2.236007">
        <ele>33.146733</ele>
        <time>2023-03-30T13:45:48.800Z</time>
      </trkpt>
      <trkpt lat="48.865764" lon="2.235526">
        <ele>32.887246</ele>
        <time>2023-03-30T13:45:53.417Z</time>
      </trkpt>
      <trkpt lat="48.865174" lon="2.234598">
        <ele>32.169544</ele>
        <time>2023-03-30T13:46:03.090Z</time>
      </trkpt>
      <trkpt lat="48.865238" lon="2.234466">
        <ele>32.078354</ele>
        <time>2023-03-30T13:46:04.978Z</time>
      </trkpt>
      <trkpt lat="48.865434" lon="2.234052">
        <ele>31.794700</ele>
        <time>2023-03-30T13:46:11.243Z</time>
      </trkpt>
      <trkpt lat="48.865990" lon="2.232857">
        <ele>32.108506</ele>
        <time>2023-03-30T13:46:32.963Z</time>
      </trkpt>
      <trkpt lat="48.866202" lon="2.232298">
        <ele>32.509696</ele>
        <time>2023-03-30T13:46:43.681Z</time>
      </trkpt>
      <trkpt lat="48.866358" lon="2.231799">
        <ele>32.853208</ele>
        <time>2023-03-30T13:46:53.390Z</time>
      </trkpt>
      <trkpt lat="48.866467" lon="2.231441">
        <ele>33.098484</ele>
        <time>2023-03-30T13:46:58.735Z</time>
      </trkpt>
      <trkpt lat="48.866558" lon="2.231121">
        <ele>33.275546</ele>
        <time>2023-03-30T13:47:03.116Z</time>
      </trkpt>
      <trkpt lat="48.866596" lon="2.230979">
        <ele>33.333769</ele>
        <time>2023-03-30T13:47:05.004Z</time>
      </trkpt>
      <trkpt lat="48.867306" lon="2.228323">
        <ele>34.586121</ele>
        <time>2023-03-30T13:47:35.726Z</time>
      </trkpt>
      <trkpt lat="48.867418" lon="2.227900">
        <ele>34.924960</ele>
        <time>2023-03-30T13:47:41.267Z</time>
      </trkpt>
      <trkpt lat="48.867433" lon="2.227842">
        <ele>34.971271</ele>
        <time>2023-03-30T13:47:42.096Z</time>
      </trkpt>
      <trkpt lat="48.867467" lon="2.227721">
        <ele>35.069046</ele>
        <time>2023-03-30T13:47:43.805Z</time>
      </trkpt>
      <trkpt lat="48.867543" lon="2.227529">
        <ele>35.235560</ele>
        <time>2023-03-30T13:47:46.707Z</time>
      </trkpt>
      <trkpt lat="48.867580" lon="2.227496">
        <ele>35.284020</ele>
        <time>2023-03-30T13:47:47.514Z</time>
      </trkpt>
      <trkpt lat="48.867584" lon="2.227381">
        <ele>35.369596</ele>
        <time>2023-03-30T13:47:48.982Z</time>
      </trkpt>
      <trkpt lat="48.867606" lon="2.227306">
        <ele>35.430618</ele>
        <time>2023-03-30T13:47:50.083Z</time>
      </trkpt>
      <trkpt lat="48.867823" lon="2.226571">
        <ele>36.029282</ele>
        <time>2023-03-30T13:48:01.192Z</time>
      </trkpt>
      <trkpt lat="48.867836" lon="2.226529">
        <ele>36.063774</ele>
        <time>2023-03-30T13:48:01.855Z</time>
      </trkpt>
      <trkpt lat="48.867791" lon="2.226493">
        <ele>36.121218</ele>
        <time>2023-03-30T13:48:02.833Z</time>
      </trkpt>
      <trkpt lat="48.867755" lon="2.226470">
        <ele>36.165331</ele>
        <time>2023-03-30T13:48:03.621Z</time>
      </trkpt>
      <trkpt lat="48.867747" lon="2.226465">
        <ele>36.175103</ele>
        <time>2023-03-30T13:48:03.802Z</time>
      </trkpt>
      <trkpt lat="48.867733" lon="2.226456">
        <ele>36.192274</ele>
        <time>2023-03-30T13:48:04.146Z</time>
      </trkpt>
      <trkpt lat="48.867671" lon="2.226409">
        <ele>36.270538</ele>
        <time>2023-03-30T13:48:05.635Z</time>
      </trkpt>
      <trkpt lat="48.867582" lon="2.226350">
        <ele>36.385441</ele>
        <time>2023-03-30T13:48:07.764Z</time>
      </trkpt>
      <trkpt lat="48.867543" lon="2.226327">
        <ele>36.435250</ele>
        <time>2023-03-30T13:48:09.533Z</time>
      </trkpt>
      <trkpt lat="48.867510" lon="2.226306">
        <ele>36.477846</ele>
        <time>2023-03-30T13:48:10.308Z</time>
      </trkpt>
      <trkpt lat="48.867561" lon="2.226101">
        <ele>36.649508</ele>
        <time>2023-03-30T13:48:13.258Z</time>
      </trkpt>
      <trkpt lat="48.867537" lon="2.225941">
        <ele>36.778041</ele>
        <time>2023-03-30T13:48:15.807Z</time>
      </trkpt>
      <trkpt lat="48.867513" lon="2.225919">
        <ele>36.811411</ele>
        <time>2023-03-30T13:48:16.408Z</time>
      </trkpt>
      <trkpt lat="48.867360" lon="2.225783">
        <ele>37.022441</ele>
        <time>2023-03-30T13:48:20.249Z</time>
      </trkpt>
      <trkpt lat="48.867346" lon="2.225771">
        <ele>37.041578</ele>
        <time>2023-03-30T13:48:20.616Z</time>
      </trkpt>
      <trkpt lat="48.867309" lon="2.225738">
        <ele>37.092655</ele>
        <time>2023-03-30T13:48:21.581Z</time>
      </trkpt>
      <trkpt lat="48.867034" lon="2.225507">
        <ele>37.466754</ele>
        <time>2023-03-30T13:48:28.415Z</time>
      </trkpt>
      <trkpt lat="48.867004" lon="2.225486">
        <ele>37.506079</ele>
        <time>2023-03-30T13:48:29.111Z</time>
      </trkpt>
      <trkpt lat="48.866979" lon="2.225481">
        <ele>37.536103</ele>
        <time>2023-03-30T13:48:29.577Z</time>
      </trkpt>
      <trkpt lat="48.866979" lon="2.225383">
        <ele>37.612860</ele>
        <time>2023-03-30T13:48:30.893Z</time>
      </trkpt>
      <trkpt lat="48.866978" lon="2.225329">
        <ele>37.655172</ele>
        <time>2023-03-30T13:48:31.563Z</time>
      </trkpt>
      <trkpt lat="48.866975" lon="2.225301">
        <ele>37.677392</ele>
        <time>2023-03-30T13:48:31.904Z</time>
      </trkpt>
      <trkpt lat="48.866990" lon="2.225282">
        <ele>37.700639</ele>
        <time>2023-03-30T13:48:32.253Z</time>
      </trkpt>
      <trkpt lat="48.867002" lon="2.225236">
        <ele>37.739398</ele>
        <time>2023-03-30T13:48:32.868Z</time>
      </trkpt>
      <trkpt lat="48.866880" lon="2.225079">
        <ele>37.929720</ele>
        <time>2023-03-30T13:48:35.654Z</time>
      </trkpt>
      <trkpt lat="48.866796" lon="2.224975">
        <ele>38.058711</ele>
        <time>2023-03-30T13:48:37.468Z</time>
      </trkpt>
      <trkpt lat="48.866567" lon="2.224714">
        <ele>38.399500</ele>
        <time>2023-03-30T13:48:42.094Z</time>
      </trkpt>
      <trkpt lat="48.866436" lon="2.224599">
        <ele>38.507930</ele>
        <time>2023-03-30T13:48:44.526Z</time>
      </trkpt>
      <trkpt lat="48.866329" lon="2.224516">
        <ele>38.584564</ele>
        <time>2023-03-30T13:48:46.322Z</time>
      </trkpt>
      <trkpt lat="48.866277" lon="2.224396">
        <ele>38.644867</ele>
        <time>2023-03-30T13:48:47.813Z</time>
      </trkpt>
      <trkpt lat="48.866127" lon="2.224076">
        <ele>38.809765</ele>
        <time>2023-03-30T13:48:51.879Z</time>
      </trkpt>
      <trkpt lat="48.866124" lon="2.224045">
        <ele>38.822914</ele>
        <time>2023-03-30T13:48:52.229Z</time>
      </trkpt>
      <trkpt lat="48.866111" lon="2.224004">
        <ele>38.842015</ele>
        <time>2023-03-30T13:48:52.710Z</time>
      </trkpt>
      <trkpt lat="48.866041" lon="2.223942">
        <ele>38.893698</ele>
        <time>2023-03-30T13:48:53.969Z</time>
      </trkpt>
      <trkpt lat="48.866037" lon="2.223878">
        <ele>38.920678</ele>
        <time>2023-03-30T13:48:54.681Z</time>
      </trkpt>
      <trkpt lat="48.865546" lon="2.222834">
        <ele>39.459260</ele>
        <time>2023-03-30T13:49:08.649Z</time>
      </trkpt>
      <trkpt lat="48.865485" lon="2.222701">
        <ele>39.527303</ele>
        <time>2023-03-30T13:49:10.789Z</time>
      </trkpt>
      <trkpt lat="48.865033" lon="2.221809">
        <ele>41.724827</ele>
        <time>2023-03-30T13:49:27.395Z</time>
      </trkpt>
      <trkpt lat="48.864966" lon="2.221628">
        <ele>42.163940</ele>
        <time>2023-03-30T13:49:30.932Z</time>
      </trkpt>
      <trkpt lat="48.864911" lon="2.221503">
        <ele>42.481895</ele>
        <time>2023-03-30T13:49:33.703Z</time>
      </trkpt>
      <trkpt lat="48.864766" lon="2.221224">
        <ele>43.233663</ele>
        <time>2023-03-30T13:49:40.490Z</time>
      </trkpt>
      <trkpt lat="48.864739" lon="2.221178">
        <ele>43.364007</ele>
        <time>2023-03-30T13:49:41.739Z</time>
      </trkpt>
      <trkpt lat="48.864708" lon="2.221109">
        <ele>43.540670</ele>
        <time>2023-03-30T13:49:43.478Z</time>
      </trkpt>
      <trkpt lat="48.864680" lon="2.221053">
        <ele>43.689390</ele>
        <time>2023-03-30T13:49:44.982Z</time>
      </trkpt>
      <trkpt lat="48.864627" lon="2.220937">
        <ele>43.988001</ele>
        <time>2023-03-30T13:49:47.937Z</time>
      </trkpt>
      <trkpt lat="48.864584" lon="2.220836">
        <ele>44.242366</ele>
        <time>2023-03-30T13:49:50.523Z</time>
      </trkpt>
      <trkpt lat="48.864289" lon="2.220276">
        <ele>46.131328</ele>
        <time>2023-03-30T13:50:06.713Z</time>
      </trkpt>
      <trkpt lat="48.864240" lon="2.220127">
        <ele>46.806556</ele>
        <time>2023-03-30T13:50:10.733Z</time>
      </trkpt>
      <trkpt lat="48.864089" lon="2.219826">
        <ele>48.340933</ele>
        <time>2023-03-30T13:50:19.926Z</time>
      </trkpt>
      <trkpt lat="48.863907" lon="2.219401">
        <ele>50.396514</ele>
        <time>2023-03-30T13:50:33.074Z</time>
      </trkpt>
      <trkpt lat="48.863809" lon="2.219167">
        <ele>51.520934</ele>
        <time>2023-03-30T13:50:40.653Z</time>
      </trkpt>
      <trkpt lat="48.863730" lon="2.219005">
        <ele>52.338346</ele>
        <time>2023-03-30T13:50:46.315Z</time>
      </trkpt>
      <trkpt lat="48.863663" lon="2.218952">
        <ele>52.803736</ele>
        <time>2023-03-30T13:50:49.426Z</time>
      </trkpt>
      <trkpt lat="48.863121" lon="2.218715">
        <ele>56.278821</ele>
        <time>2023-03-30T13:51:14.529Z</time>
      </trkpt>
      <trkpt lat="48.862909" lon="2.218519">
        <ele>57.372108</ele>
        <time>2023-03-30T13:51:24.783Z</time>
      </trkpt>
      <trkpt lat="48.862704" lon="2.218182">
        <ele>58.641684</ele>
        <time>2023-03-30T13:51:35.983Z</time>
      </trkpt>
      <trkpt lat="48.862644" lon="2.218013">
        <ele>59.172869</ele>
        <time>2023-03-30T13:51:40.225Z</time>
      </trkpt>
      <trkpt lat="48.862638" lon="2.217895">
        <ele>59.500234</ele>
        <time>2023-03-30T13:51:42.991Z</time>
      </trkpt>
      <trkpt lat="48.862671" lon="2.217831">
        <ele>59.725155</ele>
        <time>2023-03-30T13:51:44.763Z</time>
      </trkpt>
      <trkpt lat="48.862746" lon="2.217766">
        <ele>60.088149</ele>
        <time>2023-03-30T13:51:47.251Z</time>
      </trkpt>
      <trkpt lat="48.862725" lon="2.217689">
        <ele>60.318709</ele>
        <time>2023-03-30T13:51:48.824Z</time>
      </trkpt>
      <trkpt lat="48.862664" lon="2.217364">
        <ele>61.253537</ele>
        <time>2023-03-30T13:51:55.663Z</time>
      </trkpt>
      <trkpt lat="48.862622" lon="2.217145">
        <ele>61.884512</ele>
        <time>2023-03-30T13:51:59.586Z</time>
      </trkpt>
      <trkpt lat="48.862574" lon="2.216915">
        <ele>62.551942</ele>
        <time>2023-03-30T13:52:04.128Z</time>
      </trkpt>
      <trkpt lat="48.862631" lon="2.216876">
        <ele>62.814760</ele>
        <time>2023-03-30T13:52:05.809Z</time>
      </trkpt>
      <trkpt lat="48.862681" lon="2.216903">
        <ele>63.037859</ele>
        <time>2023-03-30T13:52:07.000Z</time>
      </trkpt>
      <trkpt lat="48.862771" lon="2.216975">
        <ele>63.465474</ele>
        <time>2023-03-30T13:52:09.362Z</time>
      </trkpt>
      <trkpt lat="48.863031" lon="2.217372">
        <ele>64.342736</ele>
        <time>2023-03-30T13:52:18.000Z</time>
      </trkpt>
      <trkpt lat="48.863183" lon="2.217502">
        <ele>64.590978</ele>
        <time>2023-03-30T13:52:21.943Z</time>
      </trkpt>
      <trkpt lat="48.864054" lon="2.217838">
        <ele>65.870013</ele>
        <time>2023-03-30T13:52:35.176Z</time>
      </trkpt>
      <trkpt lat="48.864125" lon="2.217827">
        <ele>65.971594</ele>
        <time>2023-03-30T13:52:36.557Z</time>
      </trkpt>
      <trkpt lat="48.864235" lon="2.217891">
        <ele>66.139239</ele>
        <time>2023-03-30T13:52:49.850Z</time>
      </trkpt>
      <trkpt lat="48.864370" lon="2.217939">
        <ele>66.336577</ele>
        <time>2023-03-30T13:53:05.862Z</time>
      </trkpt>
      <trkpt lat="48.864476" lon="2.217980">
        <ele>66.492260</ele>
        <time>2023-03-30T13:53:19.330Z</time>
      </trkpt>
      <trkpt lat="48.864699" lon="2.218081">
        <ele>67.604641</ele>
        <time>2023-03-30T13:53:48.225Z</time>
      </trkpt>
      <trkpt lat="48.864781" lon="2.218115">
        <ele>68.082722</ele>
        <time>2023-03-30T13:53:51.000Z</time>
      </trkpt>
      <trkpt lat="48.864699" lon="2.218081">
        <ele>68.560803</ele>
        <time>2023-03-30T13:53:54.015Z</time>
      </trkpt>
      <trkpt lat="48.864476" lon="2.217980">
        <ele>69.869619</ele>
        <time>2023-03-30T13:54:24.685Z</time>
      </trkpt>
      <trkpt lat="48.864370" lon="2.217939">
        <ele>70.484843</ele>
        <time>2023-03-30T13:54:39.574Z</time>
      </trkpt>
      <trkpt lat="48.864235" lon="2.217891">
        <ele>71.264683</ele>
        <time>2023-03-30T13:54:58.177Z</time>
      </trkpt>
      <trkpt lat="48.864125" lon="2.217827">
        <ele>71.927179</ele>
        <time>2023-03-30T13:55:14.153Z</time>
      </trkpt>
      <trkpt lat="48.864152" lon="2.217783">
        <ele>72.149826</ele>
        <time>2023-03-30T13:55:15.872Z</time>
      </trkpt>
      <trkpt lat="48.864230" lon="2.217330">
        <ele>73.882498</ele>
        <time>2023-03-30T13:55:28.645Z</time>
      </trkpt>
      <trkpt lat="48.864246" lon="2.216818">
        <ele>75.779154</ele>
        <time>2023-03-30T13:55:43.097Z</time>
      </trkpt>
      <trkpt lat="48.864320" lon="2.216226">
        <ele>78.059425</ele>
        <time>2023-03-30T13:56:00.904Z</time>
      </trkpt>
      <trkpt lat="48.864412" lon="2.215266">
        <ele>81.785227</ele>
        <time>2023-03-30T13:56:30.280Z</time>
      </trkpt>
      <trkpt lat="48.864483" lon="2.214705">
        <ele>83.979257</ele>
        <time>2023-03-30T13:56:44.853Z</time>
      </trkpt>
      <trkpt lat="48.864505" lon="2.213784">
        <ele>87.242137</ele>
        <time>2023-03-30T13:57:02.900Z</time>
      </trkpt>
      <trkpt lat="48.864506" lon="2.213717">
        <ele>87.291637</ele>
        <time>2023-03-30T13:57:04.011Z</time>
      </trkpt>
      <trkpt lat="48.864517" lon="2.213642">
        <ele>87.348394</ele>
        <time>2023-03-30T13:57:05.237Z</time>
      </trkpt>
      <trkpt lat="48.864526" lon="2.213547">
        <ele>87.419287</ele>
        <time>2023-03-30T13:57:06.791Z</time>
      </trkpt>
      <trkpt lat="48.864485" lon="2.213497">
        <ele>87.478305</ele>
        <time>2023-03-30T13:57:08.045Z</time>
      </trkpt>
      <trkpt lat="48.864451" lon="2.213453">
        <ele>87.528440</ele>
        <time>2023-03-30T13:57:09.083Z</time>
      </trkpt>
      <trkpt lat="48.864165" lon="2.213097">
        <ele>87.943482</ele>
        <time>2023-03-30T13:57:17.024Z</time>
      </trkpt>
      <trkpt lat="48.864010" lon="2.212893">
        <ele>88.173682</ele>
        <time>2023-03-30T13:57:20.798Z</time>
      </trkpt>
      <trkpt lat="48.863800" lon="2.212630">
        <ele>88.479185</ele>
        <time>2023-03-30T13:57:25.652Z</time>
      </trkpt>
      <trkpt lat="48.863703" lon="2.212645">
        <ele>88.588658</ele>
        <time>2023-03-30T13:57:27.160Z</time>
      </trkpt>
      <trkpt lat="48.863464" lon="2.212361">
        <ele>88.929268</ele>
        <time>2023-03-30T13:57:31.714Z</time>
      </trkpt>
      <trkpt lat="48.863430" lon="2.212321">
        <ele>88.977541</ele>
        <time>2023-03-30T13:57:32.286Z</time>
      </trkpt>
      <trkpt lat="48.863326" lon="2.212201">
        <ele>89.124142</ele>
        <time>2023-03-30T13:57:34.167Z</time>
      </trkpt>
      <trkpt lat="48.863176" lon="2.212337">
        <ele>89.080879</ele>
        <time>2023-03-30T13:57:36.411Z</time>
      </trkpt>
      <trkpt lat="48.863074" lon="2.212344">
        <ele>88.975026</ele>
        <time>2023-03-30T13:57:37.739Z</time>
      </trkpt>
      <trkpt lat="48.863015" lon="2.212349">
        <ele>88.913764</ele>
        <time>2023-03-30T13:57:38.544Z</time>
      </trkpt>
      <trkpt lat="48.862024" lon="2.212430">
        <ele>87.884890</ele>
        <time>2023-03-30T13:57:50.597Z</time>
      </trkpt>
      <trkpt lat="48.861809" lon="2.212390">
        <ele>87.660332</ele>
        <time>2023-03-30T13:57:53.051Z</time>
      </trkpt>
      <trkpt lat="48.861663" lon="2.212359">
        <ele>87.507501</ele>
        <time>2023-03-30T13:57:54.717Z</time>
      </trkpt>
      <trkpt lat="48.861624" lon="2.212417">
        <ele>87.450936</ele>
        <time>2023-03-30T13:57:55.329Z</time>
      </trkpt>
      <trkpt lat="48.861587" lon="2.212470">
        <ele>87.398229</ele>
        <time>2023-03-30T13:57:55.893Z</time>
      </trkpt>
      <trkpt lat="48.861512" lon="2.212578">
        <ele>87.337499</ele>
        <time>2023-03-30T13:57:57.047Z</time>
      </trkpt>
      <trkpt lat="48.861331" lon="2.212795">
        <ele>87.375744</ele>
        <time>2023-03-30T13:57:59.667Z</time>
      </trkpt>
      <trkpt lat="48.860970" lon="2.212975">
        <ele>87.438775</ele>
        <time>2023-03-30T13:58:04.176Z</time>
      </trkpt>
      <trkpt lat="48.860862" lon="2.213023">
        <ele>87.457443</ele>
        <time>2023-03-30T13:58:05.667Z</time>
      </trkpt>
      <trkpt lat="48.860077" lon="2.213405">
        <ele>87.594189</ele>
        <time>2023-03-30T13:58:20.626Z</time>
      </trkpt>
      <trkpt lat="48.859860" lon="2.213492">
        <ele>87.667224</ele>
        <time>2023-03-30T13:58:25.438Z</time>
      </trkpt>
      <trkpt lat="48.859668" lon="2.213484">
        <ele>88.293891</ele>
        <time>2023-03-30T13:58:30.036Z</time>
      </trkpt>
      <trkpt lat="48.859539" lon="2.213538">
        <ele>88.730444</ele>
        <time>2023-03-30T13:58:33.056Z</time>
      </trkpt>
      <trkpt lat="48.859501" lon="2.213401">
        <ele>89.049586</ele>
        <time>2023-03-30T13:58:35.773Z</time>
      </trkpt>
      <trkpt lat="48.859397" lon="2.213061">
        <ele>89.854431</ele>
        <time>2023-03-30T13:58:41.904Z</time>
      </trkpt>
      <trkpt lat="48.859349" lon="2.212904">
        <ele>90.226048</ele>
        <time>2023-03-30T13:58:45.239Z</time>
      </trkpt>
      <trkpt lat="48.859268" lon="2.212627">
        <ele>90.876726</ele>
        <time>2023-03-30T13:58:50.667Z</time>
      </trkpt>
      <trkpt lat="48.859225" lon="2.212494">
        <ele>91.194825</ele>
        <time>2023-03-30T13:58:53.493Z</time>
      </trkpt>
      <trkpt lat="48.859170" lon="2.212354">
        <ele>91.544841</ele>
        <time>2023-03-30T13:58:56.909Z</time>
      </trkpt>
      <trkpt lat="48.859042" lon="2.211893">
        <ele>92.618915</ele>
        <time>2023-03-30T13:59:07.614Z</time>
      </trkpt>
      <trkpt lat="48.859006" lon="2.211732">
        <ele>92.983924</ele>
        <time>2023-03-30T13:59:11.337Z</time>
      </trkpt>
      <trkpt lat="48.858978" lon="2.211612">
        <ele>93.257231</ele>
        <time>2023-03-30T13:59:14.048Z</time>
      </trkpt>
      <trkpt lat="48.858943" lon="2.211562">
        <ele>93.413945</ele>
        <time>2023-03-30T13:59:15.648Z</time>
      </trkpt>
      <trkpt lat="48.858897" lon="2.211496">
        <ele>93.630104</ele>
        <time>2023-03-30T13:59:18.022Z</time>
      </trkpt>
      <trkpt lat="48.858814" lon="2.211381">
        <ele>94.025771</ele>
        <time>2023-03-30T13:59:21.949Z</time>
      </trkpt>
      <trkpt lat="48.858589" lon="2.211198">
        <ele>94.924796</ele>
        <time>2023-03-30T13:59:30.290Z</time>
      </trkpt>
      <trkpt lat="48.858098" lon="2.210915">
        <ele>96.774781</ele>
        <time>2023-03-30T13:59:45.419Z</time>
      </trkpt>
      <trkpt lat="48.858062" lon="2.210714">
        <ele>97.257627</ele>
        <time>2023-03-30T13:59:48.994Z</time>
      </trkpt>
      <trkpt lat="48.857949" lon="2.210519">
        <ele>97.859933</ele>
        <time>2023-03-30T13:59:53.739Z</time>
      </trkpt>
      <trkpt lat="48.857747" lon="2.210338">
        <ele>98.686038</ele>
        <time>2023-03-30T13:59:59.830Z</time>
      </trkpt>
      <trkpt lat="48.856958" lon="2.209773">
        <ele>100.810131</ele>
        <time>2023-03-30T14:00:23.236Z</time>
      </trkpt>
      <trkpt lat="48.856851" lon="2.209678">
        <ele>101.031481</ele>
        <time>2023-03-30T14:00:26.281Z</time>
      </trkpt>
      <trkpt lat="48.855519" lon="2.208007">
        <ele>103.891776</ele>
        <time>2023-03-30T14:00:59.562Z</time>
      </trkpt>
      <trkpt lat="48.854475" lon="2.206703">
        <ele>106.153210</ele>
        <time>2023-03-30T14:01:26.753Z</time>
      </trkpt>
      <trkpt lat="48.854298" lon="2.206574">
        <ele>106.890869</ele>
        <time>2023-03-30T14:01:31.491Z</time>
      </trkpt>
      <trkpt lat="48.852899" lon="2.205842">
        <ele>112.510095</ele>
        <time>2023-03-30T14:02:17.704Z</time>
      </trkpt>
      <trkpt lat="48.852830" lon="2.205820">
        <ele>112.921264</ele>
        <time>2023-03-30T14:02:20.466Z</time>
      </trkpt>
      <trkpt lat="48.852160" lon="2.205630">
        <ele>116.896155</ele>
        <time>2023-03-30T14:02:47.855Z</time>
      </trkpt>
      <trkpt lat="48.852083" lon="2.205602">
        <ele>117.357896</ele>
        <time>2023-03-30T14:02:50.953Z</time>
      </trkpt>
      <trkpt lat="48.851961" lon="2.205509">
        <ele>118.153892</ele>
        <time>2023-03-30T14:02:56.430Z</time>
      </trkpt>
      <trkpt lat="48.851830" lon="2.205478">
        <ele>118.927092</ele>
        <time>2023-03-30T14:03:01.837Z</time>
      </trkpt>
      <trkpt lat="48.851717" lon="2.205346">
        <ele>119.758295</ele>
        <time>2023-03-30T14:03:07.309Z</time>
      </trkpt>
      <trkpt lat="48.851256" lon="2.205101">
        <ele>122.606507</ele>
        <time>2023-03-30T14:03:26.144Z</time>
      </trkpt>
      <trkpt lat="48.851035" lon="2.204928">
        <ele>123.881178</ele>
        <time>2023-03-30T14:03:35.358Z</time>
      </trkpt>
      <trkpt lat="48.850943" lon="2.204811">
        <ele>124.480609</ele>
        <time>2023-03-30T14:03:39.865Z</time>
      </trkpt>
      <trkpt lat="48.850752" lon="2.204383">
        <ele>126.180971</ele>
        <time>2023-03-30T14:03:52.462Z</time>
      </trkpt>
      <trkpt lat="48.850643" lon="2.204245">
        <ele>126.889862</ele>
        <time>2023-03-30T14:03:57.762Z</time>
      </trkpt>
      <trkpt lat="48.850360" lon="2.203743">
        <ele>129.063354</ele>
        <time>2023-03-30T14:04:13.016Z</time>
      </trkpt>
      <trkpt lat="48.850099" lon="2.203088">
        <ele>131.581108</ele>
        <time>2023-03-30T14:04:29.345Z</time>
      </trkpt>
      <trkpt lat="48.850001" lon="2.202875">
        <ele>132.182802</ele>
        <time>2023-03-30T14:04:34.640Z</time>
      </trkpt>
      <trkpt lat="48.849754" lon="2.202300">
        <ele>133.512051</ele>
        <time>2023-03-30T14:04:47.569Z</time>
      </trkpt>
      <trkpt lat="48.849436" lon="2.201621">
        <ele>135.125364</ele>
        <time>2023-03-30T14:05:01.659Z</time>
      </trkpt>
      <trkpt lat="48.849297" lon="2.201406">
        <ele>135.708822</ele>
        <time>2023-03-30T14:05:06.565Z</time>
      </trkpt>
      <trkpt lat="48.849009" lon="2.201078">
        <ele>136.767572</ele>
        <time>2023-03-30T14:05:15.073Z</time>
      </trkpt>
      <trkpt lat="48.849647" lon="2.199317">
        <ele>140.273082</ele>
        <time>2023-03-30T14:05:45.811Z</time>
      </trkpt>
      <trkpt lat="48.849795" lon="2.198767">
        <ele>141.298186</ele>
        <time>2023-03-30T14:05:56.302Z</time>
      </trkpt>
      <trkpt lat="48.849957" lon="2.197996">
        <ele>143.282077</ele>
        <time>2023-03-30T14:06:12.390Z</time>
      </trkpt>
      <trkpt lat="48.849989" lon="2.197830">
        <ele>143.782746</ele>
        <time>2023-03-30T14:06:16.131Z</time>
      </trkpt>
      <trkpt lat="48.850423" lon="2.195652">
        <ele>150.223729</ele>
        <time>2023-03-30T14:07:06.983Z</time>
      </trkpt>
      <trkpt lat="48.850681" lon="2.194457">
        <ele>153.022346</ele>
        <time>2023-03-30T14:07:32.918Z</time>
      </trkpt>
      <trkpt lat="48.850695" lon="2.194393">
        <ele>153.172423</ele>
        <time>2023-03-30T14:07:34.253Z</time>
      </trkpt>
      <trkpt lat="48.850735" lon="2.194319">
        <ele>153.385524</ele>
        <time>2023-03-30T14:07:36.110Z</time>
      </trkpt>
      <trkpt lat="48.851172" lon="2.192667">
        <ele>156.468387</ele>
        <time>2023-03-30T14:08:03.192Z</time>
      </trkpt>
      <trkpt lat="48.851279" lon="2.192267">
        <ele>156.875722</ele>
        <time>2023-03-30T14:08:09.096Z</time>
      </trkpt>
      <trkpt lat="48.851472" lon="2.191503">
        <ele>157.647739</ele>
        <time>2023-03-30T14:08:19.859Z</time>
      </trkpt>
      <trkpt lat="48.851516" lon="2.191250">
        <ele>157.894605</ele>
        <time>2023-03-30T14:08:23.418Z</time>
      </trkpt>
      <trkpt lat="48.851572" lon="2.190929">
        <ele>158.207885</ele>
        <time>2023-03-30T14:08:27.619Z</time>
      </trkpt>
      <trkpt lat="48.851613" lon="2.190657">
        <ele>158.408424</ele>
        <time>2023-03-30T14:08:31.214Z</time>
      </trkpt>
      <trkpt lat="48.851900" lon="2.189461">
        <ele>158.550121</ele>
        <time>2023-03-30T14:08:45.023Z</time>
      </trkpt>
      <trkpt lat="48.851919" lon="2.189202">
        <ele>158.579127</ele>
        <time>2023-03-30T14:08:47.567Z</time>
      </trkpt>
      <trkpt lat="48.851875" lon="2.188626">
        <ele>158.643669</ele>
        <time>2023-03-30T14:08:52.947Z</time>
      </trkpt>
      <trkpt lat="48.851826" lon="2.188474">
        <ele>158.662509</ele>
        <time>2023-03-30T14:08:54.496Z</time>
      </trkpt>
      <trkpt lat="48.851749" lon="2.188393">
        <ele>158.678350</ele>
        <time>2023-03-30T14:08:55.830Z</time>
      </trkpt>
      <trkpt lat="48.850631" lon="2.187732">
        <ele>158.289184</ele>
        <time>2023-03-30T14:09:11.639Z</time>
      </trkpt>
      <trkpt lat="48.850479" lon="2.187596">
        <ele>158.219206</ele>
        <time>2023-03-30T14:09:13.959Z</time>
      </trkpt>
      <trkpt lat="48.850384" lon="2.187450">
        <ele>158.165604</ele>
        <time>2023-03-30T14:09:15.725Z</time>
      </trkpt>
      <trkpt lat="48.850352" lon="2.187203">
        <ele>158.099885</ele>
        <time>2023-03-30T14:09:17.916Z</time>
      </trkpt>
      <trkpt lat="48.850402" lon="2.187010">
        <ele>158.045736</ele>
        <time>2023-03-30T14:09:19.758Z</time>
      </trkpt>
      <trkpt lat="48.850836" lon="2.186297">
        <ele>158.200463</ele>
        <time>2023-03-30T14:09:29.275Z</time>
      </trkpt>
      <trkpt lat="48.850892" lon="2.186178">
        <ele>158.240813</ele>
        <time>2023-03-30T14:09:30.853Z</time>
      </trkpt>
      <trkpt lat="48.850893" lon="2.186171">
        <ele>158.242789</ele>
        <time>2023-03-30T14:09:30.936Z</time>
      </trkpt>
      <trkpt lat="48.850912" lon="2.186069">
        <ele>158.272027</ele>
        <time>2023-03-30T14:09:32.107Z</time>
      </trkpt>
      <trkpt lat="48.850902" lon="2.185823">
        <ele>158.340004</ele>
        <time>2023-03-30T14:09:34.915Z</time>
      </trkpt>
      <trkpt lat="48.850859" lon="2.185713">
        <ele>158.375293</ele>
        <time>2023-03-30T14:09:36.407Z</time>
      </trkpt>
      <trkpt lat="48.850504" lon="2.185295">
        <ele>158.563526</ele>
        <time>2023-03-30T14:09:44.815Z</time>
      </trkpt>
      <trkpt lat="48.848526" lon="2.182836">
        <ele>159.762268</ele>
        <time>2023-03-30T14:10:27.321Z</time>
      </trkpt>
      <trkpt lat="48.848339" lon="2.182640">
        <ele>159.923568</ele>
        <time>2023-03-30T14:10:30.578Z</time>
      </trkpt>
      <trkpt lat="48.848059" lon="2.182429">
        <ele>160.145486</ele>
        <time>2023-03-30T14:10:35.613Z</time>
      </trkpt>
      <trkpt lat="48.847543" lon="2.182027">
        <ele>160.557219</ele>
        <time>2023-03-30T14:10:46.158Z</time>
      </trkpt>
      <trkpt lat="48.847139" lon="2.181720">
        <ele>161.021449</ele>
        <time>2023-03-30T14:10:54.663Z</time>
      </trkpt>
      <trkpt lat="48.847118" lon="2.181634">
        <ele>161.153159</ele>
        <time>2023-03-30T14:10:55.868Z</time>
      </trkpt>
      <trkpt lat="48.847075" lon="2.181608">
        <ele>161.254135</ele>
        <time>2023-03-30T14:10:56.812Z</time>
      </trkpt>
      <trkpt lat="48.847212" lon="2.181004">
        <ele>162.171456</ele>
        <time>2023-03-30T14:11:06.268Z</time>
      </trkpt>
      <trkpt lat="48.847273" lon="2.180592">
        <ele>162.777811</ele>
        <time>2023-03-30T14:11:13.227Z</time>
      </trkpt>
      <trkpt lat="48.847498" lon="2.179068">
        <ele>164.932632</ele>
        <time>2023-03-30T14:11:40.132Z</time>
      </trkpt>
      <trkpt lat="48.847713" lon="2.177231">
        <ele>166.792835</ele>
        <time>2023-03-30T14:12:06.415Z</time>
      </trkpt>
      <trkpt lat="48.847813" lon="2.176357">
        <ele>167.449672</ele>
        <time>2023-03-30T14:12:16.963Z</time>
      </trkpt>
      <trkpt lat="48.848283" lon="2.173847">
        <ele>167.312552</ele>
        <time>2023-03-30T14:12:41.088Z</time>
      </trkpt>
      <trkpt lat="48.848495" lon="2.172514">
        <ele>166.745008</ele>
        <time>2023-03-30T14:12:52.884Z</time>
      </trkpt>
      <trkpt lat="48.848534" lon="2.171995">
        <ele>166.528824</ele>
        <time>2023-03-30T14:12:57.220Z</time>
      </trkpt>
      <trkpt lat="48.848563" lon="2.171594">
        <ele>166.361872</ele>
        <time>2023-03-30T14:13:00.565Z</time>
      </trkpt>
      <trkpt lat="48.848605" lon="2.171135">
        <ele>166.158863</ele>
        <time>2023-03-30T14:13:04.413Z</time>
      </trkpt>
      <trkpt lat="48.848628" lon="2.170861">
        <ele>166.019429</ele>
        <time>2023-03-30T14:13:06.713Z</time>
      </trkpt>
      <trkpt lat="48.848618" lon="2.170743">
        <ele>165.959372</ele>
        <time>2023-03-30T14:13:07.693Z</time>
      </trkpt>
      <trkpt lat="48.848500" lon="2.170548">
        <ele>165.825646</ele>
        <time>2023-03-30T14:13:09.829Z</time>
      </trkpt>
      <trkpt lat="48.848301" lon="2.170290">
        <ele>165.624986</ele>
        <time>2023-03-30T14:13:13.015Z</time>
      </trkpt>
      <trkpt lat="48.848032" lon="2.169940">
        <ele>165.353333</ele>
        <time>2023-03-30T14:13:17.398Z</time>
      </trkpt>
      <trkpt lat="48.847814" lon="2.169658">
        <ele>165.133721</ele>
        <time>2023-03-30T14:13:21.121Z</time>
      </trkpt>
      <trkpt lat="48.847709" lon="2.169520">
        <ele>165.027230</ele>
        <time>2023-03-30T14:13:22.903Z</time>
      </trkpt>
      <trkpt lat="48.847106" lon="2.169191">
        <ele>164.703629</ele>
        <time>2023-03-30T14:13:31.186Z</time>
      </trkpt>
      <trkpt lat="48.846873" lon="2.169077">
        <ele>164.618978</ele>
        <time>2023-03-30T14:13:34.476Z</time>
      </trkpt>
      <trkpt lat="48.846876" lon="2.169015">
        <ele>164.604830</ele>
        <time>2023-03-30T14:13:35.039Z</time>
      </trkpt>
      <trkpt lat="48.846846" lon="2.168963">
        <ele>164.589093</ele>
        <time>2023-03-30T14:13:35.653Z</time>
      </trkpt>
      <trkpt lat="48.846848" lon="2.168746">
        <ele>164.539703</ele>
        <time>2023-03-30T14:13:38.351Z</time>
      </trkpt>
      <trkpt lat="48.846853" lon="2.168318">
        <ele>164.442285</ele>
        <time>2023-03-30T14:13:43.738Z</time>
      </trkpt>
      <trkpt lat="48.846851" lon="2.167025">
        <ele>164.277049</ele>
        <time>2023-03-30T14:14:00.417Z</time>
      </trkpt>
      <trkpt lat="48.846851" lon="2.166931">
        <ele>164.294317</ele>
        <time>2023-03-30T14:14:01.711Z</time>
      </trkpt>
      <trkpt lat="48.846836" lon="2.158827">
        <ele>165.879887</ele>
        <time>2023-03-30T14:15:56.569Z</time>
      </trkpt>
      <trkpt lat="48.846898" lon="2.158709">
        <ele>165.913199</ele>
        <time>2023-03-30T14:15:58.103Z</time>
      </trkpt>
      <trkpt lat="48.846873" lon="2.158598">
        <ele>165.939081</ele>
        <time>2023-03-30T14:15:59.329Z</time>
      </trkpt>
      <trkpt lat="48.846841" lon="2.158564">
        <ele>165.952171</ele>
        <time>2023-03-30T14:15:59.949Z</time>
      </trkpt>
      <trkpt lat="48.846848" lon="2.156293">
        <ele>166.456550</ele>
        <time>2023-03-30T14:16:24.195Z</time>
      </trkpt>
      <trkpt lat="48.846849" lon="2.155991">
        <ele>166.528893</ele>
        <time>2023-03-30T14:16:27.431Z</time>
      </trkpt>
      <trkpt lat="48.846851" lon="2.155007">
        <ele>166.764603</ele>
        <time>2023-03-30T14:16:37.720Z</time>
      </trkpt>
      <trkpt lat="48.846852" lon="2.154726">
        <ele>166.831915</ele>
        <time>2023-03-30T14:16:40.636Z</time>
      </trkpt>
      <trkpt lat="48.846840" lon="2.153022">
        <ele>167.172779</ele>
        <time>2023-03-30T14:16:59.253Z</time>
      </trkpt>
      <trkpt lat="48.846840" lon="2.152709">
        <ele>167.218300</ele>
        <time>2023-03-30T14:17:02.588Z</time>
      </trkpt>
      <trkpt lat="48.846860" lon="2.150455">
        <ele>167.256758</ele>
        <time>2023-03-30T14:17:25.523Z</time>
      </trkpt>
      <trkpt lat="48.846899" lon="2.150442">
        <ele>167.233635</ele>
        <time>2023-03-30T14:17:26.087Z</time>
      </trkpt>
      <trkpt lat="48.846935" lon="2.150350">
        <ele>167.192841</ele>
        <time>2023-03-30T14:17:27.065Z</time>
      </trkpt>
      <trkpt lat="48.846909" lon="2.150266">
        <ele>167.157462</ele>
        <time>2023-03-30T14:17:27.915Z</time>
      </trkpt>
      <trkpt lat="48.846855" lon="2.150243">
        <ele>167.124983</ele>
        <time>2023-03-30T14:17:28.704Z</time>
      </trkpt>
      <trkpt lat="48.846849" lon="2.148938">
        <ele>166.627607</ele>
        <time>2023-03-30T14:17:39.614Z</time>
      </trkpt>
      <trkpt lat="48.846849" lon="2.148931">
        <ele>166.624939</ele>
        <time>2023-03-30T14:17:39.666Z</time>
      </trkpt>
      <trkpt lat="48.846852" lon="2.148865">
        <ele>166.599725</ele>
        <time>2023-03-30T14:17:40.177Z</time>
      </trkpt>
      <trkpt lat="48.846912" lon="2.148766">
        <ele>166.548431</ele>
        <time>2023-03-30T14:17:41.213Z</time>
      </trkpt>
      <trkpt lat="48.847922" lon="2.147167">
        <ele>165.154681</ele>
        <time>2023-03-30T14:17:58.618Z</time>
      </trkpt>
      <trkpt lat="48.847959" lon="2.147141">
        <ele>165.113090</ele>
        <time>2023-03-30T14:17:59.124Z</time>
      </trkpt>
      <trkpt lat="48.848023" lon="2.147166">
        <ele>165.045669</ele>
        <time>2023-03-30T14:17:59.917Z</time>
      </trkpt>
      <trkpt lat="48.848077" lon="2.147073">
        <ele>164.962396</ele>
        <time>2023-03-30T14:18:00.915Z</time>
      </trkpt>
      <trkpt lat="48.848059" lon="2.146989">
        <ele>164.903083</ele>
        <time>2023-03-30T14:18:01.614Z</time>
      </trkpt>
      <trkpt lat="48.848922" lon="2.145585">
        <ele>164.058743</ele>
        <time>2023-03-30T14:18:18.287Z</time>
      </trkpt>
      <trkpt lat="48.849382" lon="2.144890">
        <ele>163.698989</ele>
        <time>2023-03-30T14:18:27.564Z</time>
      </trkpt>
      <trkpt lat="48.849431" lon="2.144854">
        <ele>163.668803</ele>
        <time>2023-03-30T14:18:28.284Z</time>
      </trkpt>
      <trkpt lat="48.849191" lon="2.143758">
        <ele>162.350281</ele>
        <time>2023-03-30T14:18:37.556Z</time>
      </trkpt>
      <trkpt lat="48.849189" lon="2.143743">
        <ele>162.330158</ele>
        <time>2023-03-30T14:18:37.669Z</time>
      </trkpt>
      <trkpt lat="48.849103" lon="2.143272">
        <ele>161.687461</ele>
        <time>2023-03-30T14:18:41.235Z</time>
      </trkpt>
      <trkpt lat="48.849084" lon="2.143080">
        <ele>161.432169</ele>
        <time>2023-03-30T14:18:42.621Z</time>
      </trkpt>
      <trkpt lat="48.849095" lon="2.142856">
        <ele>161.136822</ele>
        <time>2023-03-30T14:18:44.203Z</time>
      </trkpt>
      <trkpt lat="48.849189" lon="2.142511">
        <ele>160.645848</ele>
        <time>2023-03-30T14:18:46.742Z</time>
      </trkpt>
      <trkpt lat="48.849266" lon="2.142335">
        <ele>160.367955</ele>
        <time>2023-03-30T14:18:48.141Z</time>
      </trkpt>
      <trkpt lat="48.849340" lon="2.142253">
        <ele>160.184958</ele>
        <time>2023-03-30T14:18:49.100Z</time>
      </trkpt>
      <trkpt lat="48.849683" lon="2.142269">
        <ele>158.863410</ele>
        <time>2023-03-30T14:18:52.551Z</time>
      </trkpt>
      <trkpt lat="48.850426" lon="2.142377">
        <ele>155.470282</ele>
        <time>2023-03-30T14:18:59.775Z</time>
      </trkpt>
      <trkpt lat="48.850607" lon="2.142190">
        <ele>154.475305</ele>
        <time>2023-03-30T14:19:01.806Z</time>
      </trkpt>
      <trkpt lat="48.850653" lon="2.142056">
        <ele>154.023187</ele>
        <time>2023-03-30T14:19:02.724Z</time>
      </trkpt>
      <trkpt lat="48.850661" lon="2.141947">
        <ele>153.695102</ele>
        <time>2023-03-30T14:19:03.384Z</time>
      </trkpt>
      <trkpt lat="48.850631" lon="2.141783">
        <ele>153.185907</ele>
        <time>2023-03-30T14:19:04.415Z</time>
      </trkpt>
      <trkpt lat="48.850467" lon="2.141462">
        <ele>151.970212</ele>
        <time>2023-03-30T14:19:06.896Z</time>
      </trkpt>
      <trkpt lat="48.850428" lon="2.141325">
        <ele>151.553980</ele>
        <time>2023-03-30T14:19:07.821Z</time>
      </trkpt>
      <trkpt lat="48.850421" lon="2.141138">
        <ele>151.050737</ele>
        <time>2023-03-30T14:19:08.981Z</time>
      </trkpt>
      <trkpt lat="48.850467" lon="2.140966">
        <ele>150.551899</ele>
        <time>2023-03-30T14:19:10.138Z</time>
      </trkpt>
      <trkpt lat="48.850590" lon="2.140907">
        <ele>150.025253</ele>
        <time>2023-03-30T14:19:11.367Z</time>
      </trkpt>
      <trkpt lat="48.850714" lon="2.140952">
        <ele>149.504711</ele>
        <time>2023-03-30T14:19:12.576Z</time>
      </trkpt>
      <trkpt lat="48.850951" lon="2.141153">
        <ele>148.396523</ele>
        <time>2023-03-30T14:19:15.178Z</time>
      </trkpt>
      <trkpt lat="48.851254" lon="2.141366">
        <ele>147.033394</ele>
        <time>2023-03-30T14:19:18.486Z</time>
      </trkpt>
      <trkpt lat="48.851315" lon="2.141351">
        <ele>146.781085</ele>
        <time>2023-03-30T14:19:19.077Z</time>
      </trkpt>
      <trkpt lat="48.851045" lon="2.140934">
        <ele>145.209266</ele>
        <time>2023-03-30T14:19:22.886Z</time>
      </trkpt>
      <trkpt lat="48.849490" lon="2.138534">
        <ele>138.062651</ele>
        <time>2023-03-30T14:19:46.547Z</time>
      </trkpt>
      <trkpt lat="48.848692" lon="2.137420">
        <ele>131.053732</ele>
        <time>2023-03-30T14:19:56.477Z</time>
      </trkpt>
      <trkpt lat="48.848901" lon="2.136946">
        <ele>128.625168</ele>
        <time>2023-03-30T14:19:59.745Z</time>
      </trkpt>
      <trkpt lat="48.849346" lon="2.135962">
        <ele>121.285521</ele>
        <time>2023-03-30T14:20:06.454Z</time>
      </trkpt>
      <trkpt lat="48.849580" lon="2.135336">
        <ele>116.658565</ele>
        <time>2023-03-30T14:20:10.476Z</time>
      </trkpt>
      <trkpt lat="48.849659" lon="2.135042">
        <ele>114.617640</ele>
        <time>2023-03-30T14:20:12.267Z</time>
      </trkpt>
      <trkpt lat="48.849740" lon="2.134452">
        <ele>110.744219</ele>
        <time>2023-03-30T14:20:15.733Z</time>
      </trkpt>
      <trkpt lat="48.849730" lon="2.134266">
        <ele>110.182120</ele>
        <time>2023-03-30T14:20:16.823Z</time>
      </trkpt>
      <trkpt lat="48.849726" lon="2.134177">
        <ele>110.034010</ele>
        <time>2023-03-30T14:20:17.345Z</time>
      </trkpt>
      <trkpt lat="48.849695" lon="2.134022">
        <ele>109.765041</ele>
        <time>2023-03-30T14:20:18.313Z</time>
      </trkpt>
      <trkpt lat="48.849560" lon="2.133729">
        <ele>109.171182</ele>
        <time>2023-03-30T14:20:20.469Z</time>
      </trkpt>
      <trkpt lat="48.848919" lon="2.132905">
        <ele>107.052845</ele>
        <time>2023-03-30T14:20:29.393Z</time>
      </trkpt>
      <trkpt lat="48.848874" lon="2.132786">
        <ele>106.824968</ele>
        <time>2023-03-30T14:20:31.065Z</time>
      </trkpt>
      <trkpt lat="48.848896" lon="2.132760">
        <ele>106.754650</ele>
        <time>2023-03-30T14:20:31.499Z</time>
      </trkpt>
      <trkpt lat="48.848890" lon="2.132681">
        <ele>106.622614</ele>
        <time>2023-03-30T14:20:32.460Z</time>
      </trkpt>
      <trkpt lat="48.849307" lon="2.132295">
        <ele>106.580628</ele>
        <time>2023-03-30T14:20:44.792Z</time>
      </trkpt>
      <trkpt lat="48.849492" lon="2.132057">
        <ele>107.500251</ele>
        <time>2023-03-30T14:20:52.281Z</time>
      </trkpt>
      <trkpt lat="48.849841" lon="2.131496">
        <ele>109.427652</ele>
        <time>2023-03-30T14:21:08.341Z</time>
      </trkpt>
      <trkpt lat="48.849955" lon="2.131383">
        <ele>109.944039</ele>
        <time>2023-03-30T14:21:12.935Z</time>
      </trkpt>
      <trkpt lat="48.849966" lon="2.131202">
        <ele>110.397841</ele>
        <time>2023-03-30T14:21:16.543Z</time>
      </trkpt>
      <trkpt lat="48.849978" lon="2.131067">
        <ele>110.737939</ele>
        <time>2023-03-30T14:21:19.594Z</time>
      </trkpt>
      <trkpt lat="48.849971" lon="2.130919">
        <ele>111.108384</ele>
        <time>2023-03-30T14:21:23.141Z</time>
      </trkpt>
      <trkpt lat="48.850111" lon="2.130914">
        <ele>111.639688</ele>
        <time>2023-03-30T14:21:27.658Z</time>
      </trkpt>
      <trkpt lat="48.850316" lon="2.131032">
        <ele>112.471377</ele>
        <time>2023-03-30T14:21:35.479Z</time>
      </trkpt>
      <trkpt lat="48.850416" lon="2.131048">
        <ele>112.821817</ele>
        <time>2023-03-30T14:21:38.730Z</time>
      </trkpt>
      <trkpt lat="48.851608" lon="2.130908">
        <ele>116.493027</ele>
        <time>2023-03-30T14:22:14.054Z</time>
      </trkpt>
      <trkpt lat="48.852342" lon="2.130955">
        <ele>118.296570</ele>
        <time>2023-03-30T14:22:30.060Z</time>
      </trkpt>
      <trkpt lat="48.854100" lon="2.131161">
        <ele>118.989298</ele>
        <time>2023-03-30T14:22:58.326Z</time>
      </trkpt>
      <trkpt lat="48.854134" lon="2.131245">
        <ele>118.950000</ele>
        <time>2023-03-30T14:22:59.127Z</time>
      </trkpt>
      <trkpt lat="48.854166" lon="2.131259">
        <ele>118.929833</ele>
        <time>2023-03-30T14:22:59.508Z</time>
      </trkpt>
      <trkpt lat="48.854224" lon="2.131216">
        <ele>118.890751</ele>
        <time>2023-03-30T14:23:00.278Z</time>
      </trkpt>
      <trkpt lat="48.854236" lon="2.131171">
        <ele>118.871403</ele>
        <time>2023-03-30T14:23:00.696Z</time>
      </trkpt>
      <trkpt lat="48.854216" lon="2.131081">
        <ele>118.833550</ele>
        <time>2023-03-30T14:23:01.546Z</time>
      </trkpt>
      <trkpt lat="48.854892" lon="2.130209">
        <ele>118.296578</ele>
        <time>2023-03-30T14:23:12.296Z</time>
      </trkpt>
      <trkpt lat="48.855254" lon="2.129731">
        <ele>118.006163</ele>
        <time>2023-03-30T14:23:18.207Z</time>
      </trkpt>
      <trkpt lat="48.855479" lon="2.129414">
        <ele>118.479202</ele>
        <time>2023-03-30T14:23:22.575Z</time>
      </trkpt>
      <trkpt lat="48.856065" lon="2.128606">
        <ele>119.926368</ele>
        <time>2023-03-30T14:23:36.248Z</time>
      </trkpt>
      <trkpt lat="48.856316" lon="2.127960">
        <ele>120.829210</ele>
        <time>2023-03-30T14:23:48.718Z</time>
      </trkpt>
      <trkpt lat="48.856593" lon="2.127171">
        <ele>123.855848</ele>
        <time>2023-03-30T14:24:09.789Z</time>
      </trkpt>
      <trkpt lat="48.857117" lon="2.125850">
        <ele>131.446294</ele>
        <time>2023-03-30T14:24:57.699Z</time>
      </trkpt>
      <trkpt lat="48.857453" lon="2.124756">
        <ele>136.794318</ele>
        <time>2023-03-30T14:25:38.980Z</time>
      </trkpt>
      <trkpt lat="48.857501" lon="2.124726">
        <ele>137.095981</ele>
        <time>2023-03-30T14:25:41.510Z</time>
      </trkpt>
      <trkpt lat="48.857512" lon="2.124556">
        <ele>137.749230</ele>
        <time>2023-03-30T14:25:46.843Z</time>
      </trkpt>
      <trkpt lat="48.857770" lon="2.123669">
        <ele>141.457976</ele>
        <time>2023-03-30T14:26:14.006Z</time>
      </trkpt>
      <trkpt lat="48.857843" lon="2.123406">
        <ele>142.549572</ele>
        <time>2023-03-30T14:26:20.367Z</time>
      </trkpt>
      <trkpt lat="48.858035" lon="2.122712">
        <ele>145.051910</ele>
        <time>2023-03-30T14:26:33.498Z</time>
      </trkpt>
      <trkpt lat="48.858307" lon="2.121633">
        <ele>142.753345</ele>
        <time>2023-03-30T14:26:43.098Z</time>
      </trkpt>
      <trkpt lat="48.859031" lon="2.119798">
        <ele>137.245190</ele>
        <time>2023-03-30T14:26:56.098Z</time>
      </trkpt>
      <trkpt lat="48.858893" lon="2.119606">
        <ele>136.111013</ele>
        <time>2023-03-30T14:26:57.763Z</time>
      </trkpt>
      <trkpt lat="48.858845" lon="2.119472">
        <ele>135.502467</ele>
        <time>2023-03-30T14:26:58.655Z</time>
      </trkpt>
      <trkpt lat="48.858855" lon="2.119364">
        <ele>135.067460</ele>
        <time>2023-03-30T14:26:59.275Z</time>
      </trkpt>
      <trkpt lat="48.858908" lon="2.119313">
        <ele>134.687177</ele>
        <time>2023-03-30T14:26:59.826Z</time>
      </trkpt>
      <trkpt lat="48.859163" lon="2.119249">
        <ele>133.120338</ele>
        <time>2023-03-30T14:27:02.163Z</time>
      </trkpt>
      <trkpt lat="48.859271" lon="2.119082">
        <ele>132.186344</ele>
        <time>2023-03-30T14:27:03.541Z</time>
      </trkpt>
      <trkpt lat="48.859782" lon="2.117591">
        <ele>128.187405</ele>
        <time>2023-03-30T14:27:14.035Z</time>
      </trkpt>
      <trkpt lat="48.859844" lon="2.117431">
        <ele>128.043779</ele>
        <time>2023-03-30T14:27:15.287Z</time>
      </trkpt>
      <trkpt lat="48.860734" lon="2.115619">
        <ele>127.655530</ele>
        <time>2023-03-30T14:27:42.367Z</time>
      </trkpt>
      <trkpt lat="48.860807" lon="2.115410">
        <ele>128.052822</ele>
        <time>2023-03-30T14:27:45.826Z</time>
      </trkpt>
      <trkpt lat="48.860893" lon="2.115159">
        <ele>128.527968</ele>
        <time>2023-03-30T14:27:51.461Z</time>
      </trkpt>
      <trkpt lat="48.861007" lon="2.114826">
        <ele>129.158228</ele>
        <time>2023-03-30T14:27:57.797Z</time>
      </trkpt>
      <trkpt lat="48.861076" lon="2.114502">
        <ele>129.730002</ele>
        <time>2023-03-30T14:28:04.779Z</time>
      </trkpt>
      <trkpt lat="48.860836" lon="2.114352">
        <ele>130.392248</ele>
        <time>2023-03-30T14:28:12.866Z</time>
      </trkpt>
      <trkpt lat="48.860593" lon="2.113702">
        <ele>131.712092</ele>
        <time>2023-03-30T14:28:29.518Z</time>
      </trkpt>
      <trkpt lat="48.860593" lon="2.113702">
        <ele>131.712092</ele>
        <time>2023-03-30T14:28:29.566Z</time>
      </trkpt>
      <trkpt lat="48.860593" lon="2.113702">
        <ele>131.712092</ele>
        <time>2023-03-30T14:28:29.566Z</time>
      </trkpt>
      <trkpt lat="48.860590" lon="2.113700">
        <ele>131.722073</ele>
        <time>2023-03-30T14:28:29.627Z</time>
      </trkpt>
      <trkpt lat="48.860720" lon="2.113680">
        <ele>132.120182</ele>
        <time>2023-03-30T14:28:32.050Z</time>
      </trkpt>
      <trkpt lat="48.860880" lon="2.113700">
        <ele>132.609318</ele>
        <time>2023-03-30T14:28:35.027Z</time>
      </trkpt>
      <trkpt lat="48.861190" lon="2.114080">
        <ele>133.822694</ele>
        <time>2023-03-30T14:28:42.409Z</time>
      </trkpt>
      <trkpt lat="48.861310" lon="2.113850">
        <ele>134.411097</ele>
        <time>2023-03-30T14:28:45.989Z</time>
      </trkpt>
      <trkpt lat="48.861410" lon="2.113440">
        <ele>135.287581</ele>
        <time>2023-03-30T14:28:51.321Z</time>
      </trkpt>
      <trkpt lat="48.861460" lon="2.113370">
        <ele>135.494692</ele>
        <time>2023-03-30T14:28:52.581Z</time>
      </trkpt>
      <trkpt lat="48.861430" lon="2.113140">
        <ele>135.964688</ele>
        <time>2023-03-30T14:28:55.442Z</time>
      </trkpt>
      <trkpt lat="48.861440" lon="2.113144">
        <ele>135.996193</ele>
        <time>2023-03-30T14:28:55.631Z</time>
      </trkpt>
      <trkpt lat="48.861501" lon="2.112819">
        <ele>136.673630</ele>
        <time>2023-03-30T14:29:01.657Z</time>
      </trkpt>
      <trkpt lat="48.861567" lon="2.112644">
        <ele>137.332594</ele>
        <time>2023-03-30T14:29:06.015Z</time>
      </trkpt>
      <trkpt lat="48.861893" lon="2.111778">
        <ele>141.127610</ele>
        <time>2023-03-30T14:29:29.351Z</time>
      </trkpt>
      <trkpt lat="48.862296" lon="2.110727">
        <ele>145.754590</ele>
        <time>2023-03-30T14:30:02.012Z</time>
      </trkpt>
      <trkpt lat="48.862326" lon="2.110648">
        <ele>146.101536</ele>
        <time>2023-03-30T14:30:05.011Z</time>
      </trkpt>
      <trkpt lat="48.862369" lon="2.110569">
        <ele>146.491527</ele>
        <time>2023-03-30T14:30:07.965Z</time>
      </trkpt>
      <trkpt lat="48.862595" lon="2.110266">
        <ele>147.891034</ele>
        <time>2023-03-30T14:30:21.095Z</time>
      </trkpt>
      <trkpt lat="48.862833" lon="2.110000">
        <ele>149.036374</ele>
        <time>2023-03-30T14:30:33.724Z</time>
      </trkpt>
      <trkpt lat="48.862967" lon="2.109687">
        <ele>149.988882</ele>
        <time>2023-03-30T14:30:43.790Z</time>
      </trkpt>
      <trkpt lat="48.863061" lon="2.109384">
        <ele>150.843342</ele>
        <time>2023-03-30T14:30:51.874Z</time>
      </trkpt>
      <trkpt lat="48.863169" lon="2.109050">
        <ele>151.792593</ele>
        <time>2023-03-30T14:30:59.500Z</time>
      </trkpt>
      <trkpt lat="48.863306" lon="2.108123">
        <ele>154.111640</ele>
        <time>2023-03-30T14:31:12.078Z</time>
      </trkpt>
      <trkpt lat="48.863609" lon="2.107187">
        <ele>151.121456</ele>
        <time>2023-03-30T14:31:19.290Z</time>
      </trkpt>
      <trkpt lat="48.863761" lon="2.106786">
        <ele>149.794883</ele>
        <time>2023-03-30T14:31:22.143Z</time>
      </trkpt>
      <trkpt lat="48.864276" lon="2.105629">
        <ele>145.397965</ele>
        <time>2023-03-30T14:31:30.457Z</time>
      </trkpt>
      <trkpt lat="48.864533" lon="2.105356">
        <ele>143.036780</ele>
        <time>2023-03-30T14:31:33.240Z</time>
      </trkpt>
      <trkpt lat="48.864291" lon="2.104685">
        <ele>139.245725</ele>
        <time>2023-03-30T14:31:37.692Z</time>
      </trkpt>
      <trkpt lat="48.864045" lon="2.103872">
        <ele>134.812325</ele>
        <time>2023-03-30T14:31:42.916Z</time>
      </trkpt>
      <trkpt lat="48.864025" lon="2.103808">
        <ele>134.461300</ele>
        <time>2023-03-30T14:31:43.336Z</time>
      </trkpt>
      <trkpt lat="48.866087" lon="2.102020">
        <ele>117.206256</ele>
        <time>2023-03-30T14:32:04.433Z</time>
      </trkpt>
      <trkpt lat="48.866322" lon="2.101988">
        <ele>115.931575</ele>
        <time>2023-03-30T14:32:06.535Z</time>
      </trkpt>
      <trkpt lat="48.866635" lon="2.102122">
        <ele>114.174801</ele>
        <time>2023-03-30T14:32:09.468Z</time>
      </trkpt>
      <trkpt lat="48.866835" lon="2.102090">
        <ele>113.088324</ele>
        <time>2023-03-30T14:32:11.305Z</time>
      </trkpt>
      <trkpt lat="48.867009" lon="2.101968">
        <ele>112.053113</ele>
        <time>2023-03-30T14:32:13.132Z</time>
      </trkpt>
      <trkpt lat="48.867103" lon="2.101898">
        <ele>111.487616</ele>
        <time>2023-03-30T14:32:14.117Z</time>
      </trkpt>
      <trkpt lat="48.867191" lon="2.101867">
        <ele>110.999594</ele>
        <time>2023-03-30T14:32:15.042Z</time>
      </trkpt>
      <trkpt lat="48.867247" lon="2.101886">
        <ele>110.689608</ele>
        <time>2023-03-30T14:32:15.667Z</time>
      </trkpt>
      <trkpt lat="48.867301" lon="2.101860">
        <ele>110.383588</ele>
        <time>2023-03-30T14:32:16.245Z</time>
      </trkpt>
      <trkpt lat="48.867341" lon="2.101788">
        <ele>110.048667</ele>
        <time>2023-03-30T14:32:16.863Z</time>
      </trkpt>
      <trkpt lat="48.867348" lon="2.101701">
        <ele>109.737181</ele>
        <time>2023-03-30T14:32:17.441Z</time>
      </trkpt>
      <trkpt lat="48.867322" lon="2.101612">
        <ele>109.394914</ele>
        <time>2023-03-30T14:32:18.148Z</time>
      </trkpt>
      <trkpt lat="48.867240" lon="2.101558">
        <ele>109.608810</ele>
        <time>2023-03-30T14:32:19.322Z</time>
      </trkpt>
      <trkpt lat="48.867198" lon="2.101453">
        <ele>109.802299</ele>
        <time>2023-03-30T14:32:20.332Z</time>
      </trkpt>
      <trkpt lat="48.867144" lon="2.101317">
        <ele>110.052416</ele>
        <time>2023-03-30T14:32:21.514Z</time>
      </trkpt>
      <trkpt lat="48.867084" lon="2.101136">
        <ele>110.371542</ele>
        <time>2023-03-30T14:32:23.518Z</time>
      </trkpt>
      <trkpt lat="48.866897" lon="2.100861">
        <ele>110.994296</ele>
        <time>2023-03-30T14:32:27.925Z</time>
      </trkpt>
      <trkpt lat="48.866793" lon="2.100760">
        <ele>111.289687</ele>
        <time>2023-03-30T14:32:30.673Z</time>
      </trkpt>
      <trkpt lat="48.866537" lon="2.100543">
        <ele>111.991259</ele>
        <time>2023-03-30T14:32:37.627Z</time>
      </trkpt>
      <trkpt lat="48.866458" lon="2.100411">
        <ele>112.272242</ele>
        <time>2023-03-30T14:32:41.453Z</time>
      </trkpt>
      <trkpt lat="48.866061" lon="2.099144">
        <ele>115.891931</ele>
        <time>2023-03-30T14:33:17.901Z</time>
      </trkpt>
      <trkpt lat="48.865592" lon="2.097611">
        <ele>123.347598</ele>
        <time>2023-03-30T14:34:04.519Z</time>
      </trkpt>
      <trkpt lat="48.865509" lon="2.097340">
        <ele>124.665857</ele>
        <time>2023-03-30T14:34:12.498Z</time>
      </trkpt>
      <trkpt lat="48.865448" lon="2.097141">
        <ele>125.634024</ele>
        <time>2023-03-30T14:34:19.030Z</time>
      </trkpt>
      <trkpt lat="48.865249" lon="2.096490">
        <ele>128.608885</ele>
        <time>2023-03-30T14:34:40.480Z</time>
      </trkpt>
      <trkpt lat="48.865192" lon="2.096304">
        <ele>129.457032</ele>
        <time>2023-03-30T14:34:46.587Z</time>
      </trkpt>
      <trkpt lat="48.865150" lon="2.096169">
        <ele>130.074302</ele>
        <time>2023-03-30T14:34:50.993Z</time>
      </trkpt>
      <trkpt lat="48.865107" lon="2.096027">
        <ele>130.720450</ele>
        <time>2023-03-30T14:34:55.137Z</time>
      </trkpt>
      <trkpt lat="48.864932" lon="2.095455">
        <ele>133.327968</ele>
        <time>2023-03-30T14:35:11.789Z</time>
      </trkpt>
      <trkpt lat="48.864861" lon="2.095120">
        <ele>134.782765</ele>
        <time>2023-03-30T14:35:20.818Z</time>
      </trkpt>
      <trkpt lat="48.864838" lon="2.094893">
        <ele>135.732123</ele>
        <time>2023-03-30T14:35:25.744Z</time>
      </trkpt>
      <trkpt lat="48.864837" lon="2.094844">
        <ele>135.934760</ele>
        <time>2023-03-30T14:35:26.951Z</time>
      </trkpt>
      <trkpt lat="48.864837" lon="2.094799">
        <ele>136.120765</ele>
        <time>2023-03-30T14:35:28.001Z</time>
      </trkpt>
      <trkpt lat="48.864838" lon="2.094753">
        <ele>136.311008</ele>
        <time>2023-03-30T14:35:29.009Z</time>
      </trkpt>
      <trkpt lat="48.864841" lon="2.094702">
        <ele>136.522655</ele>
        <time>2023-03-30T14:35:30.160Z</time>
      </trkpt>
      <trkpt lat="48.864844" lon="2.094651">
        <ele>136.734302</ele>
        <time>2023-03-30T14:35:31.285Z</time>
      </trkpt>
      <trkpt lat="48.864850" lon="2.094600">
        <ele>136.948453</ele>
        <time>2023-03-30T14:35:32.419Z</time>
      </trkpt>
      <trkpt lat="48.864857" lon="2.094549">
        <ele>137.140222</ele>
        <time>2023-03-30T14:35:33.514Z</time>
      </trkpt>
      <trkpt lat="48.864865" lon="2.094498">
        <ele>137.308608</ele>
        <time>2023-03-30T14:35:34.569Z</time>
      </trkpt>
      <trkpt lat="48.864874" lon="2.094449">
        <ele>137.471997</ele>
        <time>2023-03-30T14:35:35.551Z</time>
      </trkpt>
      <trkpt lat="48.864885" lon="2.094400">
        <ele>137.638278</ele>
        <time>2023-03-30T14:35:36.534Z</time>
      </trkpt>
      <trkpt lat="48.864897" lon="2.094353">
        <ele>137.800195</ele>
        <time>2023-03-30T14:35:37.669Z</time>
      </trkpt>
      <trkpt lat="48.864910" lon="2.094307">
        <ele>137.960986</ele>
        <time>2023-03-30T14:35:38.849Z</time>
      </trkpt>
      <trkpt lat="48.865074" lon="2.094082">
        <ele>139.039523</ele>
        <time>2023-03-30T14:35:46.239Z</time>
      </trkpt>
      <trkpt lat="48.865148" lon="2.094003">
        <ele>139.480991</ele>
        <time>2023-03-30T14:35:49.128Z</time>
      </trkpt>
      <trkpt lat="48.865310" lon="2.093681">
        <ele>140.782901</ele>
        <time>2023-03-30T14:35:58.650Z</time>
      </trkpt>
      <trkpt lat="48.865416" lon="2.093599">
        <ele>141.363560</ele>
        <time>2023-03-30T14:36:02.890Z</time>
      </trkpt>
      <trkpt lat="48.865507" lon="2.093530">
        <ele>141.860032</ele>
        <time>2023-03-30T14:36:06.767Z</time>
      </trkpt>
      <trkpt lat="48.865695" lon="2.093502">
        <ele>142.782265</ele>
        <time>2023-03-30T14:36:13.783Z</time>
      </trkpt>
      <trkpt lat="48.865807" lon="2.093538">
        <ele>143.341151</ele>
        <time>2023-03-30T14:36:17.824Z</time>
      </trkpt>
      <trkpt lat="48.866032" lon="2.093720">
        <ele>144.585457</ele>
        <time>2023-03-30T14:36:26.165Z</time>
      </trkpt>
      <trkpt lat="48.866151" lon="2.093777">
        <ele>145.194586</ele>
        <time>2023-03-30T14:36:29.978Z</time>
      </trkpt>
      <trkpt lat="48.866292" lon="2.093785">
        <ele>145.892202</ele>
        <time>2023-03-30T14:36:34.180Z</time>
      </trkpt>
      <trkpt lat="48.866459" lon="2.093714">
        <ele>146.906639</ele>
        <time>2023-03-30T14:36:39.735Z</time>
      </trkpt>
      <trkpt lat="48.866608" lon="2.093550">
        <ele>147.982776</ele>
        <time>2023-03-30T14:36:45.820Z</time>
      </trkpt>
      <trkpt lat="48.866723" lon="2.093306">
        <ele>149.137870</ele>
        <time>2023-03-30T14:36:52.811Z</time>
      </trkpt>
      <trkpt lat="48.866799" lon="2.093066">
        <ele>150.162881</ele>
        <time>2023-03-30T14:36:58.960Z</time>
      </trkpt>
      <trkpt lat="48.866810" lon="2.092941">
        <ele>150.648191</ele>
        <time>2023-03-30T14:37:02.207Z</time>
      </trkpt>
      <trkpt lat="48.866763" lon="2.092674">
        <ele>151.711812</ele>
        <time>2023-03-30T14:37:09.117Z</time>
      </trkpt>
      <trkpt lat="48.866704" lon="2.092543">
        <ele>152.322762</ele>
        <time>2023-03-30T14:37:13.241Z</time>
      </trkpt>
      <trkpt lat="48.866628" lon="2.092372">
        <ele>153.116922</ele>
        <time>2023-03-30T14:37:18.945Z</time>
      </trkpt>
      <trkpt lat="48.865930" lon="2.090972">
        <ele>159.595228</ele>
        <time>2023-03-30T14:38:09.204Z</time>
      </trkpt>
      <trkpt lat="48.865606" lon="2.090259">
        <ele>162.662770</ele>
        <time>2023-03-30T14:38:30.010Z</time>
      </trkpt>
      <trkpt lat="48.865477" lon="2.089815">
        <ele>164.380933</ele>
        <time>2023-03-30T14:38:40.504Z</time>
      </trkpt>
      <trkpt lat="48.865074" lon="2.087900">
        <ele>168.884130</ele>
        <time>2023-03-30T14:39:16.980Z</time>
      </trkpt>
      <trkpt lat="48.865050" lon="2.087392">
        <ele>169.823566</ele>
        <time>2023-03-30T14:39:24.869Z</time>
      </trkpt>
      <trkpt lat="48.864996" lon="2.087194">
        <ele>170.218926</ele>
        <time>2023-03-30T14:39:28.146Z</time>
      </trkpt>
      <trkpt lat="48.864833" lon="2.086977">
        <ele>170.826462</ele>
        <time>2023-03-30T14:39:33.355Z</time>
      </trkpt>
      <trkpt lat="48.862164" lon="2.084521">
        <ele>177.106806</ele>
        <time>2023-03-30T14:40:46.407Z</time>
      </trkpt>
      <trkpt lat="48.862135" lon="2.084495">
        <ele>177.165605</ele>
        <time>2023-03-30T14:40:47.068Z</time>
      </trkpt>
      <trkpt lat="48.861763" lon="2.084133">
        <ele>177.936993</ele>
        <time>2023-03-30T14:40:55.495Z</time>
      </trkpt>
      <trkpt lat="48.861599" lon="2.083994">
        <ele>178.155775</ele>
        <time>2023-03-30T14:40:58.964Z</time>
      </trkpt>
      <trkpt lat="48.861291" lon="2.083838">
        <ele>178.346538</ele>
        <time>2023-03-30T14:41:04.686Z</time>
      </trkpt>
      <trkpt lat="48.861214" lon="2.083811">
        <ele>178.392971</ele>
        <time>2023-03-30T14:41:06.097Z</time>
      </trkpt>
      <trkpt lat="48.860035" lon="2.083788">
        <ele>179.085805</ele>
        <time>2023-03-30T14:41:25.555Z</time>
      </trkpt>
      <trkpt lat="48.856880" lon="2.083791">
        <ele>180.183444</ele>
        <time>2023-03-30T14:42:17.777Z</time>
      </trkpt>
      <trkpt lat="48.854161" lon="2.083802">
        <ele>179.781136</ele>
        <time>2023-03-30T14:42:55.156Z</time>
      </trkpt>
      <trkpt lat="48.854177" lon="2.083342">
        <ele>179.808059</ele>
        <time>2023-03-30T14:42:59.831Z</time>
      </trkpt>
      <trkpt lat="48.854197" lon="2.082789">
        <ele>179.840428</ele>
        <time>2023-03-30T14:43:05.455Z</time>
      </trkpt>
      <trkpt lat="48.854254" lon="2.080587">
        <ele>179.961588</ele>
        <time>2023-03-30T14:43:28.572Z</time>
      </trkpt>
      <trkpt lat="48.854350" lon="2.077264">
        <ele>180.301695</ele>
        <time>2023-03-30T14:44:00.426Z</time>
      </trkpt>
      <trkpt lat="48.854403" lon="2.076014">
        <ele>180.592630</ele>
        <time>2023-03-30T14:44:14.387Z</time>
      </trkpt>
      <trkpt lat="48.854417" lon="2.074796">
        <ele>181.624054</ele>
        <time>2023-03-30T14:44:29.760Z</time>
      </trkpt>
      <trkpt lat="48.854424" lon="2.074234">
        <ele>182.099977</ele>
        <time>2023-03-30T14:44:37.472Z</time>
      </trkpt>
      <trkpt lat="48.854461" lon="2.073343">
        <ele>182.877179</ele>
        <time>2023-03-30T14:44:50.427Z</time>
      </trkpt>
      <trkpt lat="48.854464" lon="2.073260">
        <ele>182.970473</ele>
        <time>2023-03-30T14:44:51.655Z</time>
      </trkpt>
      <trkpt lat="48.854608" lon="2.067683">
        <ele>188.589782</ele>
        <time>2023-03-30T14:46:11.046Z</time>
      </trkpt>
      <trkpt lat="48.854663" lon="2.066313">
        <ele>188.434362</ele>
        <time>2023-03-30T14:46:23.696Z</time>
      </trkpt>
      <trkpt lat="48.854698" lon="2.064589">
        <ele>187.660645</ele>
        <time>2023-03-30T14:46:37.656Z</time>
      </trkpt>
      <trkpt lat="48.854702" lon="2.064402">
        <ele>187.469895</ele>
        <time>2023-03-30T14:46:39.189Z</time>
      </trkpt>
      <trkpt lat="48.854707" lon="2.064316">
        <ele>187.381876</ele>
        <time>2023-03-30T14:46:39.898Z</time>
      </trkpt>
      <trkpt lat="48.854888" lon="2.064234">
        <ele>187.089225</ele>
        <time>2023-03-30T14:46:42.214Z</time>
      </trkpt>
      <trkpt lat="48.854908" lon="2.064222">
        <ele>187.055908</ele>
        <time>2023-03-30T14:46:42.490Z</time>
      </trkpt>
      <trkpt lat="48.856138" lon="2.063325">
        <ele>184.252034</ele>
        <time>2023-03-30T14:46:57.470Z</time>
      </trkpt>
      <trkpt lat="48.856307" lon="2.063277">
        <ele>183.670017</ele>
        <time>2023-03-30T14:46:59.255Z</time>
      </trkpt>
      <trkpt lat="48.856397" lon="2.063264">
        <ele>183.363968</ele>
        <time>2023-03-30T14:47:00.192Z</time>
      </trkpt>
      <trkpt lat="48.856543" lon="2.063299">
        <ele>182.863606</ele>
        <time>2023-03-30T14:47:01.734Z</time>
      </trkpt>
      <trkpt lat="48.857362" lon="2.063809">
        <ele>179.867379</ele>
        <time>2023-03-30T14:47:10.473Z</time>
      </trkpt>
      <trkpt lat="48.857527" lon="2.064065">
        <ele>178.844433</ele>
        <time>2023-03-30T14:47:12.682Z</time>
      </trkpt>
      <trkpt lat="48.857695" lon="2.064535">
        <ele>176.922033</ele>
        <time>2023-03-30T14:47:15.955Z</time>
      </trkpt>
      <trkpt lat="48.857772" lon="2.064758">
        <ele>176.016893</ele>
        <time>2023-03-30T14:47:17.498Z</time>
      </trkpt>
      <trkpt lat="48.857774" lon="2.064763">
        <ele>175.995862</ele>
        <time>2023-03-30T14:47:17.533Z</time>
      </trkpt>
      <trkpt lat="48.857888" lon="2.064933">
        <ele>175.123446</ele>
        <time>2023-03-30T14:47:19.018Z</time>
      </trkpt>
      <trkpt lat="48.858401" lon="2.065270">
        <ele>172.070573</ele>
        <time>2023-03-30T14:47:24.209Z</time>
      </trkpt>
      <trkpt lat="48.858548" lon="2.065440">
        <ele>171.061556</ele>
        <time>2023-03-30T14:47:25.913Z</time>
      </trkpt>
      <trkpt lat="48.858700" lon="2.065720">
        <ele>169.756911</ele>
        <time>2023-03-30T14:47:28.124Z</time>
      </trkpt>
      <trkpt lat="48.858798" lon="2.066037">
        <ele>168.461831</ele>
        <time>2023-03-30T14:47:30.218Z</time>
      </trkpt>
      <trkpt lat="48.859020" lon="2.067056">
        <ele>164.478138</ele>
        <time>2023-03-30T14:47:36.634Z</time>
      </trkpt>
      <trkpt lat="48.859127" lon="2.067418">
        <ele>163.005320</ele>
        <time>2023-03-30T14:47:39.064Z</time>
      </trkpt>
      <trkpt lat="48.859162" lon="2.067741">
        <ele>161.790447</ele>
        <time>2023-03-30T14:47:41.123Z</time>
      </trkpt>
      <trkpt lat="48.859096" lon="2.068168">
        <ele>160.162612</ele>
        <time>2023-03-30T14:47:43.869Z</time>
      </trkpt>
      <trkpt lat="48.858976" lon="2.068464">
        <ele>158.904135</ele>
        <time>2023-03-30T14:47:46.048Z</time>
      </trkpt>
      <trkpt lat="48.858821" lon="2.068690">
        <ele>157.757751</ele>
        <time>2023-03-30T14:47:48.072Z</time>
      </trkpt>
      <trkpt lat="48.858674" lon="2.069111">
        <ele>156.084110</ele>
        <time>2023-03-30T14:47:50.974Z</time>
      </trkpt>
      <trkpt lat="48.858661" lon="2.069236">
        <ele>155.639720</ele>
        <time>2023-03-30T14:47:51.746Z</time>
      </trkpt>
      <trkpt lat="48.858677" lon="2.069537">
        <ele>154.579311</ele>
        <time>2023-03-30T14:47:53.573Z</time>
      </trkpt>
      <trkpt lat="48.858828" lon="2.069854">
        <ele>153.205037</ele>
        <time>2023-03-30T14:47:55.974Z</time>
      </trkpt>
      <trkpt lat="48.859037" lon="2.070007">
        <ele>151.966901</ele>
        <time>2023-03-30T14:47:58.154Z</time>
      </trkpt>
      <trkpt lat="48.859349" lon="2.070157">
        <ele>150.220345</ele>
        <time>2023-03-30T14:48:01.227Z</time>
      </trkpt>
      <trkpt lat="48.859505" lon="2.070133">
        <ele>149.275187</ele>
        <time>2023-03-30T14:48:02.705Z</time>
      </trkpt>
      <trkpt lat="48.859645" lon="2.070035">
        <ele>148.267241</ele>
        <time>2023-03-30T14:48:04.143Z</time>
      </trkpt>
      <trkpt lat="48.859821" lon="2.069821">
        <ele>146.793349</ele>
        <time>2023-03-30T14:48:06.239Z</time>
      </trkpt>
      <trkpt lat="48.860312" lon="2.069059">
        <ele>142.204523</ele>
        <time>2023-03-30T14:48:12.564Z</time>
      </trkpt>
      <trkpt lat="48.860766" lon="2.068169">
        <ele>137.301628</ele>
        <time>2023-03-30T14:48:19.184Z</time>
      </trkpt>
      <trkpt lat="48.861024" lon="2.067843">
        <ele>134.937149</ele>
        <time>2023-03-30T14:48:22.196Z</time>
      </trkpt>
      <trkpt lat="48.861265" lon="2.067638">
        <ele>132.990820</ele>
        <time>2023-03-30T14:48:24.671Z</time>
      </trkpt>
      <trkpt lat="48.861673" lon="2.067520">
        <ele>130.063828</ele>
        <time>2023-03-30T14:48:28.378Z</time>
      </trkpt>
      <trkpt lat="48.861858" lon="2.067491">
        <ele>128.753113</ele>
        <time>2023-03-30T14:48:30.037Z</time>
      </trkpt>
      <trkpt lat="48.862159" lon="2.067574">
        <ele>126.597174</ele>
        <time>2023-03-30T14:48:32.791Z</time>
      </trkpt>
      <trkpt lat="48.862709" lon="2.067846">
        <ele>122.839506</ele>
        <time>2023-03-30T14:48:38.057Z</time>
      </trkpt>
      <trkpt lat="48.862801" lon="2.067863">
        <ele>122.257963</ele>
        <time>2023-03-30T14:48:38.904Z</time>
      </trkpt>
      <trkpt lat="48.863022" lon="2.067805">
        <ele>120.850686</ele>
        <time>2023-03-30T14:48:40.960Z</time>
      </trkpt>
      <trkpt lat="48.863098" lon="2.067816">
        <ele>120.371635</ele>
        <time>2023-03-30T14:48:41.650Z</time>
      </trkpt>
      <trkpt lat="48.863174" lon="2.067938">
        <ele>119.678049</ele>
        <time>2023-03-30T14:48:42.657Z</time>
      </trkpt>
      <trkpt lat="48.863342" lon="2.068952">
        <ele>115.361535</ele>
        <time>2023-03-30T14:48:48.948Z</time>
      </trkpt>
      <trkpt lat="48.863405" lon="2.069120">
        <ele>114.563270</ele>
        <time>2023-03-30T14:48:50.124Z</time>
      </trkpt>
      <trkpt lat="48.863463" lon="2.069160">
        <ele>114.163618</ele>
        <time>2023-03-30T14:48:50.703Z</time>
      </trkpt>
      <trkpt lat="48.863965" lon="2.069323">
        <ele>111.077899</ele>
        <time>2023-03-30T14:48:55.395Z</time>
      </trkpt>
      <trkpt lat="48.864347" lon="2.069386">
        <ele>108.768889</ele>
        <time>2023-03-30T14:48:58.889Z</time>
      </trkpt>
      <trkpt lat="48.864907" lon="2.069203">
        <ele>105.326820</ele>
        <time>2023-03-30T14:49:04.151Z</time>
      </trkpt>
      <trkpt lat="48.865083" lon="2.069184">
        <ele>104.266525</ele>
        <time>2023-03-30T14:49:05.778Z</time>
      </trkpt>
      <trkpt lat="48.865256" lon="2.069213">
        <ele>103.246642</ele>
        <time>2023-03-30T14:49:07.376Z</time>
      </trkpt>
      <trkpt lat="48.865429" lon="2.069321">
        <ele>102.387379</ele>
        <time>2023-03-30T14:49:09.118Z</time>
      </trkpt>
      <trkpt lat="48.865683" lon="2.069639">
        <ele>100.875543</ele>
        <time>2023-03-30T14:49:12.201Z</time>
      </trkpt>
      <trkpt lat="48.865716" lon="2.069699">
        <ele>100.639167</ele>
        <time>2023-03-30T14:49:12.691Z</time>
      </trkpt>
      <trkpt lat="48.865973" lon="2.070166">
        <ele>98.798938</ele>
        <time>2023-03-30T14:49:16.468Z</time>
      </trkpt>
      <trkpt lat="48.866172" lon="2.070507">
        <ele>97.421208</ele>
        <time>2023-03-30T14:49:19.313Z</time>
      </trkpt>
      <trkpt lat="48.866304" lon="2.070484">
        <ele>96.810763</ele>
        <time>2023-03-30T14:49:20.582Z</time>
      </trkpt>
      <trkpt lat="48.866503" lon="2.070394">
        <ele>95.856853</ele>
        <time>2023-03-30T14:49:22.668Z</time>
      </trkpt>
      <trkpt lat="48.867660" lon="2.069979">
        <ele>92.584410</ele>
        <time>2023-03-30T14:49:34.979Z</time>
      </trkpt>
      <trkpt lat="48.867707" lon="2.070003">
        <ele>92.463356</ele>
        <time>2023-03-30T14:49:35.498Z</time>
      </trkpt>
      <trkpt lat="48.867723" lon="2.070087">
        <ele>92.322905</ele>
        <time>2023-03-30T14:49:36.162Z</time>
      </trkpt>
      <trkpt lat="48.867811" lon="2.070219">
        <ele>92.021064</ele>
        <time>2023-03-30T14:49:37.475Z</time>
      </trkpt>
      <trkpt lat="48.868550" lon="2.070903">
        <ele>89.863768</ele>
        <time>2023-03-30T14:49:47.290Z</time>
      </trkpt>
      <trkpt lat="48.868763" lon="2.071176">
        <ele>89.143767</ele>
        <time>2023-03-30T14:49:50.814Z</time>
      </trkpt>
      <trkpt lat="48.868913" lon="2.071465">
        <ele>88.517953</ele>
        <time>2023-03-30T14:49:53.630Z</time>
      </trkpt>
      <trkpt lat="48.869464" lon="2.072488">
        <ele>86.270278</ele>
        <time>2023-03-30T14:50:02.220Z</time>
      </trkpt>
      <trkpt lat="48.869675" lon="2.072782">
        <ele>85.599308</ele>
        <time>2023-03-30T14:50:05.074Z</time>
      </trkpt>
      <trkpt lat="48.869861" lon="2.072853">
        <ele>85.172245</ele>
        <time>2023-03-30T14:50:07.029Z</time>
      </trkpt>
      <trkpt lat="48.869951" lon="2.072696">
        <ele>84.867192</ele>
        <time>2023-03-30T14:50:08.481Z</time>
      </trkpt>
      <trkpt lat="48.870185" lon="2.072322">
        <ele>84.111107</ele>
        <time>2023-03-30T14:50:12.005Z</time>
      </trkpt>
      <trkpt lat="48.870314" lon="2.072265">
        <ele>83.811948</ele>
        <time>2023-03-30T14:50:13.412Z</time>
      </trkpt>
      <trkpt lat="48.870336" lon="2.072311">
        <ele>83.728640</ele>
        <time>2023-03-30T14:50:13.831Z</time>
      </trkpt>
      <trkpt lat="48.870407" lon="2.072327">
        <ele>83.568801</ele>
        <time>2023-03-30T14:50:14.583Z</time>
      </trkpt>
      <trkpt lat="48.870448" lon="2.072258">
        <ele>83.432597</ele>
        <time>2023-03-30T14:50:15.252Z</time>
      </trkpt>
      <trkpt lat="48.870449" lon="2.072204">
        <ele>83.353468</ele>
        <time>2023-03-30T14:50:15.636Z</time>
      </trkpt>
      <trkpt lat="48.870521" lon="2.072103">
        <ele>83.135304</ele>
        <time>2023-03-30T14:50:16.718Z</time>
      </trkpt>
      <trkpt lat="48.870626" lon="2.072039">
        <ele>82.883385</ele>
        <time>2023-03-30T14:50:17.971Z</time>
      </trkpt>
      <trkpt lat="48.870940" lon="2.072054">
        <ele>82.183789</ele>
        <time>2023-03-30T14:50:21.543Z</time>
      </trkpt>
      <trkpt lat="48.870941" lon="2.072055">
        <ele>82.181124</ele>
        <time>2023-03-30T14:50:21.555Z</time>
      </trkpt>
      <trkpt lat="48.870997" lon="2.072037">
        <ele>82.053660</ele>
        <time>2023-03-30T14:50:22.242Z</time>
      </trkpt>
      <trkpt lat="48.871072" lon="2.071948">
        <ele>82.134353</ele>
        <time>2023-03-30T14:50:23.374Z</time>
      </trkpt>
      <trkpt lat="48.871074" lon="2.071798">
        <ele>82.271396</ele>
        <time>2023-03-30T14:50:24.622Z</time>
      </trkpt>
      <trkpt lat="48.870849" lon="2.071391">
        <ele>82.757031</ele>
        <time>2023-03-30T14:50:30.642Z</time>
      </trkpt>
      <trkpt lat="48.870591" lon="2.070964">
        <ele>83.286652</ele>
        <time>2023-03-30T14:50:40.008Z</time>
      </trkpt>
      <trkpt lat="48.870240" lon="2.070405">
        <ele>83.992571</ele>
        <time>2023-03-30T14:50:52.963Z</time>
      </trkpt>
      <trkpt lat="48.869960" lon="2.070072">
        <ele>84.486250</ele>
        <time>2023-03-30T14:51:00.969Z</time>
      </trkpt>
      <trkpt lat="48.869801" lon="2.069883">
        <ele>84.822500</ele>
        <time>2023-03-30T14:51:05.317Z</time>
      </trkpt>
      <trkpt lat="48.869633" lon="2.069456">
        <ele>85.380070</ele>
        <time>2023-03-30T14:51:12.580Z</time>
      </trkpt>
      <trkpt lat="48.869600" lon="2.069321">
        <ele>85.541462</ele>
        <time>2023-03-30T14:51:14.563Z</time>
      </trkpt>
      <trkpt lat="48.869315" lon="2.068599">
        <ele>86.485061</ele>
        <time>2023-03-30T14:51:26.345Z</time>
      </trkpt>
      <trkpt lat="48.869191" lon="2.068459">
        <ele>86.748199</ele>
        <time>2023-03-30T14:51:29.449Z</time>
      </trkpt>
      <trkpt lat="48.868969" lon="2.067325">
        <ele>88.198659</ele>
        <time>2023-03-30T14:51:45.910Z</time>
      </trkpt>
      <trkpt lat="48.868725" lon="2.066033">
        <ele>90.087952</ele>
        <time>2023-03-30T14:52:06.773Z</time>
      </trkpt>
      <trkpt lat="48.868665" lon="2.065471">
        <ele>90.888192</ele>
        <time>2023-03-30T14:52:15.582Z</time>
      </trkpt>
      <trkpt lat="48.868615" lon="2.064656">
        <ele>92.406121</ele>
        <time>2023-03-30T14:52:28.664Z</time>
      </trkpt>
      <trkpt lat="48.868629" lon="2.063717">
        <ele>94.519670</ele>
        <time>2023-03-30T14:52:45.724Z</time>
      </trkpt>
      <trkpt lat="48.868640" lon="2.063178">
        <ele>95.733151</ele>
        <time>2023-03-30T14:52:56.575Z</time>
      </trkpt>
      <trkpt lat="48.868720" lon="2.062880">
        <ele>96.457428</ele>
        <time>2023-03-30T14:53:02.978Z</time>
      </trkpt>
      <trkpt lat="48.868832" lon="2.062559">
        <ele>97.275091</ele>
        <time>2023-03-30T14:53:10.541Z</time>
      </trkpt>
      <trkpt lat="48.868950" lon="2.061562">
        <ele>100.011515</ele>
        <time>2023-03-30T14:53:31.272Z</time>
      </trkpt>
      <trkpt lat="48.869041" lon="2.061036">
        <ele>101.518642</ele>
        <time>2023-03-30T14:53:43.012Z</time>
      </trkpt>
      <trkpt lat="48.869482" lon="2.059608">
        <ele>105.776734</ele>
        <time>2023-03-30T14:54:16.608Z</time>
      </trkpt>
      <trkpt lat="48.869586" lon="2.059220">
        <ele>106.758138</ele>
        <time>2023-03-30T14:54:24.508Z</time>
      </trkpt>
      <trkpt lat="48.869684" lon="2.058728">
        <ele>107.962266</ele>
        <time>2023-03-30T14:54:33.903Z</time>
      </trkpt>
      <trkpt lat="48.869743" lon="2.058118">
        <ele>109.406475</ele>
        <time>2023-03-30T14:54:45.178Z</time>
      </trkpt>
      <trkpt lat="48.869728" lon="2.057896">
        <ele>109.929217</ele>
        <time>2023-03-30T14:54:49.368Z</time>
      </trkpt>
      <trkpt lat="48.869626" lon="2.056952">
        <ele>112.354868</ele>
        <time>2023-03-30T14:55:07.132Z</time>
      </trkpt>
      <trkpt lat="48.869588" lon="2.056606">
        <ele>113.426525</ele>
        <time>2023-03-30T14:55:14.089Z</time>
      </trkpt>
      <trkpt lat="48.869434" lon="2.055168">
        <ele>117.877444</ele>
        <time>2023-03-30T14:55:45.743Z</time>
      </trkpt>
      <trkpt lat="48.869427" lon="2.055109">
        <ele>118.060598</ele>
        <time>2023-03-30T14:55:47.087Z</time>
      </trkpt>
      <trkpt lat="48.869348" lon="2.054289">
        <ele>120.767163</ele>
        <time>2023-03-30T14:56:07.176Z</time>
      </trkpt>
      <trkpt lat="48.869275" lon="2.053826">
        <ele>122.597555</ele>
        <time>2023-03-30T14:56:19.873Z</time>
      </trkpt>
      <trkpt lat="48.869126" lon="2.053001">
        <ele>125.886600</ele>
        <time>2023-03-30T14:56:43.599Z</time>
      </trkpt>
      <trkpt lat="48.869082" lon="2.052919">
        <ele>126.293431</ele>
        <time>2023-03-30T14:56:46.602Z</time>
      </trkpt>
      <trkpt lat="48.868953" lon="2.052775">
        <ele>127.228799</ele>
        <time>2023-03-30T14:56:52.954Z</time>
      </trkpt>
      <trkpt lat="48.868840" lon="2.052711">
        <ele>127.933579</ele>
        <time>2023-03-30T14:56:57.375Z</time>
      </trkpt>
      <trkpt lat="48.868281" lon="2.052740">
        <ele>130.976602</ele>
        <time>2023-03-30T14:57:16.596Z</time>
      </trkpt>
      <trkpt lat="48.868085" lon="2.052701">
        <ele>131.794625</ele>
        <time>2023-03-30T14:57:22.893Z</time>
      </trkpt>
      <trkpt lat="48.867944" lon="2.052546">
        <ele>132.514694</ele>
        <time>2023-03-30T14:57:29.075Z</time>
      </trkpt>
      <trkpt lat="48.867874" lon="2.052458">
        <ele>132.890592</ele>
        <time>2023-03-30T14:57:32.028Z</time>
      </trkpt>
      <trkpt lat="48.867818" lon="2.052331">
        <ele>133.306793</ele>
        <time>2023-03-30T14:57:35.269Z</time>
      </trkpt>
      <trkpt lat="48.867815" lon="2.052272">
        <ele>133.467880</ele>
        <time>2023-03-30T14:57:36.736Z</time>
      </trkpt>
      <trkpt lat="48.867810" lon="2.052172">
        <ele>133.740881</ele>
        <time>2023-03-30T14:57:39.051Z</time>
      </trkpt>
      <trkpt lat="48.867779" lon="2.051630">
        <ele>135.221860</ele>
        <time>2023-03-30T14:57:50.113Z</time>
      </trkpt>
      <trkpt lat="48.867770" lon="2.051423">
        <ele>135.786578</ele>
        <time>2023-03-30T14:57:54.026Z</time>
      </trkpt>
      <trkpt lat="48.867769" lon="2.051353">
        <ele>135.977174</ele>
        <time>2023-03-30T14:57:55.335Z</time>
      </trkpt>
      <trkpt lat="48.867767" lon="2.051240">
        <ele>136.284890</ele>
        <time>2023-03-30T14:57:57.410Z</time>
      </trkpt>
      <trkpt lat="48.867766" lon="2.051147">
        <ele>136.538085</ele>
        <time>2023-03-30T14:57:59.340Z</time>
      </trkpt>
      <trkpt lat="48.867752" lon="2.050968">
        <ele>137.028785</ele>
        <time>2023-03-30T14:58:02.684Z</time>
      </trkpt>
      <trkpt lat="48.867718" lon="2.050909">
        <ele>137.242308</ele>
        <time>2023-03-30T14:58:04.078Z</time>
      </trkpt>
      <trkpt lat="48.867505" lon="2.050879">
        <ele>138.170698</ele>
        <time>2023-03-30T14:58:10.151Z</time>
      </trkpt>
      <trkpt lat="48.867330" lon="2.050881">
        <ele>139.017143</ele>
        <time>2023-03-30T14:58:14.660Z</time>
      </trkpt>
      <trkpt lat="48.867219" lon="2.050924">
        <ele>139.571173</ele>
        <time>2023-03-30T14:58:17.687Z</time>
      </trkpt>
      <trkpt lat="48.867196" lon="2.050936">
        <ele>139.688786</ele>
        <time>2023-03-30T14:58:18.430Z</time>
      </trkpt>
      <trkpt lat="48.866860" lon="2.051123">
        <ele>141.419399</ele>
        <time>2023-03-30T14:58:28.127Z</time>
      </trkpt>
      <trkpt lat="48.866766" lon="2.051134">
        <ele>141.875393</ele>
        <time>2023-03-30T14:58:30.960Z</time>
      </trkpt>
      <trkpt lat="48.866726" lon="2.051077">
        <ele>142.140570</ele>
        <time>2023-03-30T14:58:32.599Z</time>
      </trkpt>
      <trkpt lat="48.866708" lon="2.050850">
        <ele>142.868030</ele>
        <time>2023-03-30T14:58:37.369Z</time>
      </trkpt>
      <trkpt lat="48.866700" lon="2.050338">
        <ele>144.497489</ele>
        <time>2023-03-30T14:58:50.436Z</time>
      </trkpt>
      <trkpt lat="48.866728" lon="2.050127">
        <ele>145.182338</ele>
        <time>2023-03-30T14:58:56.436Z</time>
      </trkpt>
      <trkpt lat="48.866836" lon="2.049959">
        <ele>145.929713</ele>
        <time>2023-03-30T14:59:02.862Z</time>
      </trkpt>
      <trkpt lat="48.866861" lon="2.049816">
        <ele>146.400480</ele>
        <time>2023-03-30T14:59:07.011Z</time>
      </trkpt>
      <trkpt lat="48.866836" lon="2.049603">
        <ele>147.455046</ele>
        <time>2023-03-30T14:59:13.177Z</time>
      </trkpt>
      <trkpt lat="48.866656" lon="2.048876">
        <ele>151.675011</ele>
        <time>2023-03-30T14:59:36.311Z</time>
      </trkpt>
      <trkpt lat="48.866625" lon="2.048757">
        <ele>152.370335</ele>
        <time>2023-03-30T14:59:40.425Z</time>
      </trkpt>
      <trkpt lat="48.866349" lon="2.047693">
        <ele>158.583789</ele>
        <time>2023-03-30T15:00:18.075Z</time>
      </trkpt>
      <trkpt lat="48.865941" lon="2.046113">
        <ele>167.316688</ele>
        <time>2023-03-30T15:01:15.081Z</time>
      </trkpt>
      <trkpt lat="48.865397" lon="2.044004">
        <ele>176.883291</ele>
        <time>2023-03-30T15:02:17.063Z</time>
      </trkpt>
      <trkpt lat="48.865353" lon="2.043854">
        <ele>177.288571</ele>
        <time>2023-03-30T15:02:20.539Z</time>
      </trkpt>
      <trkpt lat="48.865289" lon="2.043511">
        <ele>178.168366</ele>
        <time>2023-03-30T15:02:27.726Z</time>
      </trkpt>
      <trkpt lat="48.865274" lon="2.043254">
        <ele>178.805045</ele>
        <time>2023-03-30T15:02:32.654Z</time>
      </trkpt>
      <trkpt lat="48.865574" lon="2.040528">
        <ele>183.260220</ele>
        <time>2023-03-30T15:03:13.130Z</time>
      </trkpt>
      <trkpt lat="48.866545" lon="2.038716">
        <ele>184.293625</ele>
        <time>2023-03-30T15:03:40.773Z</time>
      </trkpt>
      <trkpt lat="48.866547" lon="2.038712">
        <ele>184.293304</ele>
        <time>2023-03-30T15:03:40.826Z</time>
      </trkpt>
      <trkpt lat="48.867367" lon="2.037108">
        <ele>183.516767</ele>
        <time>2023-03-30T15:03:58.095Z</time>
      </trkpt>
      <trkpt lat="48.867504" lon="2.036847">
        <ele>182.980062</ele>
        <time>2023-03-30T15:04:00.649Z</time>
      </trkpt>
      <trkpt lat="48.867507" lon="2.036841">
        <ele>182.967948</ele>
        <time>2023-03-30T15:04:00.710Z</time>
      </trkpt>
      <trkpt lat="48.867655" lon="2.036611">
        <ele>182.450796</ele>
        <time>2023-03-30T15:04:03.045Z</time>
      </trkpt>
      <trkpt lat="48.867802" lon="2.036490">
        <ele>182.042332</ele>
        <time>2023-03-30T15:04:04.927Z</time>
      </trkpt>
      <trkpt lat="48.867820" lon="2.036487">
        <ele>181.998086</ele>
        <time>2023-03-30T15:04:05.128Z</time>
      </trkpt>
      <trkpt lat="48.867880" lon="2.036431">
        <ele>181.826051</ele>
        <time>2023-03-30T15:04:05.882Z</time>
      </trkpt>
      <trkpt lat="48.867900" lon="2.036357">
        <ele>181.697462</ele>
        <time>2023-03-30T15:04:06.425Z</time>
      </trkpt>
      <trkpt lat="48.867899" lon="2.036303">
        <ele>181.610633</ele>
        <time>2023-03-30T15:04:06.785Z</time>
      </trkpt>
      <trkpt lat="48.867885" lon="2.036253">
        <ele>181.523289</ele>
        <time>2023-03-30T15:04:07.147Z</time>
      </trkpt>
      <trkpt lat="48.867830" lon="2.036188">
        <ele>181.353065</ele>
        <time>2023-03-30T15:04:07.906Z</time>
      </trkpt>
      <trkpt lat="48.867812" lon="2.036182">
        <ele>181.308038</ele>
        <time>2023-03-30T15:04:08.096Z</time>
      </trkpt>
      <trkpt lat="48.867657" lon="2.036089">
        <ele>180.900867</ele>
        <time>2023-03-30T15:04:09.829Z</time>
      </trkpt>
      <trkpt lat="48.867446" lon="2.035733">
        <ele>180.130648</ele>
        <time>2023-03-30T15:04:12.992Z</time>
      </trkpt>
      <trkpt lat="48.867171" lon="2.035268">
        <ele>178.099354</ele>
        <time>2023-03-30T15:04:16.948Z</time>
      </trkpt>
      <trkpt lat="48.867073" lon="2.035103">
        <ele>177.194439</ele>
        <time>2023-03-30T15:04:18.895Z</time>
      </trkpt>
      <trkpt lat="48.866408" lon="2.034013">
        <ele>171.142935</ele>
        <time>2023-03-30T15:04:31.543Z</time>
      </trkpt>
      <trkpt lat="48.866252" lon="2.033703">
        <ele>169.554135</ele>
        <time>2023-03-30T15:04:34.799Z</time>
      </trkpt>
      <trkpt lat="48.866088" lon="2.033521">
        <ele>168.292345</ele>
        <time>2023-03-30T15:04:37.370Z</time>
      </trkpt>
      <trkpt lat="48.866023" lon="2.033461">
        <ele>167.814995</ele>
        <time>2023-03-30T15:04:38.326Z</time>
      </trkpt>
      <trkpt lat="48.865887" lon="2.033262">
        <ele>166.630073</ele>
        <time>2023-03-30T15:04:40.011Z</time>
      </trkpt>
      <trkpt lat="48.865884" lon="2.033256">
        <ele>166.598953</ele>
        <time>2023-03-30T15:04:40.055Z</time>
      </trkpt>
      <trkpt lat="48.865831" lon="2.033112">
        <ele>165.917590</ele>
        <time>2023-03-30T15:04:41.029Z</time>
      </trkpt>
      <trkpt lat="48.865802" lon="2.032990">
        <ele>165.381935</ele>
        <time>2023-03-30T15:04:41.796Z</time>
      </trkpt>
      <trkpt lat="48.865758" lon="2.032890">
        <ele>164.885149</ele>
        <time>2023-03-30T15:04:42.513Z</time>
      </trkpt>
      <trkpt lat="48.865703" lon="2.032833">
        <ele>164.467305</ele>
        <time>2023-03-30T15:04:43.106Z</time>
      </trkpt>
      <trkpt lat="48.865354" lon="2.032199">
        <ele>161.053621</ele>
        <time>2023-03-30T15:04:48.049Z</time>
      </trkpt>
      <trkpt lat="48.864581" lon="2.031128">
        <ele>155.689825</ele>
        <time>2023-03-30T15:04:57.823Z</time>
      </trkpt>
      <trkpt lat="48.864371" lon="2.030793">
        <ele>154.574443</ele>
        <time>2023-03-30T15:05:00.984Z</time>
      </trkpt>
      <trkpt lat="48.864240" lon="2.030532">
        <ele>153.783132</ele>
        <time>2023-03-30T15:05:03.211Z</time>
      </trkpt>
      <trkpt lat="48.864091" lon="2.030238">
        <ele>152.888565</ele>
        <time>2023-03-30T15:05:05.841Z</time>
      </trkpt>
      <trkpt lat="48.864040" lon="2.030138">
        <ele>152.583574</ele>
        <time>2023-03-30T15:05:06.682Z</time>
      </trkpt>
      <trkpt lat="48.863848" lon="2.029767">
        <ele>151.445763</ele>
        <time>2023-03-30T15:05:09.869Z</time>
      </trkpt>
      <trkpt lat="48.863778" lon="2.029632">
        <ele>151.031429</ele>
        <time>2023-03-30T15:05:10.977Z</time>
      </trkpt>
      <trkpt lat="48.863855" lon="2.029524">
        <ele>150.649902</ele>
        <time>2023-03-30T15:05:12.532Z</time>
      </trkpt>
      <trkpt lat="48.863913" lon="2.029194">
        <ele>149.840776</ele>
        <time>2023-03-30T15:05:15.681Z</time>
      </trkpt>
      <trkpt lat="48.863958" lon="2.029119">
        <ele>149.600319</ele>
        <time>2023-03-30T15:05:16.637Z</time>
      </trkpt>
      <trkpt lat="48.864043" lon="2.029014">
        <ele>149.205929</ele>
        <time>2023-03-30T15:05:18.211Z</time>
      </trkpt>
      <trkpt lat="48.864069" lon="2.028942">
        <ele>149.011368</ele>
        <time>2023-03-30T15:05:18.970Z</time>
      </trkpt>
      <trkpt lat="48.864179" lon="2.028336">
        <ele>147.522231</ele>
        <time>2023-03-30T15:05:24.798Z</time>
      </trkpt>
      <trkpt lat="48.864175" lon="2.028128">
        <ele>147.029310</ele>
        <time>2023-03-30T15:05:26.746Z</time>
      </trkpt>
      <trkpt lat="48.864069" lon="2.027447">
        <ele>145.371615</ele>
        <time>2023-03-30T15:05:33.411Z</time>
      </trkpt>
      <trkpt lat="48.864465" lon="2.026624">
        <ele>143.178310</ele>
        <time>2023-03-30T15:05:42.958Z</time>
      </trkpt>
      <trkpt lat="48.864614" lon="2.026323">
        <ele>142.432610</ele>
        <time>2023-03-30T15:05:46.450Z</time>
      </trkpt>
      <trkpt lat="48.864904" lon="2.025705">
        <ele>140.929893</ele>
        <time>2023-03-30T15:05:53.611Z</time>
      </trkpt>
      <trkpt lat="48.864986" lon="2.025447">
        <ele>140.362685</ele>
        <time>2023-03-30T15:05:56.422Z</time>
      </trkpt>
      <trkpt lat="48.865120" lon="2.024225">
        <ele>138.701927</ele>
        <time>2023-03-30T15:06:09.189Z</time>
      </trkpt>
      <trkpt lat="48.865963" lon="2.022175">
        <ele>137.888010</ele>
        <time>2023-03-30T15:06:40.117Z</time>
      </trkpt>
      <trkpt lat="48.866129" lon="2.021882">
        <ele>138.005242</ele>
        <time>2023-03-30T15:06:45.754Z</time>
      </trkpt>
      <trkpt lat="48.866553" lon="2.021366">
        <ele>138.255554</ele>
        <time>2023-03-30T15:06:57.849Z</time>
      </trkpt>
      <trkpt lat="48.866824" lon="2.021065">
        <ele>138.410234</ele>
        <time>2023-03-30T15:07:05.510Z</time>
      </trkpt>
      <trkpt lat="48.867005" lon="2.020647">
        <ele>138.561948</ele>
        <time>2023-03-30T15:07:13.226Z</time>
      </trkpt>
      <trkpt lat="48.867276" lon="2.019987">
        <ele>138.722765</ele>
        <time>2023-03-30T15:07:24.887Z</time>
      </trkpt>
      <trkpt lat="48.867477" lon="2.019663">
        <ele>138.783113</ele>
        <time>2023-03-30T15:07:31.111Z</time>
      </trkpt>
      <trkpt lat="48.867711" lon="2.019395">
        <ele>138.843465</ele>
        <time>2023-03-30T15:07:36.900Z</time>
      </trkpt>
      <trkpt lat="48.867965" lon="2.019128">
        <ele>138.907079</ele>
        <time>2023-03-30T15:07:42.854Z</time>
      </trkpt>
      <trkpt lat="48.868243" lon="2.018689">
        <ele>138.989651</ele>
        <time>2023-03-30T15:07:50.759Z</time>
      </trkpt>
      <trkpt lat="48.868553" lon="2.018045">
        <ele>139.390431</ele>
        <time>2023-03-30T15:08:02.090Z</time>
      </trkpt>
      <trkpt lat="48.868705" lon="2.017644">
        <ele>139.734777</ele>
        <time>2023-03-30T15:08:09.335Z</time>
      </trkpt>
      <trkpt lat="48.869329" lon="2.016564">
        <ele>140.804281</ele>
        <time>2023-03-30T15:08:34.102Z</time>
      </trkpt>
      <trkpt lat="48.869488" lon="2.016132">
        <ele>141.165533</ele>
        <time>2023-03-30T15:08:42.913Z</time>
      </trkpt>
      <trkpt lat="48.869777" lon="2.015158">
        <ele>141.907349</ele>
        <time>2023-03-30T15:09:01.227Z</time>
      </trkpt>
      <trkpt lat="48.869950" lon="2.014759">
        <ele>142.239121</ele>
        <time>2023-03-30T15:09:09.037Z</time>
      </trkpt>
      <trkpt lat="48.869963" lon="2.014667">
        <ele>142.304449</ele>
        <time>2023-03-30T15:09:10.513Z</time>
      </trkpt>
      <trkpt lat="48.869982" lon="2.014516">
        <ele>142.411181</ele>
        <time>2023-03-30T15:09:12.920Z</time>
      </trkpt>
      <trkpt lat="48.870131" lon="2.013480">
        <ele>142.989148</ele>
        <time>2023-03-30T15:09:28.749Z</time>
      </trkpt>
      <trkpt lat="48.870373" lon="2.012062">
        <ele>143.121563</ele>
        <time>2023-03-30T15:09:47.353Z</time>
      </trkpt>
      <trkpt lat="48.870645" lon="2.011172">
        <ele>143.210269</ele>
        <time>2023-03-30T15:10:00.452Z</time>
      </trkpt>
      <trkpt lat="48.871027" lon="2.010261">
        <ele>144.064564</ele>
        <time>2023-03-30T15:10:17.299Z</time>
      </trkpt>
      <trkpt lat="48.871083" lon="2.010036">
        <ele>144.258955</ele>
        <time>2023-03-30T15:10:21.532Z</time>
      </trkpt>
      <trkpt lat="48.871206" lon="2.009156">
        <ele>144.985913</ele>
        <time>2023-03-30T15:10:37.472Z</time>
      </trkpt>
      <trkpt lat="48.871212" lon="2.008991">
        <ele>145.119444</ele>
        <time>2023-03-30T15:10:40.563Z</time>
      </trkpt>
      <trkpt lat="48.871183" lon="2.008838">
        <ele>145.248106</ele>
        <time>2023-03-30T15:10:43.336Z</time>
      </trkpt>
      <trkpt lat="48.871197" lon="2.008697">
        <ele>145.363331</ele>
        <time>2023-03-30T15:10:45.686Z</time>
      </trkpt>
      <trkpt lat="48.871276" lon="2.008444">
        <ele>145.661945</ele>
        <time>2023-03-30T15:10:50.433Z</time>
      </trkpt>
      <trkpt lat="48.871495" lon="2.007952">
        <ele>146.349354</ele>
        <time>2023-03-30T15:11:00.599Z</time>
      </trkpt>
      <trkpt lat="48.871662" lon="2.007635">
        <ele>146.819305</ele>
        <time>2023-03-30T15:11:07.949Z</time>
      </trkpt>
      <trkpt lat="48.871944" lon="2.007256">
        <ele>147.481444</ele>
        <time>2023-03-30T15:11:18.600Z</time>
      </trkpt>
      <trkpt lat="48.872017" lon="2.007088">
        <ele>147.714426</ele>
        <time>2023-03-30T15:11:22.461Z</time>
      </trkpt>
      <trkpt lat="48.872101" lon="2.006682">
        <ele>148.206900</ele>
        <time>2023-03-30T15:11:30.580Z</time>
      </trkpt>
      <trkpt lat="48.872259" lon="2.006213">
        <ele>148.648574</ele>
        <time>2023-03-30T15:11:40.109Z</time>
      </trkpt>
      <trkpt lat="48.872563" lon="2.005505">
        <ele>148.912775</ele>
        <time>2023-03-30T15:11:54.288Z</time>
      </trkpt>
      <trkpt lat="48.872770" lon="2.004756">
        <ele>149.166639</ele>
        <time>2023-03-30T15:12:05.723Z</time>
      </trkpt>
      <trkpt lat="48.873124" lon="2.003512">
        <ele>149.081125</ele>
        <time>2023-03-30T15:12:22.375Z</time>
      </trkpt>
      <trkpt lat="48.873538" lon="2.002327">
        <ele>148.070656</ele>
        <time>2023-03-30T15:12:36.502Z</time>
      </trkpt>
      <trkpt lat="48.873763" lon="2.001116">
        <ele>147.749175</ele>
        <time>2023-03-30T15:12:50.636Z</time>
      </trkpt>
      <trkpt lat="48.873821" lon="2.001026">
        <ele>147.884122</ele>
        <time>2023-03-30T15:12:52.196Z</time>
      </trkpt>
      <trkpt lat="48.874051" lon="2.000822">
        <ele>148.317711</ele>
        <time>2023-03-30T15:12:57.862Z</time>
      </trkpt>
      <trkpt lat="48.874218" lon="2.000669">
        <ele>148.635198</ele>
        <time>2023-03-30T15:13:02.720Z</time>
      </trkpt>
      <trkpt lat="48.874413" lon="2.000343">
        <ele>149.107134</ele>
        <time>2023-03-30T15:13:10.458Z</time>
      </trkpt>
      <trkpt lat="48.874555" lon="1.999933">
        <ele>149.603395</ele>
        <time>2023-03-30T15:13:19.895Z</time>
      </trkpt>
      <trkpt lat="48.874662" lon="1.999325">
        <ele>150.277457</ele>
        <time>2023-03-30T15:13:34.567Z</time>
      </trkpt>
      <trkpt lat="48.874748" lon="1.998838">
        <ele>151.564151</ele>
        <time>2023-03-30T15:13:47.238Z</time>
      </trkpt>
      <trkpt lat="48.874970" lon="1.998088">
        <ele>153.741750</ele>
        <time>2023-03-30T15:14:07.376Z</time>
      </trkpt>
      <trkpt lat="48.875030" lon="1.997915">
        <ele>154.259581</ele>
        <time>2023-03-30T15:14:12.203Z</time>
      </trkpt>
      <trkpt lat="48.875252" lon="1.997482">
        <ele>155.713201</ele>
        <time>2023-03-30T15:14:25.737Z</time>
      </trkpt>
      <trkpt lat="48.875360" lon="1.997290">
        <ele>156.382113</ele>
        <time>2023-03-30T15:14:31.839Z</time>
      </trkpt>
      <trkpt lat="48.875697" lon="1.996883">
        <ele>157.958761</ele>
        <time>2023-03-30T15:14:47.186Z</time>
      </trkpt>
      <trkpt lat="48.876535" lon="1.996136">
        <ele>160.787709</ele>
        <time>2023-03-30T15:15:17.955Z</time>
      </trkpt>
      <trkpt lat="48.876635" lon="1.996006">
        <ele>161.170866</ele>
        <time>2023-03-30T15:15:21.880Z</time>
      </trkpt>
      <trkpt lat="48.876721" lon="1.995815">
        <ele>161.614213</ele>
        <time>2023-03-30T15:15:26.381Z</time>
      </trkpt>
      <trkpt lat="48.876765" lon="1.995609">
        <ele>162.029057</ele>
        <time>2023-03-30T15:15:30.712Z</time>
      </trkpt>
      <trkpt lat="48.876821" lon="1.994718">
        <ele>163.709846</ele>
        <time>2023-03-30T15:15:48.554Z</time>
      </trkpt>
      <trkpt lat="48.877050" lon="1.993239">
        <ele>166.517764</ele>
        <time>2023-03-30T15:16:19.558Z</time>
      </trkpt>
      <trkpt lat="48.877088" lon="1.992424">
        <ele>168.053078</ele>
        <time>2023-03-30T15:16:36.856Z</time>
      </trkpt>
      <trkpt lat="48.877118" lon="1.992230">
        <ele>168.472079</ele>
        <time>2023-03-30T15:16:41.431Z</time>
      </trkpt>
      <trkpt lat="48.877473" lon="1.991157">
        <ele>170.997385</ele>
        <time>2023-03-30T15:17:08.752Z</time>
      </trkpt>
      <trkpt lat="48.877590" lon="1.990684">
        <ele>172.059854</ele>
        <time>2023-03-30T15:17:19.911Z</time>
      </trkpt>
      <trkpt lat="48.877647" lon="1.990451">
        <ele>172.582516</ele>
        <time>2023-03-30T15:17:25.098Z</time>
      </trkpt>
      <trkpt lat="48.877706" lon="1.990212">
        <ele>173.119231</ele>
        <time>2023-03-30T15:17:30.702Z</time>
      </trkpt>
      <trkpt lat="48.877828" lon="1.989711">
        <ele>173.951712</ele>
        <time>2023-03-30T15:17:41.715Z</time>
      </trkpt>
      <trkpt lat="48.877978" lon="1.989072">
        <ele>174.739608</ele>
        <time>2023-03-30T15:17:54.834Z</time>
      </trkpt>
      <trkpt lat="48.878030" lon="1.988848">
        <ele>175.015459</ele>
        <time>2023-03-30T15:17:59.052Z</time>
      </trkpt>
      <trkpt lat="48.878121" lon="1.988413">
        <ele>175.545545</ele>
        <time>2023-03-30T15:18:07.244Z</time>
      </trkpt>
      <trkpt lat="48.878240" lon="1.987505">
        <ele>176.620696</ele>
        <time>2023-03-30T15:18:22.866Z</time>
      </trkpt>
      <trkpt lat="48.878264" lon="1.987276">
        <ele>176.727610</ele>
        <time>2023-03-30T15:18:26.218Z</time>
      </trkpt>
      <trkpt lat="48.878342" lon="1.986561">
        <ele>176.440435</ele>
        <time>2023-03-30T15:18:36.382Z</time>
      </trkpt>
      <trkpt lat="48.878374" lon="1.986295">
        <ele>176.333289</ele>
        <time>2023-03-30T15:18:39.838Z</time>
      </trkpt>
      <trkpt lat="48.878509" lon="1.985755">
        <ele>176.104387</ele>
        <time>2023-03-30T15:18:46.637Z</time>
      </trkpt>
      <trkpt lat="48.878577" lon="1.985530">
        <ele>176.006273</ele>
        <time>2023-03-30T15:18:49.427Z</time>
      </trkpt>
      <trkpt lat="48.878640" lon="1.985367">
        <ele>175.931360</ele>
        <time>2023-03-30T15:18:51.461Z</time>
      </trkpt>
      <trkpt lat="48.878735" lon="1.985211">
        <ele>175.847118</ele>
        <time>2023-03-30T15:18:53.713Z</time>
      </trkpt>
      <trkpt lat="48.878556" lon="1.985136">
        <ele>175.735254</ele>
        <time>2023-03-30T15:18:55.809Z</time>
      </trkpt>
      <trkpt lat="48.878342" lon="1.984965">
        <ele>175.517405</ele>
        <time>2023-03-30T15:18:58.481Z</time>
      </trkpt>
      <trkpt lat="48.878265" lon="1.984844">
        <ele>175.400339</ele>
        <time>2023-03-30T15:18:59.716Z</time>
      </trkpt>
      <trkpt lat="48.878228" lon="1.984786">
        <ele>175.344158</ele>
        <time>2023-03-30T15:19:00.292Z</time>
      </trkpt>
      <trkpt lat="48.878135" lon="1.984473">
        <ele>175.105355</ele>
        <time>2023-03-30T15:19:02.800Z</time>
      </trkpt>
      <trkpt lat="48.878014" lon="1.983978">
        <ele>174.738184</ele>
        <time>2023-03-30T15:19:06.853Z</time>
      </trkpt>
      <trkpt lat="48.877966" lon="1.983672">
        <ele>174.519458</ele>
        <time>2023-03-30T15:19:09.394Z</time>
      </trkpt>
      <trkpt lat="48.877902" lon="1.983025">
        <ele>174.064547</ele>
        <time>2023-03-30T15:19:14.941Z</time>
      </trkpt>
      <trkpt lat="48.877886" lon="1.982333">
        <ele>173.878293</ele>
        <time>2023-03-30T15:19:21.181Z</time>
      </trkpt>
      <trkpt lat="48.877714" lon="1.981200">
        <ele>174.259392</ele>
        <time>2023-03-30T15:19:33.949Z</time>
      </trkpt>
      <trkpt lat="48.877664" lon="1.980908">
        <ele>174.358284</ele>
        <time>2023-03-30T15:19:37.525Z</time>
      </trkpt>
      <trkpt lat="48.877635" lon="1.980741">
        <ele>174.414893</ele>
        <time>2023-03-30T15:19:39.595Z</time>
      </trkpt>
      <trkpt lat="48.877429" lon="1.979547">
        <ele>174.145864</ele>
        <time>2023-03-30T15:19:55.302Z</time>
      </trkpt>
      <trkpt lat="48.877463" lon="1.979389">
        <ele>173.937057</ele>
        <time>2023-03-30T15:19:57.216Z</time>
      </trkpt>
      <trkpt lat="48.877359" lon="1.979252">
        <ele>173.674263</ele>
        <time>2023-03-30T15:19:59.275Z</time>
      </trkpt>
      <trkpt lat="48.877288" lon="1.979159">
        <ele>173.495289</ele>
        <time>2023-03-30T15:20:00.540Z</time>
      </trkpt>
      <trkpt lat="48.877128" lon="1.978911">
        <ele>173.058935</ele>
        <time>2023-03-30T15:20:03.336Z</time>
      </trkpt>
      <trkpt lat="48.876423" lon="1.977892">
        <ele>171.121242</ele>
        <time>2023-03-30T15:20:13.173Z</time>
      </trkpt>
      <trkpt lat="48.876307" lon="1.977852">
        <ele>170.478687</ele>
        <time>2023-03-30T15:20:14.248Z</time>
      </trkpt>
      <trkpt lat="48.875551" lon="1.977961">
        <ele>166.376387</ele>
        <time>2023-03-30T15:20:21.235Z</time>
      </trkpt>
      <trkpt lat="48.875400" lon="1.978011">
        <ele>165.541551</ele>
        <time>2023-03-30T15:20:22.660Z</time>
      </trkpt>
      <trkpt lat="48.874930" lon="1.978361">
        <ele>162.714394</ele>
        <time>2023-03-30T15:20:27.503Z</time>
      </trkpt>
      <trkpt lat="48.874842" lon="1.978354">
        <ele>162.238360</ele>
        <time>2023-03-30T15:20:28.296Z</time>
      </trkpt>
      <trkpt lat="48.874755" lon="1.978269">
        <ele>161.679711</ele>
        <time>2023-03-30T15:20:29.261Z</time>
      </trkpt>
      <trkpt lat="48.874722" lon="1.978132">
        <ele>161.278008</ele>
        <time>2023-03-30T15:20:30.151Z</time>
      </trkpt>
      <trkpt lat="48.874716" lon="1.977644">
        <ele>160.094834</ele>
        <time>2023-03-30T15:20:33.167Z</time>
      </trkpt>
      <trkpt lat="48.874680" lon="1.977419">
        <ele>159.533502</ele>
        <time>2023-03-30T15:20:34.612Z</time>
      </trkpt>
      <trkpt lat="48.874678" lon="1.977412">
        <ele>159.515001</ele>
        <time>2023-03-30T15:20:34.661Z</time>
      </trkpt>
      <trkpt lat="48.874617" lon="1.977224">
        <ele>159.006827</ele>
        <time>2023-03-30T15:20:36.004Z</time>
      </trkpt>
      <trkpt lat="48.874348" lon="1.976635">
        <ele>157.268546</ele>
        <time>2023-03-30T15:20:40.795Z</time>
      </trkpt>
      <trkpt lat="48.874260" lon="1.976329">
        <ele>156.458952</ele>
        <time>2023-03-30T15:20:43.108Z</time>
      </trkpt>
      <trkpt lat="48.874240" lon="1.976043">
        <ele>155.761741</ele>
        <time>2023-03-30T15:20:45.273Z</time>
      </trkpt>
      <trkpt lat="48.874257" lon="1.975873">
        <ele>155.344902</ele>
        <time>2023-03-30T15:20:46.529Z</time>
      </trkpt>
      <trkpt lat="48.874408" lon="1.975379">
        <ele>153.915914</ele>
        <time>2023-03-30T15:20:50.278Z</time>
      </trkpt>
      <trkpt lat="48.874436" lon="1.975299">
        <ele>153.669002</ele>
        <time>2023-03-30T15:20:50.879Z</time>
      </trkpt>
      <trkpt lat="48.874511" lon="1.975111">
        <ele>153.069910</ele>
        <time>2023-03-30T15:20:52.340Z</time>
      </trkpt>
      <trkpt lat="48.874666" lon="1.974661">
        <ele>151.685867</ele>
        <time>2023-03-30T15:20:55.619Z</time>
      </trkpt>
      <trkpt lat="48.874668" lon="1.974502">
        <ele>151.252573</ele>
        <time>2023-03-30T15:20:56.626Z</time>
      </trkpt>
      <trkpt lat="48.874646" lon="1.974418">
        <ele>151.006226</ele>
        <time>2023-03-30T15:20:57.195Z</time>
      </trkpt>
      <trkpt lat="48.874617" lon="1.974333">
        <ele>150.745328</ele>
        <time>2023-03-30T15:20:57.792Z</time>
      </trkpt>
      <trkpt lat="48.874522" lon="1.974202">
        <ele>150.214032</ele>
        <time>2023-03-30T15:20:59.021Z</time>
      </trkpt>
      <trkpt lat="48.874494" lon="1.974167">
        <ele>150.063871</ele>
        <time>2023-03-30T15:20:59.366Z</time>
      </trkpt>
      <trkpt lat="48.874262" lon="1.973898">
        <ele>148.855209</ele>
        <time>2023-03-30T15:21:02.131Z</time>
      </trkpt>
      <trkpt lat="48.874109" lon="1.973745">
        <ele>148.096588</ele>
        <time>2023-03-30T15:21:03.857Z</time>
      </trkpt>
      <trkpt lat="48.874022" lon="1.973666">
        <ele>147.676797</ele>
        <time>2023-03-30T15:21:04.802Z</time>
      </trkpt>
      <trkpt lat="48.873368" lon="1.973062">
        <ele>144.120871</ele>
        <time>2023-03-30T15:21:11.906Z</time>
      </trkpt>
      <trkpt lat="48.873119" lon="1.972828">
        <ele>142.749086</ele>
        <time>2023-03-30T15:21:14.652Z</time>
      </trkpt>
      <trkpt lat="48.873043" lon="1.972758">
        <ele>142.332675</ele>
        <time>2023-03-30T15:21:15.504Z</time>
      </trkpt>
      <trkpt lat="48.872846" lon="1.972625">
        <ele>141.322560</ele>
        <time>2023-03-30T15:21:17.577Z</time>
      </trkpt>
      <trkpt lat="48.872697" lon="1.972581">
        <ele>140.611261</ele>
        <time>2023-03-30T15:21:19.055Z</time>
      </trkpt>
      <trkpt lat="48.872525" lon="1.972535">
        <ele>139.792853</ele>
        <time>2023-03-30T15:21:20.778Z</time>
      </trkpt>
      <trkpt lat="48.872375" lon="1.972491">
        <ele>139.076953</ele>
        <time>2023-03-30T15:21:22.286Z</time>
      </trkpt>
      <trkpt lat="48.871819" lon="1.972303">
        <ele>137.405693</ele>
        <time>2023-03-30T15:21:28.018Z</time>
      </trkpt>
      <trkpt lat="48.871196" lon="1.972071">
        <ele>135.548449</ele>
        <time>2023-03-30T15:21:34.644Z</time>
      </trkpt>
      <trkpt lat="48.871054" lon="1.971991">
        <ele>135.109960</ele>
        <time>2023-03-30T15:21:36.227Z</time>
      </trkpt>
      <trkpt lat="48.870549" lon="1.971848">
        <ele>133.675512</ele>
        <time>2023-03-30T15:21:41.711Z</time>
      </trkpt>
      <trkpt lat="48.870052" lon="1.971753">
        <ele>132.631923</ele>
        <time>2023-03-30T15:21:47.151Z</time>
      </trkpt>
      <trkpt lat="48.869731" lon="1.971688">
        <ele>131.957255</ele>
        <time>2023-03-30T15:21:50.721Z</time>
      </trkpt>
      <trkpt lat="48.869313" lon="1.971609">
        <ele>131.079701</ele>
        <time>2023-03-30T15:21:55.379Z</time>
      </trkpt>
      <trkpt lat="48.869229" lon="1.971586">
        <ele>130.901882</ele>
        <time>2023-03-30T15:21:56.329Z</time>
      </trkpt>
      <trkpt lat="48.868496" lon="1.971355">
        <ele>129.348292</ele>
        <time>2023-03-30T15:22:04.546Z</time>
      </trkpt>
      <trkpt lat="48.867970" lon="1.971167">
        <ele>128.231898</ele>
        <time>2023-03-30T15:22:10.358Z</time>
      </trkpt>
      <trkpt lat="48.867357" lon="1.970952">
        <ele>126.932115</ele>
        <time>2023-03-30T15:22:17.195Z</time>
      </trkpt>
      <trkpt lat="48.867278" lon="1.970922">
        <ele>126.763879</ele>
        <time>2023-03-30T15:22:18.071Z</time>
      </trkpt>
      <trkpt lat="48.866993" lon="1.970822">
        <ele>126.257255</ele>
        <time>2023-03-30T15:22:21.303Z</time>
      </trkpt>
      <trkpt lat="48.866833" lon="1.970774">
        <ele>126.095061</ele>
        <time>2023-03-30T15:22:23.106Z</time>
      </trkpt>
      <trkpt lat="48.866736" lon="1.970740">
        <ele>125.996061</ele>
        <time>2023-03-30T15:22:24.251Z</time>
      </trkpt>
      <trkpt lat="48.866558" lon="1.970631">
        <ele>125.805212</ele>
        <time>2023-03-30T15:22:26.422Z</time>
      </trkpt>
      <trkpt lat="48.866597" lon="1.970370">
        <ele>125.630111</ele>
        <time>2023-03-30T15:22:28.532Z</time>
      </trkpt>
      <trkpt lat="48.866625" lon="1.970187">
        <ele>125.507194</ele>
        <time>2023-03-30T15:22:29.988Z</time>
      </trkpt>
      <trkpt lat="48.866654" lon="1.970002">
        <ele>125.382775</ele>
        <time>2023-03-30T15:22:31.474Z</time>
      </trkpt>
      <trkpt lat="48.866676" lon="1.969861">
        <ele>125.287971</ele>
        <time>2023-03-30T15:22:32.672Z</time>
      </trkpt>
      <trkpt lat="48.866806" lon="1.968980">
        <ele>124.697285</ele>
        <time>2023-03-30T15:22:40.270Z</time>
      </trkpt>
      <trkpt lat="48.866939" lon="1.968077">
        <ele>124.675133</ele>
        <time>2023-03-30T15:22:50.289Z</time>
      </trkpt>
      <trkpt lat="48.867024" lon="1.967490">
        <ele>124.772771</ele>
        <time>2023-03-30T15:22:57.159Z</time>
      </trkpt>
      <trkpt lat="48.867094" lon="1.967153">
        <ele>124.830180</ele>
        <time>2023-03-30T15:23:00.953Z</time>
      </trkpt>
      <trkpt lat="48.867479" lon="1.966327">
        <ele>124.994628</ele>
        <time>2023-03-30T15:23:11.547Z</time>
      </trkpt>
      <trkpt lat="48.867660" lon="1.966106">
        <ele>124.913632</ele>
        <time>2023-03-30T15:23:15.007Z</time>
      </trkpt>
      <trkpt lat="48.867720" lon="1.966079">
        <ele>124.885163</ele>
        <time>2023-03-30T15:23:15.858Z</time>
      </trkpt>
      <trkpt lat="48.867814" lon="1.966097">
        <ele>124.842057</ele>
        <time>2023-03-30T15:23:17.168Z</time>
      </trkpt>
      <trkpt lat="48.867980" lon="1.966230">
        <ele>124.756683</ele>
        <time>2023-03-30T15:23:19.917Z</time>
      </trkpt>
      <trkpt lat="48.868062" lon="1.966349">
        <ele>124.705105</ele>
        <time>2023-03-30T15:23:21.479Z</time>
      </trkpt>
      <trkpt lat="48.868094" lon="1.966466">
        <ele>124.667183</ele>
        <time>2023-03-30T15:23:22.649Z</time>
      </trkpt>
      <trkpt lat="48.868091" lon="1.966588">
        <ele>124.630645</ele>
        <time>2023-03-30T15:23:23.869Z</time>
      </trkpt>
      <trkpt lat="48.868044" lon="1.966730">
        <ele>124.583070</ele>
        <time>2023-03-30T15:23:25.455Z</time>
      </trkpt>
      <trkpt lat="48.867725" lon="1.967132">
        <ele>124.394549</ele>
        <time>2023-03-30T15:23:31.117Z</time>
      </trkpt>
      <trkpt lat="48.866755" lon="1.967998">
        <ele>123.332662</ele>
        <time>2023-03-30T15:23:44.369Z</time>
      </trkpt>
      <trkpt lat="48.865594" lon="1.968906">
        <ele>121.640470</ele>
        <time>2023-03-30T15:23:59.717Z</time>
      </trkpt>
      <trkpt lat="48.865161" lon="1.969230">
        <ele>120.973609</ele>
        <time>2023-03-30T15:24:05.280Z</time>
      </trkpt>
      <trkpt lat="48.864638" lon="1.969498">
        <ele>120.210989</ele>
        <time>2023-03-30T15:24:11.671Z</time>
      </trkpt>
      <trkpt lat="48.864008" lon="1.969682">
        <ele>119.301555</ele>
        <time>2023-03-30T15:24:19.278Z</time>
      </trkpt>
      <trkpt lat="48.863737" lon="1.969720">
        <ele>118.796795</ele>
        <time>2023-03-30T15:24:22.442Z</time>
      </trkpt>
      <trkpt lat="48.863272" lon="1.969695">
        <ele>117.933816</ele>
        <time>2023-03-30T15:24:27.660Z</time>
      </trkpt>
      <trkpt lat="48.860813" lon="1.968986">
        <ele>112.575550</ele>
        <time>2023-03-30T15:24:54.910Z</time>
      </trkpt>
      <trkpt lat="48.860657" lon="1.968945">
        <ele>112.205837</ele>
        <time>2023-03-30T15:24:56.576Z</time>
      </trkpt>
      <trkpt lat="48.860298" lon="1.968803">
        <ele>110.864814</ele>
        <time>2023-03-30T15:25:00.417Z</time>
      </trkpt>
      <trkpt lat="48.859750" lon="1.968428">
        <ele>108.169818</ele>
        <time>2023-03-30T15:25:06.337Z</time>
      </trkpt>
      <trkpt lat="48.859135" lon="1.967756">
        <ele>104.773251</ele>
        <time>2023-03-30T15:25:13.449Z</time>
      </trkpt>
      <trkpt lat="48.858981" lon="1.967628">
        <ele>103.986147</ele>
        <time>2023-03-30T15:25:15.059Z</time>
      </trkpt>
      <trkpt lat="48.858573" lon="1.967400">
        <ele>101.399625</ele>
        <time>2023-03-30T15:25:19.025Z</time>
      </trkpt>
      <trkpt lat="48.857618" lon="1.967147">
        <ele>95.472298</ele>
        <time>2023-03-30T15:25:27.859Z</time>
      </trkpt>
      <trkpt lat="48.857259" lon="1.967106">
        <ele>93.271026</ele>
        <time>2023-03-30T15:25:31.142Z</time>
      </trkpt>
      <trkpt lat="48.856983" lon="1.967153">
        <ele>91.740673</ele>
        <time>2023-03-30T15:25:33.697Z</time>
      </trkpt>
      <trkpt lat="48.856245" lon="1.967525">
        <ele>87.640893</ele>
        <time>2023-03-30T15:25:40.922Z</time>
      </trkpt>
      <trkpt lat="48.855839" lon="1.967703">
        <ele>85.412833</ele>
        <time>2023-03-30T15:25:44.881Z</time>
      </trkpt>
      <trkpt lat="48.855610" lon="1.967723">
        <ele>84.203360</ele>
        <time>2023-03-30T15:25:47.064Z</time>
      </trkpt>
      <trkpt lat="48.855436" lon="1.967685">
        <ele>83.289824</ele>
        <time>2023-03-30T15:25:48.743Z</time>
      </trkpt>
      <trkpt lat="48.855310" lon="1.967628">
        <ele>82.890570</ele>
        <time>2023-03-30T15:25:50.024Z</time>
      </trkpt>
      <trkpt lat="48.855304" lon="1.967633">
        <ele>82.869789</ele>
        <time>2023-03-30T15:25:50.087Z</time>
      </trkpt>
      <trkpt lat="48.855199" lon="1.967775">
        <ele>82.442938</ele>
        <time>2023-03-30T15:25:51.446Z</time>
      </trkpt>
      <trkpt lat="48.855088" lon="1.967922">
        <ele>81.995807</ele>
        <time>2023-03-30T15:25:52.876Z</time>
      </trkpt>
      <trkpt lat="48.854959" lon="1.968347">
        <ele>81.060542</ele>
        <time>2023-03-30T15:25:55.904Z</time>
      </trkpt>
      <trkpt lat="48.854913" lon="1.968632">
        <ele>80.474156</ele>
        <time>2023-03-30T15:25:57.832Z</time>
      </trkpt>
      <trkpt lat="48.854913" lon="1.968820">
        <ele>80.098485</ele>
        <time>2023-03-30T15:25:59.088Z</time>
      </trkpt>
      <trkpt lat="48.854916" lon="1.969172">
        <ele>79.395042</ele>
        <time>2023-03-30T15:26:01.509Z</time>
      </trkpt>
      <trkpt lat="48.855064" lon="1.970340">
        <ele>77.752368</ele>
        <time>2023-03-30T15:26:10.384Z</time>
      </trkpt>
      <trkpt lat="48.855310" lon="1.971303">
        <ele>77.520019</ele>
        <time>2023-03-30T15:26:19.829Z</time>
      </trkpt>
      <trkpt lat="48.855360" lon="1.971850">
        <ele>77.395807</ele>
        <time>2023-03-30T15:26:25.407Z</time>
      </trkpt>
      <trkpt lat="48.855368" lon="1.973327">
        <ele>77.622083</ele>
        <time>2023-03-30T15:26:41.137Z</time>
      </trkpt>
      <trkpt lat="48.855378" lon="1.974016">
        <ele>77.985319</ele>
        <time>2023-03-30T15:26:48.968Z</time>
      </trkpt>
      <trkpt lat="48.855451" lon="1.974613">
        <ele>78.305365</ele>
        <time>2023-03-30T15:26:56.191Z</time>
      </trkpt>
      <trkpt lat="48.855613" lon="1.975839">
        <ele>79.216449</ele>
        <time>2023-03-30T15:27:12.930Z</time>
      </trkpt>
      <trkpt lat="48.855921" lon="1.977660">
        <ele>81.059771</ele>
        <time>2023-03-30T15:27:39.525Z</time>
      </trkpt>
      <trkpt lat="48.855967" lon="1.978105">
        <ele>81.418961</ele>
        <time>2023-03-30T15:27:45.547Z</time>
      </trkpt>
      <trkpt lat="48.855893" lon="1.978462">
        <ele>81.584106</ele>
        <time>2023-03-30T15:27:50.388Z</time>
      </trkpt>
      <trkpt lat="48.855446" lon="1.979755">
        <ele>82.228554</ele>
        <time>2023-03-30T15:28:07.622Z</time>
      </trkpt>
      <trkpt lat="48.855445" lon="1.979759">
        <ele>82.230442</ele>
        <time>2023-03-30T15:28:07.668Z</time>
      </trkpt>
      <trkpt lat="48.854854" lon="1.981142">
        <ele>82.348434</ele>
        <time>2023-03-30T15:28:23.499Z</time>
      </trkpt>
      <trkpt lat="48.854533" lon="1.981901">
        <ele>82.140422</ele>
        <time>2023-03-30T15:28:31.633Z</time>
      </trkpt>
      <trkpt lat="48.853893" lon="1.983642">
        <ele>81.624738</ele>
        <time>2023-03-30T15:28:48.398Z</time>
      </trkpt>
      <trkpt lat="48.853812" lon="1.983789">
        <ele>81.570518</ele>
        <time>2023-03-30T15:28:50.017Z</time>
      </trkpt>
      <trkpt lat="48.853725" lon="1.983753">
        <ele>81.531767</ele>
        <time>2023-03-30T15:28:51.182Z</time>
      </trkpt>
      <trkpt lat="48.853671" lon="1.983829">
        <ele>81.500137</ele>
        <time>2023-03-30T15:28:52.121Z</time>
      </trkpt>
      <trkpt lat="48.853667" lon="1.983905">
        <ele>81.478577</ele>
        <time>2023-03-30T15:28:52.808Z</time>
      </trkpt>
      <trkpt lat="48.853676" lon="1.983937">
        <ele>81.468736</ele>
        <time>2023-03-30T15:28:53.126Z</time>
      </trkpt>
      <trkpt lat="48.853689" lon="1.983964">
        <ele>81.459275</ele>
        <time>2023-03-30T15:28:53.431Z</time>
      </trkpt>
      <trkpt lat="48.853440" lon="1.984125">
        <ele>81.342981</ele>
        <time>2023-03-30T15:28:56.979Z</time>
      </trkpt>
      <trkpt lat="48.852025" lon="1.984895">
        <ele>81.334020</ele>
        <time>2023-03-30T15:29:19.734Z</time>
      </trkpt>
      <trkpt lat="48.851957" lon="1.984936">
        <ele>81.346364</ele>
        <time>2023-03-30T15:29:20.791Z</time>
      </trkpt>
      <trkpt lat="48.851272" lon="1.985206">
        <ele>81.474570</ele>
        <time>2023-03-30T15:29:31.689Z</time>
      </trkpt>
      <trkpt lat="48.851098" lon="1.985254">
        <ele>81.537893</ele>
        <time>2023-03-30T15:29:35.035Z</time>
      </trkpt>
      <trkpt lat="48.851183" lon="1.985744">
        <ele>81.657292</ele>
        <time>2023-03-30T15:29:41.269Z</time>
      </trkpt>
      <trkpt lat="48.851270" lon="1.986188">
        <ele>81.766448</ele>
        <time>2023-03-30T15:29:46.715Z</time>
      </trkpt>
      <trkpt lat="48.851334" lon="1.986408">
        <ele>81.823124</ele>
        <time>2023-03-30T15:29:49.400Z</time>
      </trkpt>
      <trkpt lat="48.851436" lon="1.986640">
        <ele>81.888867</ele>
        <time>2023-03-30T15:29:52.549Z</time>
      </trkpt>
      <trkpt lat="48.851619" lon="1.987149">
        <ele>82.025532</ele>
        <time>2023-03-30T15:29:58.409Z</time>
      </trkpt>
      <trkpt lat="48.851552" lon="1.987572">
        <ele>82.089549</ele>
        <time>2023-03-30T15:30:02.288Z</time>
      </trkpt>
      <trkpt lat="48.851515" lon="1.987700">
        <ele>82.073806</ele>
        <time>2023-03-30T15:30:03.504Z</time>
      </trkpt>
      <trkpt lat="48.851362" lon="1.987898">
        <ele>82.039416</ele>
        <time>2023-03-30T15:30:06.242Z</time>
      </trkpt>
      <trkpt lat="48.851063" lon="1.988186">
        <ele>81.978837</ele>
        <time>2023-03-30T15:30:11.503Z</time>
      </trkpt>
      <trkpt lat="48.850958" lon="1.988368">
        <ele>81.951581</ele>
        <time>2023-03-30T15:30:14.162Z</time>
      </trkpt>
      <trkpt lat="48.850374" lon="1.989890">
        <ele>81.883479</ele>
        <time>2023-03-30T15:30:29.978Z</time>
      </trkpt>
      <trkpt lat="48.850258" lon="1.990195">
        <ele>81.969834</ele>
        <time>2023-03-30T15:30:33.123Z</time>
      </trkpt>
      <trkpt lat="48.850050" lon="1.990803">
        <ele>82.137815</ele>
        <time>2023-03-30T15:30:39.876Z</time>
      </trkpt>
      <trkpt lat="48.849712" lon="1.991586">
        <ele>82.367371</ele>
        <time>2023-03-30T15:30:51.134Z</time>
      </trkpt>
      <trkpt lat="48.849373" lon="1.992148">
        <ele>82.581208</ele>
        <time>2023-03-30T15:31:01.061Z</time>
      </trkpt>
      <trkpt lat="48.848900" lon="1.992689">
        <ele>82.867759</ele>
        <time>2023-03-30T15:31:11.985Z</time>
      </trkpt>
      <trkpt lat="48.848863" lon="1.992632">
        <ele>82.893262</ele>
        <time>2023-03-30T15:31:13.023Z</time>
      </trkpt>
      <trkpt lat="48.848811" lon="1.992630">
        <ele>82.918440</ele>
        <time>2023-03-30T15:31:14.027Z</time>
      </trkpt>
      <trkpt lat="48.848768" lon="1.992706">
        <ele>82.950365</ele>
        <time>2023-03-30T15:31:15.156Z</time>
      </trkpt>
      <trkpt lat="48.848786" lon="1.992802">
        <ele>82.982160</ele>
        <time>2023-03-30T15:31:16.107Z</time>
      </trkpt>
      <trkpt lat="48.847724" lon="1.993831">
        <ele>83.036275</ele>
        <time>2023-03-30T15:31:34.048Z</time>
      </trkpt>
      <trkpt lat="48.847239" lon="1.994373">
        <ele>82.697671</ele>
        <time>2023-03-30T15:31:41.203Z</time>
      </trkpt>
      <trkpt lat="48.846289" lon="1.995344">
        <ele>82.615816</ele>
        <time>2023-03-30T15:31:56.637Z</time>
      </trkpt>
      <trkpt lat="48.846015" lon="1.995812">
        <ele>82.867532</ele>
        <time>2023-03-30T15:32:03.695Z</time>
      </trkpt>
      <trkpt lat="48.844850" lon="1.998172">
        <ele>84.179170</ele>
        <time>2023-03-30T15:32:42.035Z</time>
      </trkpt>
      <trkpt lat="48.844719" lon="1.998535">
        <ele>84.378760</ele>
        <time>2023-03-30T15:32:46.807Z</time>
      </trkpt>
      <trkpt lat="48.843907" lon="2.001580">
        <ele>84.420759</ele>
        <time>2023-03-30T15:33:17.114Z</time>
      </trkpt>
      <trkpt lat="48.843476" lon="2.003605">
        <ele>84.206263</ele>
        <time>2023-03-30T15:33:37.104Z</time>
      </trkpt>
      <trkpt lat="48.843141" lon="2.004660">
        <ele>84.088442</ele>
        <time>2023-03-30T15:33:48.389Z</time>
      </trkpt>
      <trkpt lat="48.841606" lon="2.007421">
        <ele>83.896128</ele>
        <time>2023-03-30T15:34:22.027Z</time>
      </trkpt>
      <trkpt lat="48.840642" lon="2.008677">
        <ele>84.223483</ele>
        <time>2023-03-30T15:34:42.140Z</time>
      </trkpt>
      <trkpt lat="48.840485" lon="2.008750">
        <ele>84.367921</ele>
        <time>2023-03-30T15:34:44.823Z</time>
      </trkpt>
      <trkpt lat="48.840452" lon="2.008738">
        <ele>84.397771</ele>
        <time>2023-03-30T15:34:45.407Z</time>
      </trkpt>
      <trkpt lat="48.840345" lon="2.008793">
        <ele>84.497142</ele>
        <time>2023-03-30T15:34:47.402Z</time>
      </trkpt>
      <trkpt lat="48.840307" lon="2.008892">
        <ele>84.563498</ele>
        <time>2023-03-30T15:34:48.783Z</time>
      </trkpt>
      <trkpt lat="48.840303" lon="2.008958">
        <ele>84.601874</ele>
        <time>2023-03-30T15:34:49.537Z</time>
      </trkpt>
      <trkpt lat="48.840210" lon="2.009214">
        <ele>84.771177</ele>
        <time>2023-03-30T15:34:52.943Z</time>
      </trkpt>
      <trkpt lat="48.839269" lon="2.010181">
        <ele>85.966003</ele>
        <time>2023-03-30T15:35:15.356Z</time>
      </trkpt>
      <trkpt lat="48.838812" lon="2.010695">
        <ele>86.900761</ele>
        <time>2023-03-30T15:35:27.904Z</time>
      </trkpt>
      <trkpt lat="48.838399" lon="2.011573">
        <ele>88.068476</ele>
        <time>2023-03-30T15:35:43.787Z</time>
      </trkpt>
      <trkpt lat="48.838301" lon="2.011737">
        <ele>88.308157</ele>
        <time>2023-03-30T15:35:47.041Z</time>
      </trkpt>
      <trkpt lat="48.838166" lon="2.011866">
        <ele>88.543293</ele>
        <time>2023-03-30T15:35:50.613Z</time>
      </trkpt>
      <trkpt lat="48.837852" lon="2.011908">
        <ele>88.854807</ele>
        <time>2023-03-30T15:35:57.400Z</time>
      </trkpt>
      <trkpt lat="48.836554" lon="2.011604">
        <ele>90.152722</ele>
        <time>2023-03-30T15:36:21.333Z</time>
      </trkpt>
      <trkpt lat="48.836400" lon="2.011564">
        <ele>90.295417</ele>
        <time>2023-03-30T15:36:23.779Z</time>
      </trkpt>
      <trkpt lat="48.835774" lon="2.011406">
        <ele>90.651317</ele>
        <time>2023-03-30T15:36:33.512Z</time>
      </trkpt>
      <trkpt lat="48.835677" lon="2.011422">
        <ele>90.706039</ele>
        <time>2023-03-30T15:36:34.922Z</time>
      </trkpt>
      <trkpt lat="48.835542" lon="2.011519">
        <ele>90.789794</ele>
        <time>2023-03-30T15:36:37.278Z</time>
      </trkpt>
      <trkpt lat="48.835174" lon="2.011863">
        <ele>91.032124</ele>
        <time>2023-03-30T15:36:44.833Z</time>
      </trkpt>
      <trkpt lat="48.834832" lon="2.012307">
        <ele>91.284427</ele>
        <time>2023-03-30T15:36:53.308Z</time>
      </trkpt>
      <trkpt lat="48.834741" lon="2.012446">
        <ele>91.353919</ele>
        <time>2023-03-30T15:36:55.725Z</time>
      </trkpt>
      <trkpt lat="48.834540" lon="2.012802">
        <ele>91.519728</ele>
        <time>2023-03-30T15:37:01.621Z</time>
      </trkpt>
      <trkpt lat="48.834460" lon="2.012918">
        <ele>91.579123</ele>
        <time>2023-03-30T15:37:03.863Z</time>
      </trkpt>
      <trkpt lat="48.834272" lon="2.013119">
        <ele>91.702590</ele>
        <time>2023-03-30T15:37:08.195Z</time>
      </trkpt>
      <trkpt lat="48.833925" lon="2.013294">
        <ele>91.898954</ele>
        <time>2023-03-30T15:37:14.702Z</time>
      </trkpt>
      <trkpt lat="48.833856" lon="2.013389">
        <ele>91.948967</ele>
        <time>2023-03-30T15:37:16.178Z</time>
      </trkpt>
      <trkpt lat="48.833846" lon="2.013442">
        <ele>91.968458</ele>
        <time>2023-03-30T15:37:16.779Z</time>
      </trkpt>
      <trkpt lat="48.833978" lon="2.013928">
        <ele>92.154323</ele>
        <time>2023-03-30T15:37:21.722Z</time>
      </trkpt>
      <trkpt lat="48.834006" lon="2.014114">
        <ele>92.221776</ele>
        <time>2023-03-30T15:37:23.451Z</time>
      </trkpt>
      <trkpt lat="48.833902" lon="2.014452">
        <ele>92.124379</ele>
        <time>2023-03-30T15:37:26.912Z</time>
      </trkpt>
      <trkpt lat="48.833892" lon="2.014480">
        <ele>92.109520</ele>
        <time>2023-03-30T15:37:27.251Z</time>
      </trkpt>
      <trkpt lat="48.833692" lon="2.015077">
        <ele>91.797051</ele>
        <time>2023-03-30T15:37:33.344Z</time>
      </trkpt>
      <trkpt lat="48.833667" lon="2.015331">
        <ele>91.677252</ele>
        <time>2023-03-30T15:37:35.566Z</time>
      </trkpt>
      <trkpt lat="48.833684" lon="2.015405">
        <ele>91.640692</ele>
        <time>2023-03-30T15:37:36.230Z</time>
      </trkpt>
      <trkpt lat="48.833914" lon="2.015678">
        <ele>91.433855</ele>
        <time>2023-03-30T15:37:39.764Z</time>
      </trkpt>
      <trkpt lat="48.834267" lon="2.015951">
        <ele>91.153156</ele>
        <time>2023-03-30T15:37:44.569Z</time>
      </trkpt>
      <trkpt lat="48.834330" lon="2.015986">
        <ele>91.105620</ele>
        <time>2023-03-30T15:37:45.411Z</time>
      </trkpt>
      <trkpt lat="48.834440" lon="2.016069">
        <ele>91.018584</ele>
        <time>2023-03-30T15:37:46.883Z</time>
      </trkpt>
      <trkpt lat="48.834511" lon="2.016181">
        <ele>90.929340</ele>
        <time>2023-03-30T15:37:48.069Z</time>
      </trkpt>
      <trkpt lat="48.834545" lon="2.016313">
        <ele>90.830882</ele>
        <time>2023-03-30T15:37:49.177Z</time>
      </trkpt>
      <trkpt lat="48.834471" lon="2.016953">
        <ele>90.379529</ele>
        <time>2023-03-30T15:37:54.267Z</time>
      </trkpt>
      <trkpt lat="48.834431" lon="2.017475">
        <ele>90.014496</ele>
        <time>2023-03-30T15:37:58.537Z</time>
      </trkpt>
      <trkpt lat="48.834442" lon="2.017682">
        <ele>89.870245</ele>
        <time>2023-03-30T15:38:00.210Z</time>
      </trkpt>
      <trkpt lat="48.834520" lon="2.018040">
        <ele>89.608308</ele>
        <time>2023-03-30T15:38:03.323Z</time>
      </trkpt>
      <trkpt lat="48.834494" lon="2.018311">
        <ele>89.418081</ele>
        <time>2023-03-30T15:38:05.511Z</time>
      </trkpt>
      <trkpt lat="48.834450" lon="2.018361">
        <ele>89.360098</ele>
        <time>2023-03-30T15:38:06.269Z</time>
      </trkpt>
      <trkpt lat="48.834453" lon="2.018485">
        <ele>89.273909</ele>
        <time>2023-03-30T15:38:07.271Z</time>
      </trkpt>
      <trkpt lat="48.834493" lon="2.018529">
        <ele>89.221796</ele>
        <time>2023-03-30T15:38:07.836Z</time>
      </trkpt>
      <trkpt lat="48.834541" lon="2.018525">
        <ele>89.171067</ele>
        <time>2023-03-30T15:38:08.396Z</time>
      </trkpt>
      <trkpt lat="48.834718" lon="2.018659">
        <ele>89.031680</ele>
        <time>2023-03-30T15:38:10.841Z</time>
      </trkpt>
      <trkpt lat="48.834809" lon="2.018910">
        <ele>88.947756</ele>
        <time>2023-03-30T15:38:13.020Z</time>
      </trkpt>
      <trkpt lat="48.835094" lon="2.019518">
        <ele>88.729154</ele>
        <time>2023-03-30T15:38:19.146Z</time>
      </trkpt>
      <trkpt lat="48.835251" lon="2.019851">
        <ele>88.609192</ele>
        <time>2023-03-30T15:38:22.564Z</time>
      </trkpt>
      <trkpt lat="48.835536" lon="2.020699">
        <ele>88.330341</ele>
        <time>2023-03-30T15:38:31.824Z</time>
      </trkpt>
      <trkpt lat="48.835681" lon="2.021249">
        <ele>88.448261</ele>
        <time>2023-03-30T15:38:38.447Z</time>
      </trkpt>
      <trkpt lat="48.835798" lon="2.021983">
        <ele>88.742358</ele>
        <time>2023-03-30T15:38:47.404Z</time>
      </trkpt>
      <trkpt lat="48.835910" lon="2.022953">
        <ele>89.125864</ele>
        <time>2023-03-30T15:38:59.552Z</time>
      </trkpt>
      <trkpt lat="48.835923" lon="2.023479">
        <ele>89.330843</ele>
        <time>2023-03-30T15:39:05.597Z</time>
      </trkpt>
      <trkpt lat="48.835817" lon="2.025123">
        <ele>88.857337</ele>
        <time>2023-03-30T15:39:20.635Z</time>
      </trkpt>
      <trkpt lat="48.835851" lon="2.026342">
        <ele>88.476785</ele>
        <time>2023-03-30T15:39:30.394Z</time>
      </trkpt>
      <trkpt lat="48.835897" lon="2.026809">
        <ele>88.282656</ele>
        <time>2023-03-30T15:39:34.205Z</time>
      </trkpt>
      <trkpt lat="48.836145" lon="2.028283">
        <ele>87.657189</ele>
        <time>2023-03-30T15:39:47.015Z</time>
      </trkpt>
      <trkpt lat="48.836310" lon="2.029538">
        <ele>87.385582</ele>
        <time>2023-03-30T15:39:59.259Z</time>
      </trkpt>
      <trkpt lat="48.836704" lon="2.031050">
        <ele>87.362665</ele>
        <time>2023-03-30T15:40:15.087Z</time>
      </trkpt>
      <trkpt lat="48.836739" lon="2.031436">
        <ele>87.357174</ele>
        <time>2023-03-30T15:40:18.906Z</time>
      </trkpt>
      <trkpt lat="48.836748" lon="2.031827">
        <ele>87.449180</ele>
        <time>2023-03-30T15:40:22.684Z</time>
      </trkpt>
      <trkpt lat="48.836885" lon="2.034339">
        <ele>88.248083</ele>
        <time>2023-03-30T15:40:49.961Z</time>
      </trkpt>
      <trkpt lat="48.836979" lon="2.036803">
        <ele>90.297534</ele>
        <time>2023-03-30T15:41:23.200Z</time>
      </trkpt>
      <trkpt lat="48.836974" lon="2.037565">
        <ele>91.003410</ele>
        <time>2023-03-30T15:41:33.397Z</time>
      </trkpt>
      <trkpt lat="48.836894" lon="2.037953">
        <ele>91.390486</ele>
        <time>2023-03-30T15:41:38.536Z</time>
      </trkpt>
      <trkpt lat="48.835948" lon="2.040578">
        <ele>95.005751</ele>
        <time>2023-03-30T15:42:20.056Z</time>
      </trkpt>
      <trkpt lat="48.835932" lon="2.040638">
        <ele>95.106509</ele>
        <time>2023-03-30T15:42:21.277Z</time>
      </trkpt>
      <trkpt lat="48.835635" lon="2.041393">
        <ele>96.475476</ele>
        <time>2023-03-30T15:42:37.031Z</time>
      </trkpt>
      <trkpt lat="48.835078" lon="2.042592">
        <ele>99.329119</ele>
        <time>2023-03-30T15:43:02.513Z</time>
      </trkpt>
      <trkpt lat="48.835005" lon="2.042740">
        <ele>99.728203</ele>
        <time>2023-03-30T15:43:06.037Z</time>
      </trkpt>
      <trkpt lat="48.834925" lon="2.042909">
        <ele>100.177397</ele>
        <time>2023-03-30T15:43:10.085Z</time>
      </trkpt>
      <trkpt lat="48.834666" lon="2.043467">
        <ele>101.650763</ele>
        <time>2023-03-30T15:43:23.095Z</time>
      </trkpt>
      <trkpt lat="48.834544" lon="2.043822">
        <ele>102.514940</ele>
        <time>2023-03-30T15:43:30.878Z</time>
      </trkpt>
      <trkpt lat="48.834515" lon="2.043974">
        <ele>102.856441</ele>
        <time>2023-03-30T15:43:33.680Z</time>
      </trkpt>
      <trkpt lat="48.834521" lon="2.044144">
        <ele>103.229256</ele>
        <time>2023-03-30T15:43:36.912Z</time>
      </trkpt>
      <trkpt lat="48.834528" lon="2.044330">
        <ele>103.684017</ele>
        <time>2023-03-30T15:43:40.454Z</time>
      </trkpt>
      <trkpt lat="48.834533" lon="2.044514">
        <ele>104.133537</ele>
        <time>2023-03-30T15:43:43.693Z</time>
      </trkpt>
      <trkpt lat="48.834649" lon="2.045053">
        <ele>105.517753</ele>
        <time>2023-03-30T15:43:53.969Z</time>
      </trkpt>
      <trkpt lat="48.834753" lon="2.045420">
        <ele>106.493074</ele>
        <time>2023-03-30T15:44:01.578Z</time>
      </trkpt>
      <trkpt lat="48.834807" lon="2.045564">
        <ele>106.897612</ele>
        <time>2023-03-30T15:44:04.803Z</time>
      </trkpt>
      <trkpt lat="48.834877" lon="2.045705">
        <ele>107.328703</ele>
        <time>2023-03-30T15:44:08.430Z</time>
      </trkpt>
      <trkpt lat="48.835829" lon="2.047117">
        <ele>111.791675</ele>
        <time>2023-03-30T15:44:50.189Z</time>
      </trkpt>
      <trkpt lat="48.836115" lon="2.047478">
        <ele>112.901194</ele>
        <time>2023-03-30T15:45:00.255Z</time>
      </trkpt>
      <trkpt lat="48.837053" lon="2.048425">
        <ele>115.664805</ele>
        <time>2023-03-30T15:45:26.385Z</time>
      </trkpt>
      <trkpt lat="48.837350" lon="2.048778">
        <ele>116.145637</ele>
        <time>2023-03-30T15:45:33.779Z</time>
      </trkpt>
      <trkpt lat="48.838634" lon="2.050694">
        <ele>118.242992</ele>
        <time>2023-03-30T15:46:07.433Z</time>
      </trkpt>
      <trkpt lat="48.838639" lon="2.050703">
        <ele>118.250772</ele>
        <time>2023-03-30T15:46:07.582Z</time>
      </trkpt>
      <trkpt lat="48.839782" lon="2.052671">
        <ele>120.343527</ele>
        <time>2023-03-30T15:46:40.120Z</time>
      </trkpt>
      <trkpt lat="48.840468" lon="2.053661">
        <ele>121.804545</ele>
        <time>2023-03-30T15:47:00.517Z</time>
      </trkpt>
      <trkpt lat="48.840814" lon="2.054126">
        <ele>122.776072</ele>
        <time>2023-03-30T15:47:11.270Z</time>
      </trkpt>
      <trkpt lat="48.840938" lon="2.054267">
        <ele>123.161449</ele>
        <time>2023-03-30T15:47:14.976Z</time>
      </trkpt>
      <trkpt lat="48.842767" lon="2.055800">
        <ele>128.412967</ele>
        <time>2023-03-30T15:48:08.328Z</time>
      </trkpt>
      <trkpt lat="48.842922" lon="2.055895">
        <ele>128.841407</ele>
        <time>2023-03-30T15:48:12.508Z</time>
      </trkpt>
      <trkpt lat="48.843346" lon="2.055976">
        <ele>129.936862</ele>
        <time>2023-03-30T15:48:23.169Z</time>
      </trkpt>
      <trkpt lat="48.843463" lon="2.056030">
        <ele>130.250315</ele>
        <time>2023-03-30T15:48:26.186Z</time>
      </trkpt>
      <trkpt lat="48.843551" lon="2.056300">
        <ele>130.758616</ele>
        <time>2023-03-30T15:48:31.074Z</time>
      </trkpt>
      <trkpt lat="48.843535" lon="2.056492">
        <ele>131.085115</ele>
        <time>2023-03-30T15:48:34.211Z</time>
      </trkpt>
      <trkpt lat="48.843546" lon="2.056570">
        <ele>131.218155</ele>
        <time>2023-03-30T15:48:35.508Z</time>
      </trkpt>
      <trkpt lat="48.843623" lon="2.056806">
        <ele>131.644601</ele>
        <time>2023-03-30T15:48:39.797Z</time>
      </trkpt>
      <trkpt lat="48.843656" lon="2.056849">
        <ele>131.751541</ele>
        <time>2023-03-30T15:48:40.863Z</time>
      </trkpt>
      <trkpt lat="48.843780" lon="2.056943">
        <ele>132.092429</ele>
        <time>2023-03-30T15:48:44.150Z</time>
      </trkpt>
      <trkpt lat="48.843915" lon="2.056959">
        <ele>132.425532</ele>
        <time>2023-03-30T15:48:47.570Z</time>
      </trkpt>
      <trkpt lat="48.844000" lon="2.056923">
        <ele>132.642599</ele>
        <time>2023-03-30T15:48:49.753Z</time>
      </trkpt>
      <trkpt lat="48.844150" lon="2.056955">
        <ele>133.015211</ele>
        <time>2023-03-30T15:48:53.410Z</time>
      </trkpt>
      <trkpt lat="48.844375" lon="2.057135">
        <ele>133.640726</ele>
        <time>2023-03-30T15:48:59.717Z</time>
      </trkpt>
      <trkpt lat="48.844600" lon="2.057444">
        <ele>134.386779</ele>
        <time>2023-03-30T15:49:07.142Z</time>
      </trkpt>
      <trkpt lat="48.844871" lon="2.057806">
        <ele>135.274397</ele>
        <time>2023-03-30T15:49:15.978Z</time>
      </trkpt>
      <trkpt lat="48.844845" lon="2.057953">
        <ele>135.520820</ele>
        <time>2023-03-30T15:49:18.377Z</time>
      </trkpt>
      <trkpt lat="48.844881" lon="2.058041">
        <ele>135.710004</ele>
        <time>2023-03-30T15:49:20.074Z</time>
      </trkpt>
      <trkpt lat="48.844954" lon="2.058075">
        <ele>135.946732</ele>
        <time>2023-03-30T15:49:22.032Z</time>
      </trkpt>
      <trkpt lat="48.845022" lon="2.058026">
        <ele>136.180068</ele>
        <time>2023-03-30T15:49:23.967Z</time>
      </trkpt>
      <trkpt lat="48.845214" lon="2.058282">
        <ele>136.972036</ele>
        <time>2023-03-30T15:49:30.299Z</time>
      </trkpt>
      <trkpt lat="48.845553" lon="2.058747">
        <ele>138.387985</ele>
        <time>2023-03-30T15:49:42.323Z</time>
      </trkpt>
      <trkpt lat="48.846052" lon="2.059328">
        <ele>140.337071</ele>
        <time>2023-03-30T15:50:00.098Z</time>
      </trkpt>
      <trkpt lat="48.846426" lon="2.059695">
        <ele>141.878172</ele>
        <time>2023-03-30T15:50:13.408Z</time>
      </trkpt>
      <trkpt lat="48.846528" lon="2.059756">
        <ele>142.320240</ele>
        <time>2023-03-30T15:50:16.658Z</time>
      </trkpt>
      <trkpt lat="48.847329" lon="2.060867">
        <ele>146.693926</ele>
        <time>2023-03-30T15:50:49.051Z</time>
      </trkpt>
      <trkpt lat="48.847363" lon="2.060913">
        <ele>146.877516</ele>
        <time>2023-03-30T15:50:50.526Z</time>
      </trkpt>
      <trkpt lat="48.847386" lon="2.060944">
        <ele>147.001502</ele>
        <time>2023-03-30T15:50:51.551Z</time>
      </trkpt>
      <trkpt lat="48.847657" lon="2.061427">
        <ele>148.777619</ele>
        <time>2023-03-30T15:51:05.624Z</time>
      </trkpt>
      <trkpt lat="48.847840" lon="2.061839">
        <ele>150.581324</ele>
        <time>2023-03-30T15:51:16.944Z</time>
      </trkpt>
      <trkpt lat="48.847815" lon="2.061910">
        <ele>150.873523</ele>
        <time>2023-03-30T15:51:18.867Z</time>
      </trkpt>
      <trkpt lat="48.847824" lon="2.061962">
        <ele>151.068631</ele>
        <time>2023-03-30T15:51:20.177Z</time>
      </trkpt>
      <trkpt lat="48.847853" lon="2.061999">
        <ele>151.277432</ele>
        <time>2023-03-30T15:51:21.502Z</time>
      </trkpt>
      <trkpt lat="48.847909" lon="2.061989">
        <ele>151.588351</ele>
        <time>2023-03-30T15:51:23.421Z</time>
      </trkpt>
      <trkpt lat="48.847944" lon="2.062043">
        <ele>151.863384</ele>
        <time>2023-03-30T15:51:25.338Z</time>
      </trkpt>
      <trkpt lat="48.848554" lon="2.063280">
        <ele>157.472485</ele>
        <time>2023-03-30T15:52:03.348Z</time>
      </trkpt>
      <trkpt lat="48.848675" lon="2.063587">
        <ele>158.838631</ele>
        <time>2023-03-30T15:52:13.074Z</time>
      </trkpt>
      <trkpt lat="48.848660" lon="2.063736">
        <ele>159.474437</ele>
        <time>2023-03-30T15:52:16.817Z</time>
      </trkpt>
      <trkpt lat="48.848674" lon="2.063810">
        <ele>159.799218</ele>
        <time>2023-03-30T15:52:18.860Z</time>
      </trkpt>
      <trkpt lat="48.848779" lon="2.063959">
        <ele>160.720085</ele>
        <time>2023-03-30T15:52:25.075Z</time>
      </trkpt>
      <trkpt lat="48.848861" lon="2.063973">
        <ele>161.249009</ele>
        <time>2023-03-30T15:52:28.424Z</time>
      </trkpt>
      <trkpt lat="48.848939" lon="2.063930">
        <ele>161.780869</ele>
        <time>2023-03-30T15:52:31.658Z</time>
      </trkpt>
      <trkpt lat="48.849139" lon="2.063992">
        <ele>163.089265</ele>
        <time>2023-03-30T15:52:40.466Z</time>
      </trkpt>
      <trkpt lat="48.849353" lon="2.064144">
        <ele>164.603435</ele>
        <time>2023-03-30T15:52:50.113Z</time>
      </trkpt>
      <trkpt lat="48.849697" lon="2.064277">
        <ele>166.878708</ele>
        <time>2023-03-30T15:53:04.786Z</time>
      </trkpt>
      <trkpt lat="48.849992" lon="2.064293">
        <ele>168.770853</ele>
        <time>2023-03-30T15:53:16.741Z</time>
      </trkpt>
      <trkpt lat="48.850338" lon="2.064216">
        <ele>170.838781</ele>
        <time>2023-03-30T15:53:30.648Z</time>
      </trkpt>
      <trkpt lat="48.850923" lon="2.063999">
        <ele>174.104969</ele>
        <time>2023-03-30T15:53:53.761Z</time>
      </trkpt>
      <trkpt lat="48.851346" lon="2.063991">
        <ele>176.399493</ele>
        <time>2023-03-30T15:54:09.395Z</time>
      </trkpt>
      <trkpt lat="48.851656" lon="2.064065">
        <ele>178.101545</ele>
        <time>2023-03-30T15:54:20.357Z</time>
      </trkpt>
      <trkpt lat="48.852110" lon="2.064234">
        <ele>180.221181</ele>
        <time>2023-03-30T15:54:35.806Z</time>
      </trkpt>
      <trkpt lat="48.852603" lon="2.064418">
        <ele>181.826833</ele>
        <time>2023-03-30T15:54:51.443Z</time>
      </trkpt>
      <trkpt lat="48.852978" lon="2.064429">
        <ele>183.013148</ele>
        <time>2023-03-30T15:55:02.062Z</time>
      </trkpt>
      <trkpt lat="48.854707" lon="2.064316">
        <ele>186.985715</ele>
        <time>2023-03-30T15:55:41.364Z</time>
      </trkpt>
      <trkpt lat="48.854702" lon="2.064402">
        <ele>187.079984</ele>
        <time>2023-03-30T15:55:42.488Z</time>
      </trkpt>
      <trkpt lat="48.854698" lon="2.064589">
        <ele>187.284277</ele>
        <time>2023-03-30T15:55:44.898Z</time>
      </trkpt>
      <trkpt lat="48.854663" lon="2.066313">
        <ele>188.342361</ele>
        <time>2023-03-30T15:56:07.379Z</time>
      </trkpt>
      <trkpt lat="48.854608" lon="2.067683">
        <ele>188.392928</ele>
        <time>2023-03-30T15:56:21.732Z</time>
      </trkpt>
      <trkpt lat="48.854464" lon="2.073260">
        <ele>182.979617</ele>
        <time>2023-03-30T15:57:03.175Z</time>
      </trkpt>
      <trkpt lat="48.854461" lon="2.073343">
        <ele>182.886530</ele>
        <time>2023-03-30T15:57:03.777Z</time>
      </trkpt>
      <trkpt lat="48.854424" lon="2.074234">
        <ele>182.063681</ele>
        <time>2023-03-30T15:57:10.334Z</time>
      </trkpt>
      <trkpt lat="48.854417" lon="2.074796">
        <ele>181.628794</ele>
        <time>2023-03-30T15:57:14.588Z</time>
      </trkpt>
      <trkpt lat="48.854403" lon="2.076014">
        <ele>180.686305</ele>
        <time>2023-03-30T15:57:24.284Z</time>
      </trkpt>
      <trkpt lat="48.854350" lon="2.077264">
        <ele>180.259271</ele>
        <time>2023-03-30T15:57:35.146Z</time>
      </trkpt>
      <trkpt lat="48.854254" lon="2.080587">
        <ele>179.955507</ele>
        <time>2023-03-30T15:58:08.209Z</time>
      </trkpt>
      <trkpt lat="48.854197" lon="2.082789">
        <ele>179.838255</ele>
        <time>2023-03-30T15:58:28.299Z</time>
      </trkpt>
      <trkpt lat="48.854177" lon="2.083342">
        <ele>179.825435</ele>
        <time>2023-03-30T15:58:33.490Z</time>
      </trkpt>
      <trkpt lat="48.854161" lon="2.083802">
        <ele>179.814773</ele>
        <time>2023-03-30T15:58:37.820Z</time>
      </trkpt>
      <trkpt lat="48.856880" lon="2.083791">
        <ele>180.225917</ele>
        <time>2023-03-30T15:59:21.578Z</time>
      </trkpt>
      <trkpt lat="48.860035" lon="2.083788">
        <ele>179.105007</ele>
        <time>2023-03-30T16:00:03.923Z</time>
      </trkpt>
      <trkpt lat="48.861214" lon="2.083811">
        <ele>178.337079</ele>
        <time>2023-03-30T16:00:19.790Z</time>
      </trkpt>
      <trkpt lat="48.861291" lon="2.083838">
        <ele>178.284426</ele>
        <time>2023-03-30T16:00:20.806Z</time>
      </trkpt>
      <trkpt lat="48.861599" lon="2.083994">
        <ele>178.068107</ele>
        <time>2023-03-30T16:00:24.953Z</time>
      </trkpt>
      <trkpt lat="48.861763" lon="2.084133">
        <ele>177.942991</ele>
        <time>2023-03-30T16:00:27.281Z</time>
      </trkpt>
      <trkpt lat="48.862135" lon="2.084495">
        <ele>177.249315</ele>
        <time>2023-03-30T16:00:32.634Z</time>
      </trkpt>
      <trkpt lat="48.862164" lon="2.084521">
        <ele>177.186743</ele>
        <time>2023-03-30T16:00:33.037Z</time>
      </trkpt>
      <trkpt lat="48.864833" lon="2.086977">
        <ele>170.862970</ele>
        <time>2023-03-30T16:01:06.881Z</time>
      </trkpt>
      <trkpt lat="48.864996" lon="2.087194">
        <ele>170.305397</ele>
        <time>2023-03-30T16:01:09.206Z</time>
      </trkpt>
      <trkpt lat="48.865050" lon="2.087392">
        <ele>169.885219</ele>
        <time>2023-03-30T16:01:10.748Z</time>
      </trkpt>
      <trkpt lat="48.865074" lon="2.087900">
        <ele>168.886812</ele>
        <time>2023-03-30T16:01:14.370Z</time>
      </trkpt>
      <trkpt lat="48.865477" lon="2.089815">
        <ele>164.651380</ele>
        <time>2023-03-30T16:01:27.784Z</time>
      </trkpt>
      <trkpt lat="48.865606" lon="2.090259">
        <ele>162.830796</ele>
        <time>2023-03-30T16:01:30.848Z</time>
      </trkpt>
      <trkpt lat="48.865930" lon="2.090972">
        <ele>159.580397</ele>
        <time>2023-03-30T16:01:36.164Z</time>
      </trkpt>
      <trkpt lat="48.866628" lon="2.092372">
        <ele>153.038140</ele>
        <time>2023-03-30T16:01:46.518Z</time>
      </trkpt>
      <trkpt lat="48.866704" lon="2.092543">
        <ele>152.281972</ele>
        <time>2023-03-30T16:01:47.735Z</time>
      </trkpt>
      <trkpt lat="48.866763" lon="2.092674">
        <ele>151.700250</ele>
        <time>2023-03-30T16:01:48.692Z</time>
      </trkpt>
      <trkpt lat="48.866810" lon="2.092941">
        <ele>150.687513</ele>
        <time>2023-03-30T16:01:50.371Z</time>
      </trkpt>
      <trkpt lat="48.866799" lon="2.093066">
        <ele>150.225420</ele>
        <time>2023-03-30T16:01:51.135Z</time>
      </trkpt>
      <trkpt lat="48.866723" lon="2.093306">
        <ele>149.249446</ele>
        <time>2023-03-30T16:01:52.780Z</time>
      </trkpt>
      <trkpt lat="48.866608" lon="2.093550">
        <ele>148.149611</ele>
        <time>2023-03-30T16:01:54.646Z</time>
      </trkpt>
      <trkpt lat="48.866459" lon="2.093714">
        <ele>147.124957</ele>
        <time>2023-03-30T16:01:56.445Z</time>
      </trkpt>
      <trkpt lat="48.866292" lon="2.093785">
        <ele>146.159051</ele>
        <time>2023-03-30T16:01:58.112Z</time>
      </trkpt>
      <trkpt lat="48.866151" lon="2.093777">
        <ele>145.373115</ele>
        <time>2023-03-30T16:01:59.513Z</time>
      </trkpt>
      <trkpt lat="48.866032" lon="2.093720">
        <ele>144.715803</ele>
        <time>2023-03-30T16:02:00.741Z</time>
      </trkpt>
      <trkpt lat="48.865807" lon="2.093538">
        <ele>143.465963</ele>
        <time>2023-03-30T16:02:03.182Z</time>
      </trkpt>
      <trkpt lat="48.865695" lon="2.093502">
        <ele>142.904591</ele>
        <time>2023-03-30T16:02:04.258Z</time>
      </trkpt>
      <trkpt lat="48.865507" lon="2.093530">
        <ele>141.978257</ele>
        <time>2023-03-30T16:02:06.021Z</time>
      </trkpt>
      <trkpt lat="48.865310" lon="2.093681">
        <ele>140.896344</ele>
        <time>2023-03-30T16:02:08.060Z</time>
      </trkpt>
      <trkpt lat="48.865094" lon="2.093890">
        <ele>139.640747</ele>
        <time>2023-03-30T16:02:10.480Z</time>
      </trkpt>
      <trkpt lat="48.865032" lon="2.094013">
        <ele>139.140869</ele>
        <time>2023-03-30T16:02:11.435Z</time>
      </trkpt>
      <trkpt lat="48.864997" lon="2.094081">
        <ele>138.862341</ele>
        <time>2023-03-30T16:02:11.988Z</time>
      </trkpt>
      <trkpt lat="48.864982" lon="2.094112">
        <ele>138.738198</ele>
        <time>2023-03-30T16:02:12.227Z</time>
      </trkpt>
      <trkpt lat="48.864970" lon="2.094139">
        <ele>138.633083</ele>
        <time>2023-03-30T16:02:12.434Z</time>
      </trkpt>
      <trkpt lat="48.864948" lon="2.094194">
        <ele>138.425432</ele>
        <time>2023-03-30T16:02:12.839Z</time>
      </trkpt>
      <trkpt lat="48.864928" lon="2.094250">
        <ele>138.219875</ele>
        <time>2023-03-30T16:02:13.238Z</time>
      </trkpt>
      <trkpt lat="48.864910" lon="2.094307">
        <ele>138.015909</ele>
        <time>2023-03-30T16:02:13.638Z</time>
      </trkpt>
      <trkpt lat="48.864897" lon="2.094353">
        <ele>137.854402</ele>
        <time>2023-03-30T16:02:13.952Z</time>
      </trkpt>
      <trkpt lat="48.864885" lon="2.094400">
        <ele>137.691765</ele>
        <time>2023-03-30T16:02:14.266Z</time>
      </trkpt>
      <trkpt lat="48.864874" lon="2.094449">
        <ele>137.524744</ele>
        <time>2023-03-30T16:02:14.593Z</time>
      </trkpt>
      <trkpt lat="48.864865" lon="2.094498">
        <ele>137.360628</ele>
        <time>2023-03-30T16:02:14.921Z</time>
      </trkpt>
      <trkpt lat="48.864857" lon="2.094549">
        <ele>137.191494</ele>
        <time>2023-03-30T16:02:15.258Z</time>
      </trkpt>
      <trkpt lat="48.864850" lon="2.094600">
        <ele>137.023429</ele>
        <time>2023-03-30T16:02:15.592Z</time>
      </trkpt>
      <trkpt lat="48.864844" lon="2.094651">
        <ele>136.856297</ele>
        <time>2023-03-30T16:02:15.921Z</time>
      </trkpt>
      <trkpt lat="48.864841" lon="2.094702">
        <ele>136.691118</ele>
        <time>2023-03-30T16:02:16.248Z</time>
      </trkpt>
      <trkpt lat="48.864838" lon="2.094753">
        <ele>136.525940</ele>
        <time>2023-03-30T16:02:16.568Z</time>
      </trkpt>
      <trkpt lat="48.864837" lon="2.094799">
        <ele>136.377466</ele>
        <time>2023-03-30T16:02:16.851Z</time>
      </trkpt>
      <trkpt lat="48.864837" lon="2.094844">
        <ele>136.232300</ele>
        <time>2023-03-30T16:02:17.134Z</time>
      </trkpt>
      <trkpt lat="48.864838" lon="2.094893">
        <ele>136.041221</ele>
        <time>2023-03-30T16:02:17.434Z</time>
      </trkpt>
      <trkpt lat="48.864861" lon="2.095120">
        <ele>135.052763</ele>
        <time>2023-03-30T16:02:18.871Z</time>
      </trkpt>
      <trkpt lat="48.864932" lon="2.095455">
        <ele>133.538050</ele>
        <time>2023-03-30T16:02:20.998Z</time>
      </trkpt>
      <trkpt lat="48.865107" lon="2.096027">
        <ele>130.823140</ele>
        <time>2023-03-30T16:02:24.775Z</time>
      </trkpt>
      <trkpt lat="48.865150" lon="2.096169">
        <ele>130.150379</ele>
        <time>2023-03-30T16:02:25.707Z</time>
      </trkpt>
      <trkpt lat="48.865192" lon="2.096304">
        <ele>129.507687</ele>
        <time>2023-03-30T16:02:26.573Z</time>
      </trkpt>
      <trkpt lat="48.865249" lon="2.096490">
        <ele>128.624608</ele>
        <time>2023-03-30T16:02:27.771Z</time>
      </trkpt>
      <trkpt lat="48.865448" lon="2.097141">
        <ele>125.535221</ele>
        <time>2023-03-30T16:02:31.960Z</time>
      </trkpt>
      <trkpt lat="48.865509" lon="2.097340">
        <ele>124.590382</ele>
        <time>2023-03-30T16:02:33.246Z</time>
      </trkpt>
      <trkpt lat="48.865592" lon="2.097611">
        <ele>123.324910</ele>
        <time>2023-03-30T16:02:35.029Z</time>
      </trkpt>
      <trkpt lat="48.866061" lon="2.099144">
        <ele>116.187726</ele>
        <time>2023-03-30T16:02:45.072Z</time>
      </trkpt>
      <trkpt lat="48.866458" lon="2.100411">
        <ele>112.477976</ele>
        <time>2023-03-30T16:02:53.595Z</time>
      </trkpt>
      <trkpt lat="48.866537" lon="2.100543">
        <ele>112.366363</ele>
        <time>2023-03-30T16:02:54.792Z</time>
      </trkpt>
      <trkpt lat="48.866793" lon="2.100760">
        <ele>112.087683</ele>
        <time>2023-03-30T16:02:58.091Z</time>
      </trkpt>
      <trkpt lat="48.866897" lon="2.100861">
        <ele>111.970347</ele>
        <time>2023-03-30T16:02:59.543Z</time>
      </trkpt>
      <trkpt lat="48.867084" lon="2.101136">
        <ele>111.722975</ele>
        <time>2023-03-30T16:03:03.252Z</time>
      </trkpt>
      <trkpt lat="48.867144" lon="2.101317">
        <ele>111.596211</ele>
        <time>2023-03-30T16:03:05.546Z</time>
      </trkpt>
      <trkpt lat="48.867145" lon="2.101484">
        <ele>111.491761</ele>
        <time>2023-03-30T16:03:08.077Z</time>
      </trkpt>
      <trkpt lat="48.867145" lon="2.101648">
        <ele>111.389191</ele>
        <time>2023-03-30T16:03:10.439Z</time>
      </trkpt>
      <trkpt lat="48.867140" lon="2.101671">
        <ele>111.374040</ele>
        <time>2023-03-30T16:03:10.800Z</time>
      </trkpt>
      <trkpt lat="48.867134" lon="2.101713">
        <ele>111.347160</ele>
        <time>2023-03-30T16:03:11.484Z</time>
      </trkpt>
      <trkpt lat="48.867086" lon="2.101845">
        <ele>111.252829</ele>
        <time>2023-03-30T16:03:14.012Z</time>
      </trkpt>
      <trkpt lat="48.867009" lon="2.101968">
        <ele>111.195796</ele>
        <time>2023-03-30T16:03:17.447Z</time>
      </trkpt>
      <trkpt lat="48.866835" lon="2.102090">
        <ele>112.410440</ele>
        <time>2023-03-30T16:03:23.378Z</time>
      </trkpt>
      <trkpt lat="48.866635" lon="2.102122">
        <ele>113.685235</ele>
        <time>2023-03-30T16:03:30.786Z</time>
      </trkpt>
      <trkpt lat="48.866322" lon="2.101988">
        <ele>115.746510</ele>
        <time>2023-03-30T16:03:43.909Z</time>
      </trkpt>
      <trkpt lat="48.866087" lon="2.102020">
        <ele>117.242131</ele>
        <time>2023-03-30T16:03:54.374Z</time>
      </trkpt>
      <trkpt lat="48.864025" lon="2.103808">
        <ele>133.583937</ele>
        <time>2023-03-30T16:05:41.784Z</time>
      </trkpt>
      <trkpt lat="48.864045" lon="2.103872">
        <ele>133.918671</ele>
        <time>2023-03-30T16:05:43.587Z</time>
      </trkpt>
      <trkpt lat="48.864291" lon="2.104685">
        <ele>137.331764</ele>
        <time>2023-03-30T16:06:05.853Z</time>
      </trkpt>
      <trkpt lat="48.864533" lon="2.105356">
        <ele>139.846022</ele>
        <time>2023-03-30T16:06:23.442Z</time>
      </trkpt>
      <trkpt lat="48.865090" lon="2.105891">
        <ele>143.136811</ele>
        <time>2023-03-30T16:06:44.599Z</time>
      </trkpt>
      <trkpt lat="48.865442" lon="2.106079">
        <ele>144.815051</ele>
        <time>2023-03-30T16:06:57.031Z</time>
      </trkpt>
      <trkpt lat="48.866029" lon="2.106810">
        <ele>147.318046</ele>
        <time>2023-03-30T16:07:21.492Z</time>
      </trkpt>
      <trkpt lat="48.866236" lon="2.107529">
        <ele>149.021041</ele>
        <time>2023-03-30T16:07:35.964Z</time>
      </trkpt>
      <trkpt lat="48.866237" lon="2.107788">
        <ele>149.583040</ele>
        <time>2023-03-30T16:07:40.221Z</time>
      </trkpt>
      <trkpt lat="48.866232" lon="2.108111">
        <ele>150.284094</ele>
        <time>2023-03-30T16:07:44.991Z</time>
      </trkpt>
      <trkpt lat="48.866284" lon="2.108474">
        <ele>150.011048</ele>
        <time>2023-03-30T16:07:49.955Z</time>
      </trkpt>
      <trkpt lat="48.866546" lon="2.109518">
        <ele>148.710817</ele>
        <time>2023-03-30T16:08:00.069Z</time>
      </trkpt>
      <trkpt lat="48.866589" lon="2.109871">
        <ele>148.293074</ele>
        <time>2023-03-30T16:08:02.616Z</time>
      </trkpt>
      <trkpt lat="48.866572" lon="2.110498">
        <ele>147.562863</ele>
        <time>2023-03-30T16:08:06.622Z</time>
      </trkpt>
      <trkpt lat="48.866517" lon="2.110991">
        <ele>146.323907</ele>
        <time>2023-03-30T16:08:09.687Z</time>
      </trkpt>
      <trkpt lat="48.866511" lon="2.111247">
        <ele>145.155657</ele>
        <time>2023-03-30T16:08:11.225Z</time>
      </trkpt>
      <trkpt lat="48.866509" lon="2.111415">
        <ele>144.389353</ele>
        <time>2023-03-30T16:08:12.245Z</time>
      </trkpt>
      <trkpt lat="48.866494" lon="2.112033">
        <ele>141.568992</ele>
        <time>2023-03-30T16:08:15.915Z</time>
      </trkpt>
      <trkpt lat="48.866493" lon="2.112067">
        <ele>141.413778</ele>
        <time>2023-03-30T16:08:16.112Z</time>
      </trkpt>
      <trkpt lat="48.866484" lon="2.112280">
        <ele>140.440371</ele>
        <time>2023-03-30T16:08:17.358Z</time>
      </trkpt>
      <trkpt lat="48.866455" lon="2.112900">
        <ele>137.605666</ele>
        <time>2023-03-30T16:08:20.974Z</time>
      </trkpt>
      <trkpt lat="48.866451" lon="2.112992">
        <ele>137.185176</ele>
        <time>2023-03-30T16:08:21.518Z</time>
      </trkpt>
      <trkpt lat="48.866270" lon="2.113551">
        <ele>134.342455</ele>
        <time>2023-03-30T16:08:25.141Z</time>
      </trkpt>
      <trkpt lat="48.866108" lon="2.113869">
        <ele>132.502314</ele>
        <time>2023-03-30T16:08:27.475Z</time>
      </trkpt>
      <trkpt lat="48.865790" lon="2.114370">
        <ele>129.317141</ele>
        <time>2023-03-30T16:08:31.558Z</time>
      </trkpt>
      <trkpt lat="48.865543" lon="2.114658">
        <ele>127.152138</ele>
        <time>2023-03-30T16:08:34.364Z</time>
      </trkpt>
      <trkpt lat="48.864835" lon="2.115396">
        <ele>121.429982</ele>
        <time>2023-03-30T16:08:42.200Z</time>
      </trkpt>
      <trkpt lat="48.864816" lon="2.115511">
        <ele>121.016408</ele>
        <time>2023-03-30T16:08:42.901Z</time>
      </trkpt>
      <trkpt lat="48.864854" lon="2.115613">
        <ele>120.607543</ele>
        <time>2023-03-30T16:08:43.607Z</time>
      </trkpt>
      <trkpt lat="48.865360" lon="2.116392">
        <ele>116.789073</ele>
        <time>2023-03-30T16:08:50.305Z</time>
      </trkpt>
      <trkpt lat="48.865355" lon="2.116427">
        <ele>116.664150</ele>
        <time>2023-03-30T16:08:50.533Z</time>
      </trkpt>
      <trkpt lat="48.864790" lon="2.117137">
        <ele>112.777347</ele>
        <time>2023-03-30T16:08:57.560Z</time>
      </trkpt>
      <trkpt lat="48.864426" lon="2.117618">
        <ele>110.278934</ele>
        <time>2023-03-30T16:09:02.118Z</time>
      </trkpt>
      <trkpt lat="48.864173" lon="2.117970">
        <ele>108.503768</ele>
        <time>2023-03-30T16:09:05.311Z</time>
      </trkpt>
      <trkpt lat="48.864111" lon="2.118181">
        <ele>107.716922</ele>
        <time>2023-03-30T16:09:06.708Z</time>
      </trkpt>
      <trkpt lat="48.864090" lon="2.118369">
        <ele>107.067637</ele>
        <time>2023-03-30T16:09:07.862Z</time>
      </trkpt>
      <trkpt lat="48.863958" lon="2.119372">
        <ele>103.584839</ele>
        <time>2023-03-30T16:09:14.148Z</time>
      </trkpt>
      <trkpt lat="48.863689" lon="2.121918">
        <ele>95.838813</ele>
        <time>2023-03-30T16:09:30.202Z</time>
      </trkpt>
      <trkpt lat="48.863557" lon="2.123111">
        <ele>93.612780</ele>
        <time>2023-03-30T16:09:38.536Z</time>
      </trkpt>
      <trkpt lat="48.863496" lon="2.123184">
        <ele>93.425151</ele>
        <time>2023-03-30T16:09:39.451Z</time>
      </trkpt>
      <trkpt lat="48.863504" lon="2.123274">
        <ele>93.280759</ele>
        <time>2023-03-30T16:09:40.100Z</time>
      </trkpt>
      <trkpt lat="48.863534" lon="2.123314">
        <ele>93.184316</ele>
        <time>2023-03-30T16:09:40.513Z</time>
      </trkpt>
      <trkpt lat="48.863554" lon="2.123323">
        <ele>93.133906</ele>
        <time>2023-03-30T16:09:40.718Z</time>
      </trkpt>
      <trkpt lat="48.863693" lon="2.123639">
        <ele>92.529532</ele>
        <time>2023-03-30T16:09:43.471Z</time>
      </trkpt>
      <trkpt lat="48.863752" lon="2.123773">
        <ele>92.273171</ele>
        <time>2023-03-30T16:09:44.593Z</time>
      </trkpt>
      <trkpt lat="48.864020" lon="2.124346">
        <ele>91.155379</ele>
        <time>2023-03-30T16:09:49.676Z</time>
      </trkpt>
      <trkpt lat="48.864049" lon="2.124358">
        <ele>91.082742</ele>
        <time>2023-03-30T16:09:49.994Z</time>
      </trkpt>
      <trkpt lat="48.864148" lon="2.124546">
        <ele>90.780474</ele>
        <time>2023-03-30T16:09:51.846Z</time>
      </trkpt>
      <trkpt lat="48.864853" lon="2.125727">
        <ele>89.637615</ele>
        <time>2023-03-30T16:10:03.789Z</time>
      </trkpt>
      <trkpt lat="48.864981" lon="2.126071">
        <ele>89.354392</ele>
        <time>2023-03-30T16:10:07.070Z</time>
      </trkpt>
      <trkpt lat="48.864998" lon="2.127290">
        <ele>89.067881</ele>
        <time>2023-03-30T16:10:18.836Z</time>
      </trkpt>
      <trkpt lat="48.864880" lon="2.128138">
        <ele>89.343846</ele>
        <time>2023-03-30T16:10:29.659Z</time>
      </trkpt>
      <trkpt lat="48.864902" lon="2.128793">
        <ele>89.552660</ele>
        <time>2023-03-30T16:10:37.997Z</time>
      </trkpt>
      <trkpt lat="48.864941" lon="2.129075">
        <ele>89.644408</ele>
        <time>2023-03-30T16:10:41.330Z</time>
      </trkpt>
      <trkpt lat="48.865138" lon="2.130002">
        <ele>89.104312</ele>
        <time>2023-03-30T16:10:50.752Z</time>
      </trkpt>
      <trkpt lat="48.865283" lon="2.130522">
        <ele>88.507287</ele>
        <time>2023-03-30T16:10:55.297Z</time>
      </trkpt>
      <trkpt lat="48.865634" lon="2.131478">
        <ele>87.349980</ele>
        <time>2023-03-30T16:11:03.047Z</time>
      </trkpt>
      <trkpt lat="48.865647" lon="2.131648">
        <ele>87.169068</ele>
        <time>2023-03-30T16:11:04.193Z</time>
      </trkpt>
      <trkpt lat="48.865624" lon="2.132036">
        <ele>86.613210</ele>
        <time>2023-03-30T16:11:06.810Z</time>
      </trkpt>
      <trkpt lat="48.865543" lon="2.132646">
        <ele>85.095760</ele>
        <time>2023-03-30T16:11:10.905Z</time>
      </trkpt>
      <trkpt lat="48.865286" lon="2.134439">
        <ele>80.621037</ele>
        <time>2023-03-30T16:11:23.067Z</time>
      </trkpt>
      <trkpt lat="48.865071" lon="2.135401">
        <ele>76.537204</ele>
        <time>2023-03-30T16:11:29.185Z</time>
      </trkpt>
      <trkpt lat="48.864962" lon="2.136245">
        <ele>72.801766</ele>
        <time>2023-03-30T16:11:34.293Z</time>
      </trkpt>
      <trkpt lat="48.864969" lon="2.136545">
        <ele>71.498053</ele>
        <time>2023-03-30T16:11:36.039Z</time>
      </trkpt>
      <trkpt lat="48.864973" lon="2.136820">
        <ele>70.303443</ele>
        <time>2023-03-30T16:11:37.671Z</time>
      </trkpt>
      <trkpt lat="48.864944" lon="2.137199">
        <ele>68.646357</ele>
        <time>2023-03-30T16:11:39.892Z</time>
      </trkpt>
      <trkpt lat="48.864897" lon="2.137377">
        <ele>67.924278</ele>
        <time>2023-03-30T16:11:41.023Z</time>
      </trkpt>
      <trkpt lat="48.864845" lon="2.137572">
        <ele>67.208264</ele>
        <time>2023-03-30T16:11:42.239Z</time>
      </trkpt>
      <trkpt lat="48.864687" lon="2.137888">
        <ele>65.857592</ele>
        <time>2023-03-30T16:11:44.567Z</time>
      </trkpt>
      <trkpt lat="48.864381" lon="2.138147">
        <ele>64.045865</ele>
        <time>2023-03-30T16:11:47.674Z</time>
      </trkpt>
      <trkpt lat="48.863894" lon="2.138753">
        <ele>60.790265</ele>
        <time>2023-03-30T16:11:53.495Z</time>
      </trkpt>
      <trkpt lat="48.863586" lon="2.138974">
        <ele>59.028443</ele>
        <time>2023-03-30T16:11:57.599Z</time>
      </trkpt>
      <trkpt lat="48.863127" lon="2.139079">
        <ele>60.485795</ele>
        <time>2023-03-30T16:12:06.431Z</time>
      </trkpt>
      <trkpt lat="48.862972" lon="2.139229">
        <ele>61.067042</ele>
        <time>2023-03-30T16:12:10.879Z</time>
      </trkpt>
      <trkpt lat="48.862933" lon="2.139279">
        <ele>61.228433</ele>
        <time>2023-03-30T16:12:12.416Z</time>
      </trkpt>
      <trkpt lat="48.862931" lon="2.139372">
        <ele>61.422072</ele>
        <time>2023-03-30T16:12:14.263Z</time>
      </trkpt>
      <trkpt lat="48.862931" lon="2.139429">
        <ele>61.540691</ele>
        <time>2023-03-30T16:12:15.403Z</time>
      </trkpt>
      <trkpt lat="48.862973" lon="2.139485">
        <ele>61.717418</ele>
        <time>2023-03-30T16:12:16.915Z</time>
      </trkpt>
      <trkpt lat="48.862949" lon="2.139643">
        <ele>62.054872</ele>
        <time>2023-03-30T16:12:20.030Z</time>
      </trkpt>
      <trkpt lat="48.862928" lon="2.139715">
        <ele>62.218772</ele>
        <time>2023-03-30T16:12:21.879Z</time>
      </trkpt>
      <trkpt lat="48.862926" lon="2.139991">
        <ele>62.793172</ele>
        <time>2023-03-30T16:12:28.229Z</time>
      </trkpt>
      <trkpt lat="48.862855" lon="2.140005">
        <ele>63.019649</ele>
        <time>2023-03-30T16:12:30.517Z</time>
      </trkpt>
      <trkpt lat="48.862190" lon="2.140139">
        <ele>65.360117</ele>
        <time>2023-03-30T16:12:55.396Z</time>
      </trkpt>
      <trkpt lat="48.861787" lon="2.140286">
        <ele>67.336653</ele>
        <time>2023-03-30T16:13:11.680Z</time>
      </trkpt>
      <trkpt lat="48.861485" lon="2.140239">
        <ele>68.784469</ele>
        <time>2023-03-30T16:13:24.219Z</time>
      </trkpt>
      <trkpt lat="48.860892" lon="2.139984">
        <ele>71.723575</ele>
        <time>2023-03-30T16:13:42.976Z</time>
      </trkpt>
      <trkpt lat="48.860328" lon="2.139776">
        <ele>74.147987</ele>
        <time>2023-03-30T16:13:59.125Z</time>
      </trkpt>
      <trkpt lat="48.859602" lon="2.139698">
        <ele>76.627353</ele>
        <time>2023-03-30T16:14:18.758Z</time>
      </trkpt>
      <trkpt lat="48.859606" lon="2.139587">
        <ele>76.876503</ele>
        <time>2023-03-30T16:14:19.713Z</time>
      </trkpt>
      <trkpt lat="48.859571" lon="2.139500">
        <ele>77.105054</ele>
        <time>2023-03-30T16:14:21.672Z</time>
      </trkpt>
      <trkpt lat="48.859532" lon="2.139376">
        <ele>77.413091</ele>
        <time>2023-03-30T16:14:24.386Z</time>
      </trkpt>
      <trkpt lat="48.859428" lon="2.139405">
        <ele>77.773291</ele>
        <time>2023-03-30T16:14:27.717Z</time>
      </trkpt>
      <trkpt lat="48.859325" lon="2.139428">
        <ele>78.127937</ele>
        <time>2023-03-30T16:14:29.320Z</time>
      </trkpt>
      <trkpt lat="48.859340" lon="2.139593">
        <ele>78.501256</ele>
        <time>2023-03-30T16:14:32.544Z</time>
      </trkpt>
      <trkpt lat="48.859347" lon="2.139650">
        <ele>78.631213</ele>
        <time>2023-03-30T16:14:33.721Z</time>
      </trkpt>
      <trkpt lat="48.859392" lon="2.139768">
        <ele>78.936896</ele>
        <time>2023-03-30T16:14:36.704Z</time>
      </trkpt>
      <trkpt lat="48.859485" lon="2.139784">
        <ele>79.255734</ele>
        <time>2023-03-30T16:14:38.538Z</time>
      </trkpt>
      <trkpt lat="48.859532" lon="2.140004">
        <ele>80.002793</ele>
        <time>2023-03-30T16:14:44.427Z</time>
      </trkpt>
      <trkpt lat="48.859627" lon="2.140112">
        <ele>80.665372</ele>
        <time>2023-03-30T16:14:49.450Z</time>
      </trkpt>
      <trkpt lat="48.860673" lon="2.140420">
        <ele>86.616039</ele>
        <time>2023-03-30T16:15:30.944Z</time>
      </trkpt>
      <trkpt lat="48.860735" lon="2.140597">
        <ele>87.352852</ele>
        <time>2023-03-30T16:15:35.363Z</time>
      </trkpt>
      <trkpt lat="48.860737" lon="2.140795">
        <ele>88.080472</ele>
        <time>2023-03-30T16:15:41.135Z</time>
      </trkpt>
      <trkpt lat="48.860672" lon="2.140924">
        <ele>88.677523</ele>
        <time>2023-03-30T16:15:45.068Z</time>
      </trkpt>
      <trkpt lat="48.860532" lon="2.140968">
        <ele>89.475547</ele>
        <time>2023-03-30T16:15:49.899Z</time>
      </trkpt>
      <trkpt lat="48.859120" lon="2.140882">
        <ele>97.117618</ele>
        <time>2023-03-30T16:16:43.832Z</time>
      </trkpt>
      <trkpt lat="48.858969" lon="2.140875">
        <ele>97.934589</ele>
        <time>2023-03-30T16:16:48.759Z</time>
      </trkpt>
      <trkpt lat="48.855931" lon="2.140734">
        <ele>111.275591</ele>
        <time>2023-03-30T16:18:25.678Z</time>
      </trkpt>
      <trkpt lat="48.855282" lon="2.140726">
        <ele>114.035839</ele>
        <time>2023-03-30T16:18:46.409Z</time>
      </trkpt>
      <trkpt lat="48.855122" lon="2.140775">
        <ele>114.734635</ele>
        <time>2023-03-30T16:18:51.609Z</time>
      </trkpt>
      <trkpt lat="48.854998" lon="2.140855">
        <ele>115.335533</ele>
        <time>2023-03-30T16:18:55.960Z</time>
      </trkpt>
      <trkpt lat="48.854889" lon="2.140964">
        <ele>115.917555</ele>
        <time>2023-03-30T16:19:00.046Z</time>
      </trkpt>
      <trkpt lat="48.854244" lon="2.142046">
        <ele>120.202752</ele>
        <time>2023-03-30T16:19:29.328Z</time>
      </trkpt>
      <trkpt lat="48.854138" lon="2.142229">
        <ele>120.918335</ele>
        <time>2023-03-30T16:19:34.483Z</time>
      </trkpt>
      <trkpt lat="48.854043" lon="2.142392">
        <ele>121.557440</ele>
        <time>2023-03-30T16:19:39.428Z</time>
      </trkpt>
      <trkpt lat="48.854008" lon="2.142560">
        <ele>122.074653</ele>
        <time>2023-03-30T16:19:43.815Z</time>
      </trkpt>
      <trkpt lat="48.853473" lon="2.142515">
        <ele>125.284127</ele>
        <time>2023-03-30T16:20:04.343Z</time>
      </trkpt>
      <trkpt lat="48.852742" lon="2.142610">
        <ele>130.040909</ele>
        <time>2023-03-30T16:20:34.426Z</time>
      </trkpt>
      <trkpt lat="48.852502" lon="2.142483">
        <ele>131.688592</ele>
        <time>2023-03-30T16:20:44.825Z</time>
      </trkpt>
      <trkpt lat="48.852154" lon="2.142146">
        <ele>134.369970</ele>
        <time>2023-03-30T16:21:01.970Z</time>
      </trkpt>
      <trkpt lat="48.851977" lon="2.142054">
        <ele>135.745956</ele>
        <time>2023-03-30T16:21:10.742Z</time>
      </trkpt>
      <trkpt lat="48.851717" lon="2.141950">
        <ele>137.723553</ele>
        <time>2023-03-30T16:21:23.496Z</time>
      </trkpt>
      <trkpt lat="48.851493" lon="2.141621">
        <ele>140.014946</ele>
        <time>2023-03-30T16:21:38.807Z</time>
      </trkpt>
      <trkpt lat="48.851315" lon="2.141351">
        <ele>141.864829</ele>
        <time>2023-03-30T16:21:50.581Z</time>
      </trkpt>
      <trkpt lat="48.851045" lon="2.140934">
        <ele>144.696425</ele>
        <time>2023-03-30T16:22:07.127Z</time>
      </trkpt>
      <trkpt lat="48.851026" lon="2.141010">
        <ele>145.089930</ele>
        <time>2023-03-30T16:22:09.390Z</time>
      </trkpt>
      <trkpt lat="48.850951" lon="2.141153">
        <ele>145.975029</ele>
        <time>2023-03-30T16:22:14.603Z</time>
      </trkpt>
      <trkpt lat="48.850714" lon="2.140952">
        <ele>147.869836</ele>
        <time>2023-03-30T16:22:25.560Z</time>
      </trkpt>
      <trkpt lat="48.850590" lon="2.140907">
        <ele>148.581690</ele>
        <time>2023-03-30T16:22:30.587Z</time>
      </trkpt>
      <trkpt lat="48.850467" lon="2.140966">
        <ele>149.301893</ele>
        <time>2023-03-30T16:22:35.428Z</time>
      </trkpt>
      <trkpt lat="48.850421" lon="2.141138">
        <ele>149.984069</ele>
        <time>2023-03-30T16:22:40.351Z</time>
      </trkpt>
      <trkpt lat="48.850428" lon="2.141325">
        <ele>150.672267</ele>
        <time>2023-03-30T16:22:45.182Z</time>
      </trkpt>
      <trkpt lat="48.850467" lon="2.141462">
        <ele>151.220727</ele>
        <time>2023-03-30T16:22:48.825Z</time>
      </trkpt>
      <trkpt lat="48.850631" lon="2.141783">
        <ele>152.713926</ele>
        <time>2023-03-30T16:22:59.384Z</time>
      </trkpt>
      <trkpt lat="48.850661" lon="2.141947">
        <ele>153.339354</ele>
        <time>2023-03-30T16:23:03.564Z</time>
      </trkpt>
      <trkpt lat="48.850653" lon="2.142056">
        <ele>153.742331</ele>
        <time>2023-03-30T16:23:06.338Z</time>
      </trkpt>
      <trkpt lat="48.850607" lon="2.142190">
        <ele>154.297652</ele>
        <time>2023-03-30T16:23:10.155Z</time>
      </trkpt>
      <trkpt lat="48.850426" lon="2.142377">
        <ele>155.519750</ele>
        <time>2023-03-30T16:23:18.315Z</time>
      </trkpt>
      <trkpt lat="48.849683" lon="2.142269">
        <ele>158.641909</ele>
        <time>2023-03-30T16:23:42.083Z</time>
      </trkpt>
      <trkpt lat="48.849340" lon="2.142253">
        <ele>159.601551</ele>
        <time>2023-03-30T16:23:51.680Z</time>
      </trkpt>
      <trkpt lat="48.849266" lon="2.142335">
        <ele>159.857663</ele>
        <time>2023-03-30T16:23:54.038Z</time>
      </trkpt>
      <trkpt lat="48.849189" lon="2.142511">
        <ele>160.246587</ele>
        <time>2023-03-30T16:23:57.920Z</time>
      </trkpt>
      <trkpt lat="48.849095" lon="2.142856">
        <ele>160.933725</ele>
        <time>2023-03-30T16:24:04.321Z</time>
      </trkpt>
      <trkpt lat="48.849084" lon="2.143080">
        <ele>161.347077</ele>
        <time>2023-03-30T16:24:07.760Z</time>
      </trkpt>
      <trkpt lat="48.849103" lon="2.143272">
        <ele>161.704370</ele>
        <time>2023-03-30T16:24:10.629Z</time>
      </trkpt>
      <trkpt lat="48.849189" lon="2.143743">
        <ele>162.603852</ele>
        <time>2023-03-30T16:24:17.196Z</time>
      </trkpt>
      <trkpt lat="48.849191" lon="2.143758">
        <ele>162.623828</ele>
        <time>2023-03-30T16:24:17.395Z</time>
      </trkpt>
      <trkpt lat="48.849431" lon="2.144854">
        <ele>162.858496</ele>
        <time>2023-03-30T16:24:30.265Z</time>
      </trkpt>
      <trkpt lat="48.849588" lon="2.145602">
        <ele>163.018002</ele>
        <time>2023-03-30T16:24:37.606Z</time>
      </trkpt>
      <trkpt lat="48.849522" lon="2.147280">
        <ele>163.443781</ele>
        <time>2023-03-30T16:24:53.509Z</time>
      </trkpt>
      <trkpt lat="48.849423" lon="2.149507">
        <ele>164.261852</ele>
        <time>2023-03-30T16:25:19.232Z</time>
      </trkpt>
      <trkpt lat="48.849451" lon="2.149635">
        <ele>164.355008</ele>
        <time>2023-03-30T16:25:20.977Z</time>
      </trkpt>
      <trkpt lat="48.849252" lon="2.149823">
        <ele>164.600930</ele>
        <time>2023-03-30T16:25:25.723Z</time>
      </trkpt>
      <trkpt lat="48.848983" lon="2.149987">
        <ele>164.905122</ele>
        <time>2023-03-30T16:25:31.713Z</time>
      </trkpt>
      <trkpt lat="48.848812" lon="2.150005">
        <ele>165.085019</ele>
        <time>2023-03-30T16:25:35.059Z</time>
      </trkpt>
      <trkpt lat="48.848650" lon="2.149964">
        <ele>165.257383</ele>
        <time>2023-03-30T16:25:38.279Z</time>
      </trkpt>
      <trkpt lat="48.848667" lon="2.150075">
        <ele>165.336092</ele>
        <time>2023-03-30T16:25:39.624Z</time>
      </trkpt>
      <trkpt lat="48.848658" lon="2.150286">
        <ele>165.482122</ele>
        <time>2023-03-30T16:25:42.307Z</time>
      </trkpt>
      <trkpt lat="48.848738" lon="2.150536">
        <ele>165.674112</ele>
        <time>2023-03-30T16:25:45.792Z</time>
      </trkpt>
      <trkpt lat="48.848736" lon="2.150584">
        <ele>165.707329</ele>
        <time>2023-03-30T16:25:46.358Z</time>
      </trkpt>
      <trkpt lat="48.848391" lon="2.151440">
        <ele>166.203821</ele>
        <time>2023-03-30T16:25:58.821Z</time>
      </trkpt>
      <trkpt lat="48.848266" lon="2.151732">
        <ele>166.353630</ele>
        <time>2023-03-30T16:26:03.032Z</time>
      </trkpt>
      <trkpt lat="48.848193" lon="2.151903">
        <ele>166.441289</ele>
        <time>2023-03-30T16:26:05.388Z</time>
      </trkpt>
      <trkpt lat="48.848152" lon="2.152005">
        <ele>166.492691</ele>
        <time>2023-03-30T16:26:06.714Z</time>
      </trkpt>
      <trkpt lat="48.847920" lon="2.152543">
        <ele>166.769314</ele>
        <time>2023-03-30T16:26:14.183Z</time>
      </trkpt>
      <trkpt lat="48.847862" lon="2.152509">
        <ele>166.809941</ele>
        <time>2023-03-30T16:26:15.275Z</time>
      </trkpt>
      <trkpt lat="48.847771" lon="2.152538">
        <ele>166.870705</ele>
        <time>2023-03-30T16:26:16.765Z</time>
      </trkpt>
      <trkpt lat="48.847718" lon="2.152629">
        <ele>166.922967</ele>
        <time>2023-03-30T16:26:18.082Z</time>
      </trkpt>
      <trkpt lat="48.847706" lon="2.152708">
        <ele>166.957835</ele>
        <time>2023-03-30T16:26:18.905Z</time>
      </trkpt>
      <trkpt lat="48.847720" lon="2.152807">
        <ele>167.001383</ele>
        <time>2023-03-30T16:26:20.034Z</time>
      </trkpt>
      <trkpt lat="48.847763" lon="2.152884">
        <ele>167.044815</ele>
        <time>2023-03-30T16:26:21.109Z</time>
      </trkpt>
      <trkpt lat="48.846982" lon="2.154707">
        <ele>166.853317</ele>
        <time>2023-03-30T16:26:41.534Z</time>
      </trkpt>
      <trkpt lat="48.846852" lon="2.154726">
        <ele>166.834764</ele>
        <time>2023-03-30T16:26:43.244Z</time>
      </trkpt>
      <trkpt lat="48.846851" lon="2.155007">
        <ele>166.808495</ele>
        <time>2023-03-30T16:26:45.735Z</time>
      </trkpt>
      <trkpt lat="48.846849" lon="2.155991">
        <ele>166.592053</ele>
        <time>2023-03-30T16:26:54.450Z</time>
      </trkpt>
      <trkpt lat="48.846848" lon="2.156293">
        <ele>166.521250</ele>
        <time>2023-03-30T16:26:57.120Z</time>
      </trkpt>
      <trkpt lat="48.846841" lon="2.158564">
        <ele>166.000234</ele>
        <time>2023-03-30T16:27:17.554Z</time>
      </trkpt>
      <trkpt lat="48.846762" lon="2.158571">
        <ele>165.973941</ele>
        <time>2023-03-30T16:27:18.679Z</time>
      </trkpt>
      <trkpt lat="48.846716" lon="2.158667">
        <ele>165.947975</ele>
        <time>2023-03-30T16:27:19.777Z</time>
      </trkpt>
      <trkpt lat="48.846717" lon="2.158728">
        <ele>165.934633</ele>
        <time>2023-03-30T16:27:20.332Z</time>
      </trkpt>
      <trkpt lat="48.846762" lon="2.158817">
        <ele>165.910092</ele>
        <time>2023-03-30T16:27:21.393Z</time>
      </trkpt>
      <trkpt lat="48.846836" lon="2.158827">
        <ele>165.885408</ele>
        <time>2023-03-30T16:27:22.470Z</time>
      </trkpt>
      <trkpt lat="48.846851" lon="2.166931">
        <ele>164.321559</ele>
        <time>2023-03-30T16:29:03.981Z</time>
      </trkpt>
      <trkpt lat="48.846851" lon="2.167025">
        <ele>164.318585</ele>
        <time>2023-03-30T16:29:05.182Z</time>
      </trkpt>
      <trkpt lat="48.846853" lon="2.168318">
        <ele>164.277675</ele>
        <time>2023-03-30T16:29:22.639Z</time>
      </trkpt>
      <trkpt lat="48.846848" lon="2.168746">
        <ele>164.352783</ele>
        <time>2023-03-30T16:29:28.695Z</time>
      </trkpt>
      <trkpt lat="48.846846" lon="2.168963">
        <ele>164.428063</ele>
        <time>2023-03-30T16:29:31.859Z</time>
      </trkpt>
      <trkpt lat="48.846801" lon="2.168963">
        <ele>164.451782</ele>
        <time>2023-03-30T16:29:32.559Z</time>
      </trkpt>
      <trkpt lat="48.846769" lon="2.169032">
        <ele>164.481063</ele>
        <time>2023-03-30T16:29:33.400Z</time>
      </trkpt>
      <trkpt lat="48.846801" lon="2.169114">
        <ele>164.514132</ele>
        <time>2023-03-30T16:29:34.440Z</time>
      </trkpt>
      <trkpt lat="48.846811" lon="2.169119">
        <ele>164.519681</ele>
        <time>2023-03-30T16:29:34.631Z</time>
      </trkpt>
      <trkpt lat="48.846873" lon="2.169077">
        <ele>164.555462</ele>
        <time>2023-03-30T16:29:35.738Z</time>
      </trkpt>
      <trkpt lat="48.847106" lon="2.169191">
        <ele>164.684487</ele>
        <time>2023-03-30T16:29:39.800Z</time>
      </trkpt>
      <trkpt lat="48.847709" lon="2.169520">
        <ele>165.022198</ele>
        <time>2023-03-30T16:29:51.001Z</time>
      </trkpt>
      <trkpt lat="48.847814" lon="2.169658">
        <ele>165.095373</ele>
        <time>2023-03-30T16:29:53.435Z</time>
      </trkpt>
      <trkpt lat="48.848032" lon="2.169940">
        <ele>165.261185</ele>
        <time>2023-03-30T16:29:58.432Z</time>
      </trkpt>
      <trkpt lat="48.848301" lon="2.170290">
        <ele>165.552220</ele>
        <time>2023-03-30T16:30:04.983Z</time>
      </trkpt>
      <trkpt lat="48.848500" lon="2.170548">
        <ele>165.767198</ele>
        <time>2023-03-30T16:30:09.932Z</time>
      </trkpt>
      <trkpt lat="48.848618" lon="2.170743">
        <ele>165.910466</ele>
        <time>2023-03-30T16:30:13.208Z</time>
      </trkpt>
      <trkpt lat="48.848628" lon="2.170861">
        <ele>165.974808</ele>
        <time>2023-03-30T16:30:14.618Z</time>
      </trkpt>
      <trkpt lat="48.848605" lon="2.171135">
        <ele>166.124190</ele>
        <time>2023-03-30T16:30:17.881Z</time>
      </trkpt>
      <trkpt lat="48.848563" lon="2.171594">
        <ele>166.374809</ele>
        <time>2023-03-30T16:30:23.354Z</time>
      </trkpt>
      <trkpt lat="48.848534" lon="2.171995">
        <ele>166.592979</ele>
        <time>2023-03-30T16:30:28.149Z</time>
      </trkpt>
      <trkpt lat="48.848495" lon="2.172514">
        <ele>166.800730</ele>
        <time>2023-03-30T16:30:34.325Z</time>
      </trkpt>
      <trkpt lat="48.848283" lon="2.173847">
        <ele>167.230363</ele>
        <time>2023-03-30T16:30:49.775Z</time>
      </trkpt>
      <trkpt lat="48.847813" lon="2.176357">
        <ele>167.172916</ele>
        <time>2023-03-30T16:31:16.738Z</time>
      </trkpt>
      <trkpt lat="48.847713" lon="2.177231">
        <ele>166.958393</ele>
        <time>2023-03-30T16:31:24.077Z</time>
      </trkpt>
      <trkpt lat="48.847498" lon="2.179068">
        <ele>164.751544</ele>
        <time>2023-03-30T16:31:38.002Z</time>
      </trkpt>
      <trkpt lat="48.847273" lon="2.180592">
        <ele>162.737036</ele>
        <time>2023-03-30T16:31:48.639Z</time>
      </trkpt>
      <trkpt lat="48.847212" lon="2.181004">
        <ele>162.251254</ele>
        <time>2023-03-30T16:31:51.563Z</time>
      </trkpt>
      <trkpt lat="48.847075" lon="2.181608">
        <ele>161.516341</ele>
        <time>2023-03-30T16:31:56.156Z</time>
      </trkpt>
      <trkpt lat="48.847009" lon="2.181674">
        <ele>161.378231</ele>
        <time>2023-03-30T16:31:57.054Z</time>
      </trkpt>
      <trkpt lat="48.847009" lon="2.181746">
        <ele>161.295407</ele>
        <time>2023-03-30T16:31:57.580Z</time>
      </trkpt>
      <trkpt lat="48.847040" lon="2.181800">
        <ele>161.212975</ele>
        <time>2023-03-30T16:31:58.115Z</time>
      </trkpt>
      <trkpt lat="48.847115" lon="2.181789">
        <ele>161.081263</ele>
        <time>2023-03-30T16:31:59.070Z</time>
      </trkpt>
      <trkpt lat="48.847543" lon="2.182027">
        <ele>160.284585</ele>
        <time>2023-03-30T16:32:04.748Z</time>
      </trkpt>
      <trkpt lat="48.848059" lon="2.182429">
        <ele>159.894183</ele>
        <time>2023-03-30T16:32:12.148Z</time>
      </trkpt>
      <trkpt lat="48.848339" lon="2.182640">
        <ele>159.767968</ele>
        <time>2023-03-30T16:32:16.596Z</time>
      </trkpt>
      <trkpt lat="48.848526" lon="2.182836">
        <ele>159.676229</ele>
        <time>2023-03-30T16:32:20.332Z</time>
      </trkpt>
      <trkpt lat="48.850504" lon="2.185295">
        <ele>158.480143</ele>
        <time>2023-03-30T16:32:54.562Z</time>
      </trkpt>
      <trkpt lat="48.850859" lon="2.185713">
        <ele>158.377787</ele>
        <time>2023-03-30T16:33:00.077Z</time>
      </trkpt>
      <trkpt lat="48.850902" lon="2.185823">
        <ele>158.360717</ele>
        <time>2023-03-30T16:33:01.137Z</time>
      </trkpt>
      <trkpt lat="48.850912" lon="2.186069">
        <ele>158.327834</ele>
        <time>2023-03-30T16:33:03.245Z</time>
      </trkpt>
      <trkpt lat="48.850892" lon="2.186178">
        <ele>158.312737</ele>
        <time>2023-03-30T16:33:04.238Z</time>
      </trkpt>
      <trkpt lat="48.850836" lon="2.186297">
        <ele>158.293219</ele>
        <time>2023-03-30T16:33:05.540Z</time>
      </trkpt>
      <trkpt lat="48.850402" lon="2.187010">
        <ele>158.163636</ele>
        <time>2023-03-30T16:33:14.962Z</time>
      </trkpt>
      <trkpt lat="48.850352" lon="2.187203">
        <ele>158.135963</ele>
        <time>2023-03-30T16:33:17.200Z</time>
      </trkpt>
      <trkpt lat="48.850384" lon="2.187450">
        <ele>158.102377</ele>
        <time>2023-03-30T16:33:20.008Z</time>
      </trkpt>
      <trkpt lat="48.850479" lon="2.187596">
        <ele>158.139741</ele>
        <time>2023-03-30T16:33:22.317Z</time>
      </trkpt>
      <trkpt lat="48.850631" lon="2.187732">
        <ele>158.212238</ele>
        <time>2023-03-30T16:33:25.303Z</time>
      </trkpt>
      <trkpt lat="48.851749" lon="2.188393">
        <ele>158.705297</ele>
        <time>2023-03-30T16:33:45.635Z</time>
      </trkpt>
      <trkpt lat="48.851826" lon="2.188474">
        <ele>158.743787</ele>
        <time>2023-03-30T16:33:47.083Z</time>
      </trkpt>
      <trkpt lat="48.851875" lon="2.188626">
        <ele>158.789563</ele>
        <time>2023-03-30T16:33:48.849Z</time>
      </trkpt>
      <trkpt lat="48.851919" lon="2.189202">
        <ele>158.704766</ele>
        <time>2023-03-30T16:33:54.805Z</time>
      </trkpt>
      <trkpt lat="48.851900" lon="2.189461">
        <ele>158.621483</ele>
        <time>2023-03-30T16:33:57.344Z</time>
      </trkpt>
      <trkpt lat="48.851613" lon="2.190657">
        <ele>158.214645</ele>
        <time>2023-03-30T16:34:08.637Z</time>
      </trkpt>
      <trkpt lat="48.851572" lon="2.190929">
        <ele>158.125469</ele>
        <time>2023-03-30T16:34:10.834Z</time>
      </trkpt>
      <trkpt lat="48.851516" lon="2.191250">
        <ele>158.019340</ele>
        <time>2023-03-30T16:34:13.482Z</time>
      </trkpt>
      <trkpt lat="48.851472" lon="2.191503">
        <ele>157.867542</ele>
        <time>2023-03-30T16:34:15.496Z</time>
      </trkpt>
      <trkpt lat="48.851279" lon="2.192267">
        <ele>156.930045</ele>
        <time>2023-03-30T16:34:21.900Z</time>
      </trkpt>
      <trkpt lat="48.851172" lon="2.192667">
        <ele>156.435398</ele>
        <time>2023-03-30T16:34:25.194Z</time>
      </trkpt>
      <trkpt lat="48.851109" lon="2.192715">
        <ele>156.312706</ele>
        <time>2023-03-30T16:34:26.028Z</time>
      </trkpt>
      <trkpt lat="48.851097" lon="2.192818">
        <ele>156.192877</ele>
        <time>2023-03-30T16:34:26.810Z</time>
      </trkpt>
      <trkpt lat="48.850735" lon="2.194110">
        <ele>154.272846</ele>
        <time>2023-03-30T16:34:36.962Z</time>
      </trkpt>
      <trkpt lat="48.850688" lon="2.194301">
        <ele>153.744222</ele>
        <time>2023-03-30T16:34:38.312Z</time>
      </trkpt>
      <trkpt lat="48.850695" lon="2.194393">
        <ele>153.504139</ele>
        <time>2023-03-30T16:34:38.913Z</time>
      </trkpt>
      <trkpt lat="48.850681" lon="2.194457">
        <ele>153.329302</ele>
        <time>2023-03-30T16:34:39.358Z</time>
      </trkpt>
      <trkpt lat="48.850423" lon="2.195652">
        <ele>150.068976</ele>
        <time>2023-03-30T16:34:47.405Z</time>
      </trkpt>
      <trkpt lat="48.849989" lon="2.197830">
        <ele>144.017668</ele>
        <time>2023-03-30T16:35:01.605Z</time>
      </trkpt>
      <trkpt lat="48.849957" lon="2.197996">
        <ele>143.550191</ele>
        <time>2023-03-30T16:35:02.691Z</time>
      </trkpt>
      <trkpt lat="48.849795" lon="2.198767">
        <ele>141.362874</ele>
        <time>2023-03-30T16:35:07.928Z</time>
      </trkpt>
      <trkpt lat="48.849647" lon="2.199317">
        <ele>140.008748</ele>
        <time>2023-03-30T16:35:11.939Z</time>
      </trkpt>
      <trkpt lat="48.849009" lon="2.201078">
        <ele>136.852422</ele>
        <time>2023-03-30T16:35:26.343Z</time>
      </trkpt>
      <trkpt lat="48.849297" lon="2.201406">
        <ele>135.964444</ele>
        <time>2023-03-30T16:35:30.222Z</time>
      </trkpt>
      <trkpt lat="48.849436" lon="2.201621">
        <ele>135.300354</ele>
        <time>2023-03-30T16:35:32.327Z</time>
      </trkpt>
      <trkpt lat="48.849754" lon="2.202300">
        <ele>133.464088</ele>
        <time>2023-03-30T16:35:38.038Z</time>
      </trkpt>
      <trkpt lat="48.850001" lon="2.202875">
        <ele>131.951142</ele>
        <time>2023-03-30T16:35:42.583Z</time>
      </trkpt>
      <trkpt lat="48.850099" lon="2.203088">
        <ele>131.378503</ele>
        <time>2023-03-30T16:35:44.266Z</time>
      </trkpt>
      <trkpt lat="48.850360" lon="2.203743">
        <ele>129.486808</ele>
        <time>2023-03-30T16:35:49.142Z</time>
      </trkpt>
      <trkpt lat="48.850643" lon="2.204245">
        <ele>127.184899</ele>
        <time>2023-03-30T16:35:53.248Z</time>
      </trkpt>
      <trkpt lat="48.850910" lon="2.204930">
        <ele>124.412472</ele>
        <time>2023-03-30T16:35:58.125Z</time>
      </trkpt>
      <trkpt lat="48.851123" lon="2.205143">
        <ele>123.063131</ele>
        <time>2023-03-30T16:36:00.492Z</time>
      </trkpt>
      <trkpt lat="48.851692" lon="2.205459">
        <ele>119.813353</ele>
        <time>2023-03-30T16:36:06.080Z</time>
      </trkpt>
      <trkpt lat="48.851830" lon="2.205478">
        <ele>119.031921</ele>
        <time>2023-03-30T16:36:07.348Z</time>
      </trkpt>
      <trkpt lat="48.851941" lon="2.205586">
        <ele>118.288641</ele>
        <time>2023-03-30T16:36:08.565Z</time>
      </trkpt>
      <trkpt lat="48.852083" lon="2.205602">
        <ele>117.485641</ele>
        <time>2023-03-30T16:36:09.851Z</time>
      </trkpt>
      <trkpt lat="48.852160" lon="2.205630">
        <ele>117.039145</ele>
        <time>2023-03-30T16:36:10.578Z</time>
      </trkpt>
      <trkpt lat="48.852830" lon="2.205820">
        <ele>113.195492</ele>
        <time>2023-03-30T16:36:16.780Z</time>
      </trkpt>
      <trkpt lat="48.852899" lon="2.205842">
        <ele>112.797898</ele>
        <time>2023-03-30T16:36:17.424Z</time>
      </trkpt>
      <trkpt lat="48.854298" lon="2.206574">
        <ele>107.121791</ele>
        <time>2023-03-30T16:36:31.806Z</time>
      </trkpt>
      <trkpt lat="48.854475" lon="2.206703">
        <ele>106.512986</ele>
        <time>2023-03-30T16:36:33.907Z</time>
      </trkpt>
      <trkpt lat="48.855519" lon="2.208007">
        <ele>103.819153</ele>
        <time>2023-03-30T16:36:49.764Z</time>
      </trkpt>
      <trkpt lat="48.856851" lon="2.209678">
        <ele>101.067647</ele>
        <time>2023-03-30T16:37:10.611Z</time>
      </trkpt>
      <trkpt lat="48.856958" lon="2.209773">
        <ele>100.808632</ele>
        <time>2023-03-30T16:37:11.930Z</time>
      </trkpt>
      <trkpt lat="48.857747" lon="2.210338">
        <ele>98.985586</ele>
        <time>2023-03-30T16:37:20.981Z</time>
      </trkpt>
      <trkpt lat="48.857863" lon="2.210496">
        <ele>98.525769</ele>
        <time>2023-03-30T16:37:22.593Z</time>
      </trkpt>
      <trkpt lat="48.857925" lon="2.210863">
        <ele>97.596020</ele>
        <time>2023-03-30T16:37:25.182Z</time>
      </trkpt>
      <trkpt lat="48.857941" lon="2.211028">
        <ele>97.186773</ele>
        <time>2023-03-30T16:37:26.307Z</time>
      </trkpt>
      <trkpt lat="48.858038" lon="2.211054">
        <ele>96.819425</ele>
        <time>2023-03-30T16:37:27.334Z</time>
      </trkpt>
      <trkpt lat="48.858388" lon="2.211223">
        <ele>95.449797</ele>
        <time>2023-03-30T16:37:30.999Z</time>
      </trkpt>
      <trkpt lat="48.858586" lon="2.211420">
        <ele>94.567202</ele>
        <time>2023-03-30T16:37:33.281Z</time>
      </trkpt>
      <trkpt lat="48.858758" lon="2.211695">
        <ele>93.636168</ele>
        <time>2023-03-30T16:37:35.653Z</time>
      </trkpt>
      <trkpt lat="48.858839" lon="2.211839">
        <ele>93.171294</ele>
        <time>2023-03-30T16:37:36.826Z</time>
      </trkpt>
      <trkpt lat="48.858887" lon="2.211956">
        <ele>92.832966</ele>
        <time>2023-03-30T16:37:37.689Z</time>
      </trkpt>
      <trkpt lat="48.859050" lon="2.212519">
        <ele>91.477067</ele>
        <time>2023-03-30T16:37:41.575Z</time>
      </trkpt>
      <trkpt lat="48.859063" lon="2.212560">
        <ele>91.386821</ele>
        <time>2023-03-30T16:37:41.863Z</time>
      </trkpt>
      <trkpt lat="48.859170" lon="2.212937">
        <ele>90.572686</ele>
        <time>2023-03-30T16:37:44.557Z</time>
      </trkpt>
      <trkpt lat="48.859348" lon="2.213507">
        <ele>89.321597</ele>
        <time>2023-03-30T16:37:48.769Z</time>
      </trkpt>
      <trkpt lat="48.859375" lon="2.213607">
        <ele>89.107262</ele>
        <time>2023-03-30T16:37:49.488Z</time>
      </trkpt>
      <trkpt lat="48.859411" lon="2.213734">
        <ele>88.833060</ele>
        <time>2023-03-30T16:37:50.408Z</time>
      </trkpt>
      <trkpt lat="48.859520" lon="2.213690">
        <ele>88.493159</ele>
        <time>2023-03-30T16:37:51.621Z</time>
      </trkpt>
      <trkpt lat="48.859577" lon="2.213668">
        <ele>88.315916</ele>
        <time>2023-03-30T16:37:52.234Z</time>
      </trkpt>
      <trkpt lat="48.859685" lon="2.213625">
        <ele>87.979436</ele>
        <time>2023-03-30T16:37:53.388Z</time>
      </trkpt>
      <trkpt lat="48.859860" lon="2.213492">
        <ele>87.389751</ele>
        <time>2023-03-30T16:37:55.514Z</time>
      </trkpt>
      <trkpt lat="48.860077" lon="2.213405">
        <ele>86.713371</ele>
        <time>2023-03-30T16:37:57.959Z</time>
      </trkpt>
      <trkpt lat="48.860862" lon="2.213023">
        <ele>85.621083</ele>
        <time>2023-03-30T16:38:07.960Z</time>
      </trkpt>
      <trkpt lat="48.860970" lon="2.212975">
        <ele>85.472832</ele>
        <time>2023-03-30T16:38:09.557Z</time>
      </trkpt>
      <trkpt lat="48.861331" lon="2.212795">
        <ele>84.972267</ele>
        <time>2023-03-30T16:38:14.697Z</time>
      </trkpt>
      <trkpt lat="48.861543" lon="2.212798">
        <ele>84.692938</ele>
        <time>2023-03-30T16:38:17.234Z</time>
      </trkpt>
      <trkpt lat="48.861580" lon="2.212785">
        <ele>84.642904</ele>
        <time>2023-03-30T16:38:17.677Z</time>
      </trkpt>
      <trkpt lat="48.861669" lon="2.212754">
        <ele>84.522604</ele>
        <time>2023-03-30T16:38:18.751Z</time>
      </trkpt>
      <trkpt lat="48.861764" lon="2.212895">
        <ele>84.347667</ele>
        <time>2023-03-30T16:38:20.227Z</time>
      </trkpt>
      <trkpt lat="48.861790" lon="2.212990">
        <ele>84.091471</ele>
        <time>2023-03-30T16:38:20.965Z</time>
      </trkpt>
      <trkpt lat="48.861863" lon="2.213250">
        <ele>83.292686</ele>
        <time>2023-03-30T16:38:22.949Z</time>
      </trkpt>
      <trkpt lat="48.862132" lon="2.213988">
        <ele>80.908663</ele>
        <time>2023-03-30T16:38:28.556Z</time>
      </trkpt>
      <trkpt lat="48.862288" lon="2.214398">
        <ele>79.570337</ele>
        <time>2023-03-30T16:38:31.530Z</time>
      </trkpt>
      <trkpt lat="48.862373" lon="2.214639">
        <ele>78.797665</ele>
        <time>2023-03-30T16:38:33.202Z</time>
      </trkpt>
      <trkpt lat="48.862484" lon="2.215101">
        <ele>77.407886</ele>
        <time>2023-03-30T16:38:36.152Z</time>
      </trkpt>
      <trkpt lat="48.862535" lon="2.215537">
        <ele>76.073944</ele>
        <time>2023-03-30T16:38:38.787Z</time>
      </trkpt>
      <trkpt lat="48.862584" lon="2.216166">
        <ele>73.955796</ele>
        <time>2023-03-30T16:38:42.588Z</time>
      </trkpt>
      <trkpt lat="48.862616" lon="2.216704">
        <ele>72.149322</ele>
        <time>2023-03-30T16:38:45.857Z</time>
      </trkpt>
      <trkpt lat="48.862631" lon="2.216876">
        <ele>71.569102</ele>
        <time>2023-03-30T16:38:46.907Z</time>
      </trkpt>
      <trkpt lat="48.862681" lon="2.216903">
        <ele>71.299377</ele>
        <time>2023-03-30T16:38:47.400Z</time>
      </trkpt>
      <trkpt lat="48.862771" lon="2.216975">
        <ele>70.782391</ele>
        <time>2023-03-30T16:38:48.356Z</time>
      </trkpt>
      <trkpt lat="48.863031" lon="2.217372">
        <ele>68.909078</ele>
        <time>2023-03-30T16:38:51.905Z</time>
      </trkpt>
      <trkpt lat="48.863183" lon="2.217502">
        <ele>68.022516</ele>
        <time>2023-03-30T16:38:53.619Z</time>
      </trkpt>
      <trkpt lat="48.864054" lon="2.217838">
        <ele>67.463968</ele>
        <time>2023-03-30T16:39:02.976Z</time>
      </trkpt>
      <trkpt lat="48.864125" lon="2.217827">
        <ele>67.463968</ele>
        <time>2023-03-30T16:39:03.889Z</time>
      </trkpt>
      <trkpt lat="48.864235" lon="2.217891">
        <ele>67.463968</ele>
        <time>2023-03-30T16:39:16.346Z</time>
      </trkpt>
      <trkpt lat="48.864370" lon="2.217939">
        <ele>67.463968</ele>
        <time>2023-03-30T16:39:31.224Z</time>
      </trkpt>
      <trkpt lat="48.864476" lon="2.217980">
        <ele>67.463968</ele>
        <time>2023-03-30T16:39:43.293Z</time>
      </trkpt>
      <trkpt lat="48.864699" lon="2.218081">
        <ele>67.463968</ele>
        <time>2023-03-30T16:40:08.674Z</time>
      </trkpt>
    </trkseg>
  </trk>
</gpx>